[[{"header":{"parameterUnit":"m.s-1","parameterCategory":1,"la1":31.0,"la2":29.5877,"lo1":-88.7671,"lo2":-86.6584,"dy":0.0162,"dx":0.0185,"nx":115,"ny":88,"refTime":"2026-03-09T00:00:00:Z","depth":0,"parameterNumber":2,"parameterNumberName":"U-component_of_WINDS"},"data":[0.0,0.0,0.0,0.0,0.0,0.0,0.0,0.0,0.0,0.0,0.0,0.0,0.0,0.0,0.0,0.0,0.0,0.0,0.0,0.0,0.0,0.0,0.0,0.0,0.0,0.0,0.0,0.0,0.0,0.0,0.0,0.0,0.0,0.0,0.0,0.0,0.0,0.0,0.0,0.0,0.0,0.0,0.0,0.0,0.0,0.0,0.0,0.0,0.0,0.0,0.0,0.0,0.0,0.0,0.0,0.0,0.0,0.0,0.0,0.0,0.0,0.0,0.0,0.0,0.0,0.0,0.0,0.0,0.0,0.0,0.0,0.0,0.0,0.0,0.0,0.0,0.0,0.0,0.0,0.0,0.0,0.0,0.0,0.0,0.0,0.0,0.0,0.0,0.0,0.0,0.0,0.0,0.0,0.0,0.0,0.0,0.0,0.0,0.0,0.0,0.0,0.0,0.0,0.0,0.0,0.0,0.0,0.0,0.0,0.0,0.0,0.0,0.0,0.0,0.0,0.0,0.0,0.0,0.0,0.0,0.0,0.0,0.0,0.0,0.0,0.0,0.0,0.0,0.0,0.0,0.0,0.0,0.0,0.0,0.0,0.0,0.0,0.0,0.0,0.0,0.0,0.0,0.0,0.0,0.0,0.0,0.0,0.0,0.0,0.0,0.0,0.0,0.0,0.0,0.0,0.0,0.0,0.0,0.0,0.0,0.0,0.0,0.0,0.0,0.0,0.0,0.0,0.0,0.0,0.0,0.0,0.0,0.0,0.0,0.0,0.0,0.0,0.0,0.0,0.0,0.0,0.0,0.0,0.0,0.0,0.0,0.0,0.0,0.0,0.0,0.0,0.0,0.0,0.0,0.0,0.0,0.0,0.0,0.0,0.0,0.0,0.0,0.0,0.0,0.0,0.0,0.0,0.0,0.0,0.0,0.0,0.0,0.0,0.0,0.0,0.0,0.0,0.0,0.0,0.0,0.0,0.0,0.0,0.0,0.0,0.0,0.0,0.0,0.0,0.0,0.0,0.0,0.0,0.0,0.0,0.0,0.0,0.0,0.0,0.0,0.0,0.0,0.0,0.0,0.0,0.0,0.0,0.0,0.0,0.0,0.0,0.0,0.0,0.0,0.0,0.0,0.0,0.0,0.0,0.0,0.0,0.0,0.0,0.0,0.0,0.0,0.0,0.0,0.0,0.0,0.0,0.0,0.0,0.0,0.0,0.0,0.0,0.0,0.0,0.0,0.0,0.0,0.0,0.0,0.0,0.0,0.0,0.0,0.0,0.0,0.0,0.0,0.0,0.0,0.0,0.0,0.0,0.0,0.0,0.0,0.0,0.0,0.0,0.0,0.0,0.0,0.0,0.0,0.0,0.0,0.0,0.0,0.0,0.0,0.0,0.0,0.0,0.0,0.0,0.0,0.0,0.0,0.0,0.0,0.0,0.0,0.0,0.0,0.0,0.0,0.0,0.0,0.0,0.0,0.0,0.0,0.0,0.0,0.0,0.0,0.0,0.0,0.0,0.0,0.0,0.0,0.0,0.0,0.0,0.0,0.0,0.0,0.0,0.0,0.0,0.0,0.0,0.0,0.0,0.0,0.0,0.0,0.0,0.0,0.0,0.0,0.0,0.0,0.0,0.0,0.0,0.0,0.0,0.0,0.0,0.0,0.0,0.0,0.0,0.0,0.0,0.0,0.0,0.0,0.0,0.0,0.0,0.0,0.0,0.0,0.0,0.0,0.0,0.0,0.0,0.0,0.0,0.0,0.0,0.0,0.0,0.0,0.0,0.0,0.0,0.0,0.0,0.0,0.0,0.0,0.0,0.0,0.0,0.0,0.0,0.0,0.0,0.0,0.0,0.0,0.0,0.0,0.0,0.0,0.0,0.0,0.0,0.0,0.0,0.0,0.0,0.0,0.0,0.0,0.0,0.0,0.0,0.0,0.0,0.0,0.0,0.0,0.0,0.0,0.0,0.0,0.0,0.0,0.0,0.0,0.0,0.0,0.0,0.0,0.0,0.0,0.0,0.0,0.0,0.0,0.0,0.0,0.0,0.0,0.0,0.0,0.0,0.0,0.0,0.0,0.0,0.0,0.0,0.0,0.0,0.0,0.0,0.0,0.0,0.0,0.0,0.0,0.0,0.0,0.0,0.0,0.0,0.0,0.0,0.0,0.0,0.0,0.0,0.0,0.0,0.0,0.0,0.0,0.0,0.0,0.0,0.0,0.0,0.0,0.0,0.0,0.0,0.0,0.0,0.0,0.0,0.0,0.0,0.0,0.0,0.0,0.0,0.0,0.0,0.0,0.0,0.0,0.0,0.0,0.0,0.0,0.0,0.0,0.0,0.0,0.0,0.0,0.0,0.0,0.0,0.0,0.0,0.0,0.0,0.0,0.0,0.0,0.0,0.0,0.0,0.0,0.0,0.0,0.0,0.0,0.0,0.0,0.0,0.0,0.0,0.0,0.0,0.0,0.0,0.0,0.0,0.0,0.0,0.0,0.0,0.0,0.0,0.0,0.0,0.0,0.0,0.0,0.0,0.0,0.0,0.0,0.0,0.0,0.0,0.0,0.0,0.0,0.0,0.0,0.0,0.0,0.0,0.0,0.0,0.0,0.0,0.0,0.0,0.0,0.0,0.0,0.0,0.0,0.0,0.0,0.0,0.0,0.0,0.0,0.0,0.0,0.0,0.0,0.0,0.0,0.0,0.0,0.0,0.0,0.0,0.0,0.0,0.0,0.0,0.0,0.0,0.0,0.0,0.0,0.0,0.0,0.0,0.0,0.0,0.0,0.0,0.0,0.0,0.0,0.0,0.0,0.0,0.0,0.0,0.0,0.0,0.0,0.0,0.0,0.0,0.0,0.0,0.0,0.0,0.0,0.0,0.0,0.0,0.0,0.0,0.0,0.0,0.0,0.0,0.0,0.0,0.0,0.0,0.0,0.0,0.0,0.0,0.0,0.0,0.0,0.0,0.0,0.0,0.0,0.0,0.0,0.0,0.0,0.0,0.0,0.0,0.0,0.0,0.0,0.0,0.0,0.0,0.0,0.0,0.0,0.0,0.0,0.0,0.0,0.0,0.0,0.0,0.0,0.0,0.0,0.0,0.0,0.0,0.0,0.0,0.0,0.0,0.0,0.0,0.0,0.0,0.0,0.0,0.0,0.0,0.0,0.0,0.0,0.0,0.0,0.0,0.0,0.0,0.0,0.0,0.0,0.0,0.0,0.0,0.0,0.0,0.0,0.0,0.0,0.0,0.0,0.0,0.0,0.0,0.0,0.0,0.0,0.0,0.0,0.0,0.0,0.0,0.0,0.0,0.0,0.0,0.0,0.0,0.0,0.0,0.0,0.0,0.0,0.0,0.0,0.0,0.0,0.0,0.0,0.0,0.0,0.0,0.0,0.0,0.0,0.0,0.0,0.0,0.0,0.0,0.0,0.0,0.0,0.0,0.0,0.0,0.0,0.0,0.0,0.0,0.0,0.0,0.0,0.0,0.0,0.0,0.0,0.0,0.0,0.0,0.0,0.0,0.0,0.0,0.0,0.0,0.0,0.0,0.0,0.0,0.0,0.0,0.0,0.0,0.0,0.0,0.0,0.0,0.0,0.0,0.0,0.0,0.0,0.0,0.0,0.0,0.0,0.0,0.0,0.0,0.0,0.0,0.0,0.0,0.0,0.0,0.0,0.0,0.0,0.0,0.0,0.0,0.0,0.0,0.0,0.0,0.0,0.0,0.0,0.0,0.0,0.0,0.0,0.0,0.0,0.0,0.0,0.0,0.0,0.0,0.0,0.0,0.0,0.0,0.0,0.0,0.0,0.0,0.0,0.0,0.0,0.0,0.0,0.0,0.0,0.0,0.0,0.0,0.0,0.0,0.0,0.0,0.0,0.0,0.0,0.0,0.0,0.0,0.0,0.0,0.0,0.0,0.0,0.0,0.0,0.0,0.0,0.0,0.0,0.0,0.0,0.0,0.0,0.0,0.0,0.0,0.0,0.0,0.0,0.0,0.0,0.0,0.0,0.0,0.0,0.0,0.0,0.0,0.0,0.0,0.0,0.0,0.0,0.0,0.0,0.0,0.0,0.0,0.0,0.0,0.0,0.0,0.0,0.0,0.0,0.0,0.0,0.0,0.0,0.0,0.0,0.0,0.0,0.0,0.0,0.0,0.0,0.0,0.0,0.0,0.0,0.0,0.0,0.0,0.0,0.0,0.0,0.0,0.0,0.0,0.0,0.0,0.0,0.0,0.0,0.0,0.0,0.0,0.0,0.0,0.0,6.5469,0.0,0.0,0.0,0.0,0.0,0.0,0.0,0.0,0.0,0.0,0.0,0.0,0.0,0.0,0.0,0.0,0.0,0.0,0.0,0.0,0.0,0.0,0.0,0.0,0.0,0.0,0.0,0.0,0.0,0.0,0.0,0.0,0.0,0.0,0.0,0.0,0.0,0.0,0.0,0.0,0.0,0.0,0.0,0.0,0.0,0.0,0.0,0.0,0.0,0.0,0.0,0.0,0.0,0.0,0.0,0.0,0.0,0.0,0.0,0.0,0.0,0.0,0.0,0.0,0.0,0.0,0.0,0.0,0.0,0.0,0.0,0.0,0.0,0.0,0.0,0.0,0.0,0.0,0.0,0.0,0.0,0.0,0.0,0.0,0.0,0.0,0.0,0.0,0.0,0.0,0.0,0.0,0.0,0.0,0.0,0.0,0.0,0.0,0.0,0.0,0.0,0.0,0.0,0.0,0.0,0.0,0.0,0.0,0.0,0.0,6.8203,6.8203,6.8203,6.7383,6.5625,0.0,0.0,0.0,0.0,0.0,0.0,0.0,0.0,0.0,0.0,0.0,0.0,0.0,0.0,0.0,0.0,0.0,0.0,0.0,0.0,0.0,0.0,0.0,0.0,0.0,0.0,0.0,0.0,0.0,0.0,0.0,0.0,0.0,0.0,0.0,0.0,0.0,0.0,0.0,0.0,0.0,0.0,0.0,0.0,0.0,0.0,0.0,0.0,0.0,0.0,0.0,0.0,0.0,0.0,0.0,0.0,0.0,0.0,0.0,0.0,0.0,0.0,0.0,0.0,0.0,0.0,0.0,0.0,0.0,0.0,0.0,0.0,0.0,0.0,0.0,0.0,0.0,0.0,0.0,0.0,0.0,0.0,0.0,0.0,0.0,0.0,0.0,0.0,0.0,0.0,0.0,0.0,0.0,0.0,0.0,0.0,0.0,0.0,0.0,0.0,0.0,0.0,0.0,0.0,0.0,0.0,0.0,0.0,0.0,0.0,0.0,0.0,6.8398,6.7461,6.5312,0.0,0.0,0.0,0.0,0.0,0.0,0.0,0.0,0.0,0.0,0.0,0.0,0.0,0.0,0.0,0.0,0.0,0.0,0.0,0.0,0.0,0.0,0.0,0.0,0.0,0.0,0.0,0.0,0.0,0.0,0.0,0.0,0.0,0.0,0.0,0.0,0.0,0.0,0.0,0.0,0.0,0.0,0.0,0.0,0.0,0.0,0.0,0.0,0.0,0.0,0.0,0.0,0.0,0.0,0.0,0.0,0.0,0.0,0.0,0.0,0.0,0.0,0.0,0.0,0.0,0.0,0.0,0.0,0.0,0.0,0.0,0.0,0.0,0.0,0.0,0.0,0.0,0.0,0.0,0.0,0.0,0.0,0.0,0.0,0.0,0.0,0.0,0.0,0.0,0.0,0.0,0.0,0.0,0.0,0.0,0.0,0.0,0.0,0.0,0.0,0.0,0.0,0.0,0.0,0.0,0.0,0.0,0.0,0.0,0.0,6.8203,6.8203,6.8945,0.0,6.4609,0.0,0.0,0.0,0.0,0.0,0.0,0.0,0.0,0.0,0.0,0.0,0.0,0.0,0.0,0.0,0.0,0.0,0.0,0.0,0.0,0.0,0.0,0.0,0.0,0.0,0.0,0.0,0.0,0.0,0.0,0.0,0.0,0.0,0.0,0.0,0.0,0.0,0.0,0.0,0.0,0.0,0.0,0.0,0.0,0.0,0.0,0.0,0.0,0.0,0.0,0.0,0.0,0.0,0.0,0.0,0.0,0.0,0.0,0.0,0.0,0.0,0.0,0.0,0.0,0.0,0.0,0.0,0.0,0.0,0.0,0.0,0.0,0.0,0.0,0.0,0.0,0.0,0.0,0.0,0.0,0.0,0.0,0.0,0.0,0.0,0.0,0.0,0.0,0.0,0.0,0.0,0.0,0.0,0.0,0.0,0.0,0.0,0.0,0.0,0.0,0.0,0.0,0.0,0.0,0.0,0.0,0.0,0.0,0.0,0.0,0.0,6.8984,6.832,6.6562,0.0,0.0,0.0,0.0,0.0,0.0,0.0,0.0,0.0,0.0,0.0,0.0,0.0,0.0,0.0,0.0,0.0,0.0,0.0,0.0,0.0,0.0,0.0,0.0,0.0,0.0,0.0,0.0,0.0,0.0,0.0,0.0,0.0,0.0,0.0,0.0,0.0,0.0,0.0,0.0,0.0,0.0,0.0,0.0,0.0,0.0,0.0,0.0,0.0,0.0,0.0,0.0,0.0,0.0,0.0,0.0,0.0,0.0,0.0,0.0,0.0,0.0,0.0,0.0,0.0,0.0,0.0,0.0,0.0,0.0,0.0,0.0,0.0,0.0,0.0,0.0,0.0,0.0,0.0,0.0,0.0,0.0,0.0,0.0,0.0,0.0,0.0,0.0,0.0,0.0,0.0,0.0,0.0,0.0,0.0,0.0,0.0,0.0,0.0,0.0,0.0,0.0,0.0,0.0,0.0,0.0,0.0,0.0,0.0,0.0,6.8359,0.0,6.9101,6.8164,6.6172,6.3125,0.0,0.0,0.0,0.0,0.0,0.0,0.0,0.0,0.0,0.0,0.0,0.0,0.0,0.0,0.0,0.0,0.0,0.0,0.0,0.0,0.0,0.0,0.0,0.0,0.0,0.0,0.0,0.0,0.0,0.0,0.0,0.0,0.0,0.0,0.0,0.0,0.0,0.0,0.0,0.0,0.0,0.0,0.0,0.0,0.0,0.0,0.0,0.0,0.0,0.0,0.0,0.0,0.0,0.0,0.0,0.0,0.0,0.0,0.0,0.0,0.0,0.0,0.0,0.0,0.0,0.0,0.0,0.0,0.0,0.0,0.0,0.0,0.0,0.0,0.0,0.0,0.0,0.0,0.0,0.0,0.0,0.0,0.0,0.0,0.0,0.0,0.0,0.0,0.0,0.0,0.0,0.0,0.0,0.0,0.0,0.0,0.0,0.0,0.0,0.0,0.0,0.0,0.0,0.0,0.0,0.0,0.0,0.0,0.0,6.7773,6.8281,6.832,6.8984,6.7383,0.0,0.0,0.0,0.0,0.0,0.0,0.0,0.0,0.0,0.0,0.0,0.0,0.0,0.0,0.0,0.0,0.0,0.0,0.0,0.0,0.0,0.0,0.0,0.0,0.0,0.0,0.0,0.0,0.0,0.0,0.0,0.0,0.0,0.0,0.0,0.0,0.0,0.0,0.0,0.0,0.0,0.0,0.0,0.0,0.0,0.0,0.0,0.0,0.0,0.0,0.0,0.0,0.0,0.0,0.0,0.0,0.0,0.0,0.0,0.0,0.0,0.0,0.0,0.0,0.0,0.0,0.0,0.0,0.0,0.0,0.0,0.0,0.0,0.0,0.0,0.0,0.0,0.0,0.0,0.0,0.0,0.0,0.0,0.0,0.0,0.0,0.0,0.0,0.0,0.0,0.0,0.0,0.0,0.0,0.0,0.0,0.0,0.0,0.0,0.0,0.0,0.0,0.0,0.0,0.0,0.0,0.0,0.0,0.0,6.6055,6.6914,6.8164,6.9648,6.8008,6.6015,0.0,0.0,0.0,0.0,0.0,0.0,0.0,0.0,0.0,0.0,0.0,0.0,0.0,0.0,0.0,0.0,0.0,0.0,0.0,0.0,0.0,0.0,0.0,0.0,0.0,0.0,0.0,0.0,0.0,0.0,0.0,0.0,0.0,0.0,0.0,0.0,0.0,0.0,0.0,0.0,0.0,0.0,0.0,0.0,0.0,0.0,0.0,0.0,0.0,0.0,0.0,0.0,0.0,0.0,0.0,0.0,0.0,0.0,0.0,0.0,0.0,0.0,0.0,0.0,0.0,0.0,0.0,0.0,0.0,0.0,0.0,0.0,0.0,0.0,0.0,0.0,0.0,0.0,0.0,0.0,0.0,0.0,0.0,0.0,0.0,0.0,0.0,0.0,0.0,0.0,0.0,0.0,0.0,0.0,0.0,0.0,0.0,0.0,0.0,0.0,0.0,0.0,0.0,0.0,0.0,0.0,0.0,0.0,0.0,6.6406,0.0,6.8281,0.0,6.7226,6.4961,0.0,0.0,0.0,0.0,0.0,0.0,0.0,0.0,0.0,0.0,0.0,0.0,0.0,0.0,0.0,0.0,0.0,0.0,0.0,0.0,0.0,0.0,0.0,0.0,0.0,0.0,0.0,0.0,0.0,0.0,0.0,0.0,0.0,0.0,0.0,0.0,0.0,0.0,0.0,0.0,0.0,0.0,0.0,0.0,0.0,0.0,0.0,0.0,0.0,0.0,0.0,0.0,0.0,0.0,0.0,0.0,0.0,0.0,0.0,0.0,0.0,0.0,0.0,0.0,0.0,0.0,0.0,0.0,0.0,0.0,0.0,0.0,0.0,0.0,0.0,0.0,0.0,0.0,0.0,0.0,0.0,0.0,0.0,0.0,0.0,0.0,0.0,0.0,0.0,0.0,0.0,0.0,0.0,0.0,0.0,0.0,0.0,0.0,0.0,0.0,0.0,0.0,0.0,0.0,0.0,0.0,0.0,0.0,6.6367,6.8047,6.8867,6.8594,6.7031,6.6953,6.4492,0.0,0.0,0.0,0.0,0.0,0.0,0.0,0.0,0.0,0.0,0.0,0.0,0.0,0.0,0.0,0.0,0.0,0.0,0.0,0.0,0.0,0.0,0.0,0.0,0.0,0.0,0.0,0.0,0.0,0.0,0.0,0.0,0.0,0.0,0.0,0.0,0.0,0.0,0.0,0.0,0.0,0.0,0.0,0.0,0.0,0.0,0.0,0.0,0.0,0.0,0.0,0.0,0.0,0.0,0.0,0.0,0.0,0.0,0.0,0.0,0.0,0.0,0.0,0.0,0.0,0.0,0.0,0.0,0.0,0.0,0.0,0.0,0.0,0.0,0.0,0.0,0.0,0.0,0.0,0.0,0.0,0.0,0.0,0.0,0.0,0.0,0.0,0.0,0.0,0.0,0.0,0.0,0.0,0.0,0.0,0.0,0.0,0.0,0.0,0.0,0.0,0.0,0.0,0.0,0.0,0.0,0.0,0.0,0.0,6.6406,6.7812,6.8867,6.9414,6.7226,6.4961,0.0,0.0,0.0,0.0,0.0,0.0,0.0,0.0,0.0,0.0,0.0,0.0,0.0,0.0,0.0,0.0,0.0,0.0,0.0,0.0,0.0,0.0,0.0,0.0,0.0,0.0,0.0,0.0,0.0,0.0,0.0,0.0,0.0,0.0,0.0,0.0,0.0,0.0,0.0,0.0,0.0,0.0,0.0,0.0,0.0,0.0,0.0,0.0,0.0,0.0,0.0,0.0,0.0,0.0,0.0,0.0,0.0,0.0,0.0,0.0,0.0,0.0,0.0,0.0,0.0,0.0,0.0,0.0,0.0,0.0,0.0,0.0,0.0,0.0,0.0,0.0,0.0,0.0,0.0,0.0,0.0,0.0,0.0,0.0,0.0,0.0,0.0,0.0,0.0,0.0,0.0,0.0,0.0,0.0,0.0,0.0,0.0,0.0,0.0,0.0,0.0,0.0,0.0,0.0,0.0,0.0,0.0,0.0,0.0,6.793,6.9375,7.0586,7.164,6.8359,6.5547,6.3359,0.0,0.0,0.0,0.0,0.0,0.0,0.0,0.0,0.0,0.0,0.0,0.0,0.0,0.0,0.0,0.0,0.0,0.0,0.0,0.0,0.0,0.0,0.0,0.0,0.0,0.0,0.0,0.0,0.0,0.0,0.0,0.0,0.0,0.0,0.0,0.0,0.0,0.0,0.0,0.0,0.0,0.0,0.0,0.0,0.0,0.0,0.0,0.0,0.0,0.0,0.0,0.0,0.0,0.0,0.0,0.0,0.0,0.0,0.0,0.0,0.0,0.0,0.0,0.0,0.0,0.0,0.0,0.0,0.0,0.0,0.0,0.0,0.0,0.0,0.0,0.0,0.0,0.0,0.0,0.0,0.0,0.0,0.0,0.0,0.0,0.0,0.0,0.0,0.0,0.0,0.0,0.0,0.0,0.0,0.0,0.0,0.0,0.0,0.0,0.0,0.0,0.0,0.0,0.0,0.0,0.0,0.0,0.0,7.2226,7.3242,7.3789,7.3633,7.0234,6.6367,0.0,0.0,0.0,0.0,0.0,0.0,0.0,0.0,0.0,0.0,0.0,0.0,0.0,0.0,0.0,0.0,0.0,0.0,0.0,0.0,0.0,0.0,0.0,0.0,0.0,0.0,0.0,0.0,0.0,0.0,0.0,0.0,0.0,0.0,0.0,0.0,0.0,0.0,0.0,0.0,0.0,0.0,0.0,0.0,0.0,0.0,0.0,0.0,0.0,0.0,0.0,0.0,0.0,0.0,0.0,0.0,0.0,0.0,0.0,0.0,0.0,0.0,0.0,0.0,0.0,0.0,0.0,0.0,0.0,0.0,0.0,0.0,0.0,0.0,0.0,0.0,0.0,0.0,0.0,0.0,0.0,0.0,0.0,0.0,0.0,0.0,0.0,0.0,0.0,0.0,0.0,0.0,0.0,0.0,0.0,0.0,0.0,0.0,0.0,0.0,0.0,0.0,0.0,0.0,0.0,0.0,0.0,0.0,0.0,7.5547,7.8398,7.9258,7.7969,7.2851,6.8633,0.0,0.0,0.0,0.0,0.0,0.0,0.0,0.0,0.0,0.0,0.0,0.0,0.0,0.0,0.0,0.0,0.0,0.0,0.0,0.0,0.0,0.0,0.0,0.0,0.0,0.0,0.0,0.0,0.0,0.0,0.0,0.0,0.0,0.0,0.0,0.0,0.0,0.0,0.0,0.0,0.0,0.0,0.0,0.0,0.0,0.0,0.0,0.0,0.0,0.0,0.0,0.0,0.0,0.0,0.0,0.0,0.0,0.0,0.0,0.0,0.0,0.0,0.0,0.0,0.0,0.0,0.0,0.0,0.0,0.0,0.0,0.0,0.0,0.0,0.0,0.0,0.0,0.0,0.0,0.0,0.0,0.0,0.0,0.0,0.0,0.0,0.0,0.0,0.0,0.0,0.0,0.0,0.0,0.0,0.0,0.0,0.0,0.0,0.0,0.0,0.0,0.0,0.0,0.0,0.0,0.0,0.0,0.0,7.2601,7.7423,8.201,8.4101,8.3476,7.6601,7.1523,0.0,0.0,0.0,0.0,0.0,0.0,0.0,0.0,0.0,0.0,0.0,0.0,0.0,0.0,0.0,0.0,0.0,0.0,0.0,0.0,0.0,0.0,0.0,0.0,0.0,0.0,0.0,0.0,0.0,0.0,0.0,0.0,0.0,0.0,0.0,0.0,0.0,0.0,0.0,0.0,0.0,0.0,0.0,0.0,0.0,0.0,0.0,0.0,0.0,0.0,0.0,0.0,0.0,0.0,0.0,0.0,0.0,0.0,0.0,0.0,0.0,0.0,0.0,0.0,0.0,0.0,0.0,0.0,0.0,0.0,0.0,0.0,0.0,0.0,0.0,0.0,0.0,0.0,0.0,0.0,0.0,0.0,0.0,0.0,0.0,0.0,0.0,0.0,0.0,0.0,0.0,0.0,0.0,0.0,0.0,0.0,0.0,0.0,0.0,0.0,0.0,0.0,0.0,0.0,0.0,0.0,0.0,0.0,7.4392,7.8829,8.4682,8.8125,8.8672,8.0466,7.4291,0.0,0.0,0.0,0.0,0.0,0.0,0.0,0.0,0.0,0.0,0.0,0.0,0.0,0.0,0.0,0.0,0.0,0.0,0.0,0.0,0.0,0.0,0.0,0.0,0.0,0.0,0.0,0.0,0.0,0.0,0.0,0.0,0.0,0.0,0.0,0.0,0.0,0.0,0.0,0.0,0.0,0.0,0.0,0.0,0.0,0.0,0.0,0.0,0.0,0.0,0.0,0.0,0.0,0.0,0.0,0.0,0.0,0.0,0.0,0.0,0.0,0.0,0.0,0.0,0.0,0.0,0.0,0.0,0.0,0.0,0.0,0.0,0.0,0.0,0.0,0.0,0.0,0.0,0.0,0.0,0.0,0.0,0.0,0.0,0.0,0.0,0.0,0.0,0.0,0.0,0.0,0.0,0.0,0.0,0.0,0.0,0.0,0.0,0.0,0.0,0.0,0.0,0.0,0.0,0.0,0.0,0.0,0.0,7.7457,8.3191,8.7244,8.9774,9.0664,8.0993,7.4461,0.0,0.0,0.0,0.0,0.0,0.0,0.0,0.0,0.0,0.0,0.0,0.0,0.0,0.0,0.0,0.0,0.0,0.0,0.0,0.0,0.0,0.0,0.0,0.0,0.0,0.0,0.0,0.0,0.0,0.0,0.0,0.0,0.0,0.0,0.0,0.0,0.0,0.0,0.0,0.0,0.0,0.0,0.0,0.0,0.0,0.0,0.0,0.0,7.2617,0.0,0.0,0.0,0.0,0.0,0.0,0.0,0.0,0.0,0.0,0.0,0.0,0.0,0.0,0.0,0.0,0.0,0.0,0.0,0.0,0.0,0.0,0.0,0.0,0.0,0.0,0.0,0.0,0.0,0.0,0.0,0.0,0.0,0.0,0.0,0.0,0.0,0.0,0.0,0.0,0.0,0.0,0.0,0.0,0.0,0.0,0.0,0.0,0.0,0.0,0.0,0.0,0.0,0.0,0.0,0.0,0.0,0.0,0.0,7.9024,8.4993,8.8195,9.0044,9.027,8.2881,7.7142,0.0,0.0,0.0,0.0,0.0,0.0,0.0,0.0,0.0,0.0,0.0,0.0,0.0,0.0,0.0,0.0,0.0,0.0,0.0,0.0,0.0,0.0,0.0,0.0,0.0,0.0,0.0,0.0,0.0,0.0,0.0,0.0,0.0,0.0,0.0,0.0,0.0,0.0,0.0,0.0,0.0,0.0,0.0,0.0,0.0,0.0,0.0,0.0,0.0,0.0,0.0,0.0,0.0,0.0,0.0,0.0,0.0,0.0,0.0,0.0,0.0,0.0,0.0,0.0,0.0,0.0,0.0,0.0,0.0,0.0,0.0,0.0,0.0,0.0,0.0,0.0,0.0,0.0,0.0,0.0,0.0,0.0,0.0,0.0,0.0,0.0,0.0,0.0,0.0,0.0,0.0,0.0,0.0,0.0,0.0,0.0,0.0,0.0,0.0,0.0,0.0,0.0,0.0,0.0,0.0,0.0,0.0,7.4442,7.9614,8.5678,8.8328,8.9556,8.9499,8.4847,8.0135,7.5602,0.0,0.0,0.0,0.0,0.0,0.0,0.0,0.0,0.0,0.0,0.0,0.0,0.0,0.0,0.0,0.0,0.0,0.0,0.0,0.0,0.0,0.0,0.0,0.0,0.0,0.0,0.0,0.0,0.0,0.0,0.0,0.0,0.0,0.0,0.0,0.0,0.0,0.0,6.6133,6.9062,0.0,0.0,0.0,0.0,0.0,0.0,0.0,0.0,7.2969,0.0,0.0,0.0,0.0,0.0,0.0,0.0,0.0,0.0,0.0,0.0,0.0,0.0,0.0,0.0,0.0,0.0,0.0,0.0,0.0,0.0,0.0,0.0,0.0,0.0,0.0,0.0,0.0,0.0,0.0,0.0,0.0,0.0,0.0,0.0,0.0,0.0,0.0,0.0,0.0,0.0,0.0,0.0,0.0,0.0,0.0,0.0,0.0,0.0,0.0,0.0,0.0,0.0,0.0,0.0,0.0,7.2024,7.4516,7.9291,8.6559,8.7936,8.8537,8.8463,8.4981,8.0345,7.4718,0.0,0.0,0.0,0.0,0.0,0.0,0.0,0.0,0.0,0.0,0.0,0.0,0.0,0.0,0.0,0.0,0.0,0.0,0.0,0.0,0.0,0.0,0.0,0.0,0.0,0.0,0.0,0.0,0.0,0.0,0.0,0.0,0.0,0.0,0.0,0.0,0.0,0.0,0.0,7.3828,7.418,0.0,0.0,0.0,0.0,0.0,0.0,0.0,0.0,7.3047,0.0,0.0,0.0,0.0,0.0,0.0,0.0,0.0,0.0,0.0,0.0,0.0,0.0,0.0,0.0,0.0,0.0,0.0,0.0,0.0,0.0,0.0,0.0,0.0,0.0,0.0,0.0,0.0,0.0,0.0,0.0,0.0,0.0,0.0,0.0,0.0,0.0,0.0,0.0,0.0,0.0,0.0,0.0,0.0,0.0,0.0,0.0,0.0,0.0,0.0,0.0,0.0,0.0,0.0,0.0,7.3511,7.6939,8.167,8.7805,8.8072,8.8104,8.7996,8.363,7.8883,0.0,0.0,0.0,0.0,0.0,0.0,0.0,0.0,0.0,0.0,0.0,0.0,0.0,0.0,0.0,0.0,0.0,0.0,0.0,0.0,0.0,0.0,0.0,0.0,0.0,0.0,0.0,0.0,0.0,0.0,0.0,0.0,0.0,0.0,0.0,0.0,0.0,0.0,0.0,0.0,7.6211,7.7265,8.0664,0.0,0.0,0.0,0.0,0.0,0.0,7.4219,7.3164,0.0,0.0,0.0,0.0,0.0,0.0,0.0,0.0,0.0,0.0,0.0,0.0,0.0,0.0,0.0,0.0,0.0,0.0,0.0,0.0,0.0,0.0,0.0,0.0,0.0,0.0,0.0,0.0,0.0,0.0,0.0,0.0,0.0,0.0,0.0,0.0,0.0,0.0,0.0,0.0,0.0,0.0,0.0,0.0,0.0,0.0,0.0,0.0,0.0,0.0,0.0,0.0,0.0,0.0,0.0,7.4002,7.8413,8.3194,8.8235,8.7921,8.7614,8.7513,8.2284,7.7559,0.0,0.0,0.0,0.0,0.0,0.0,0.0,0.0,0.0,0.0,0.0,0.0,0.0,0.0,0.0,0.0,0.0,0.0,0.0,0.0,0.0,0.0,0.0,0.0,0.0,0.0,0.0,0.0,0.0,0.0,0.0,0.0,0.0,0.0,0.0,0.0,0.0,0.0,0.0,0.0,0.0,8.0508,8.3164,8.0234,0.0,0.0,0.0,0.0,7.5195,7.5937,0.0,0.0,0.0,0.0,0.0,0.0,0.0,0.0,0.0,0.0,0.0,0.0,0.0,0.0,0.0,0.0,0.0,0.0,0.0,0.0,0.0,0.0,0.0,0.0,0.0,0.0,0.0,0.0,0.0,0.0,0.0,0.0,0.0,0.0,0.0,0.0,0.0,0.0,0.0,0.0,0.0,0.0,0.0,0.0,0.0,0.0,0.0,0.0,0.0,0.0,0.0,0.0,0.0,0.0,0.0,0.0,7.1371,7.5789,8.0884,8.6338,8.6621,8.6579,8.6531,8.224,7.7672,0.0,0.0,0.0,0.0,0.0,0.0,0.0,0.0,0.0,0.0,0.0,0.0,0.0,0.0,0.0,0.0,0.0,0.0,0.0,0.0,0.0,0.0,0.0,0.0,0.0,0.0,0.0,0.0,0.0,0.0,0.0,0.0,0.0,0.0,0.0,0.0,0.0,0.0,0.0,0.0,0.0,8.3125,8.3554,8.1211,7.9297,0.0,0.0,8.0547,8.2148,8.4922,0.0,0.0,0.0,0.0,0.0,0.0,0.0,0.0,0.0,0.0,0.0,0.0,0.0,0.0,0.0,0.0,0.0,0.0,0.0,0.0,0.0,0.0,0.0,0.0,0.0,0.0,0.0,0.0,0.0,0.0,0.0,0.0,0.0,0.0,0.0,0.0,0.0,0.0,0.0,0.0,0.0,0.0,0.0,0.0,0.0,0.0,0.0,0.0,0.0,0.0,0.0,0.0,0.0,0.0,0.0,6.7703,7.1739,7.7834,8.2678,8.6079,8.6242,8.6243,8.6201,8.0302,7.584,0.0,0.0,0.0,0.0,0.0,0.0,0.0,0.0,0.0,0.0,0.0,0.0,0.0,0.0,0.0,0.0,0.0,0.0,0.0,0.0,0.0,0.0,0.0,0.0,0.0,0.0,0.0,0.0,0.0,0.0,0.0,0.0,0.0,0.0,0.0,0.0,0.0,0.0,0.0,0.0,0.0,0.0,8.5586,8.4844,0.0,0.0,0.0,8.2812,8.1562,0.0,0.0,0.0,0.0,0.0,0.0,0.0,0.0,0.0,0.0,0.0,0.0,0.0,0.0,0.0,0.0,0.0,0.0,0.0,0.0,0.0,0.0,0.0,0.0,0.0,0.0,0.0,0.0,0.0,0.0,0.0,0.0,0.0,0.0,0.0,0.0,0.0,0.0,0.0,0.0,0.0,0.0,0.0,0.0,0.0,0.0,0.0,0.0,0.0,0.0,0.0,0.0,0.0,0.0,0.0,0.0,0.0,7.1967,7.9622,8.4434,8.6051,8.6517,8.6517,8.6015,7.9788,0.0,0.0,0.0,0.0,0.0,0.0,0.0,0.0,0.0,0.0,0.0,0.0,0.0,0.0,0.0,0.0,0.0,0.0,0.0,0.0,0.0,0.0,0.0,0.0,0.0,0.0,0.0,5.6133,0.0,0.0,0.0,0.0,0.0,0.0,0.0,0.0,0.0,0.0,0.0,0.0,0.0,0.0,8.5273,8.7226,8.8047,8.8437,0.0,0.0,8.5664,8.414,8.8281,8.8672,0.0,0.0,0.0,0.0,0.0,0.0,0.0,0.0,0.0,0.0,0.0,0.0,0.0,0.0,0.0,0.0,0.0,0.0,0.0,0.0,0.0,0.0,0.0,0.0,0.0,0.0,0.0,0.0,0.0,0.0,0.0,0.0,0.0,0.0,0.0,0.0,0.0,0.0,0.0,0.0,0.0,0.0,0.0,0.0,0.0,0.0,0.0,0.0,0.0,0.0,0.0,0.0,0.0,0.0,0.0,7.1127,7.9306,8.4441,8.6085,8.7675,8.7752,8.6094,8.2556,7.805,0.0,0.0,0.0,0.0,0.0,0.0,0.0,0.0,0.0,0.0,0.0,0.0,0.0,0.0,0.0,0.0,0.0,0.0,0.0,0.0,0.0,0.0,0.0,0.0,0.0,0.0,0.0,0.0,0.0,0.0,0.0,0.0,0.0,0.0,0.0,0.0,0.0,0.0,0.0,0.0,0.0,8.7304,8.75,8.9531,9.2695,0.0,9.3281,9.0976,9.4726,9.9609,9.8281,8.4219,0.0,0.0,0.0,0.0,0.0,0.0,0.0,0.0,0.0,0.0,0.0,0.0,0.0,0.0,0.0,0.0,0.0,0.0,0.0,0.0,0.0,0.0,0.0,0.0,0.0,0.0,0.0,0.0,0.0,0.0,0.0,0.0,0.0,0.0,0.0,0.0,0.0,0.0,0.0,0.0,0.0,0.0,0.0,0.0,0.0,0.0,0.0,0.0,0.0,0.0,0.0,0.0,0.0,6.9111,7.2538,8.083,8.6193,8.8314,8.8635,8.8139,8.694,8.3595,7.9084,0.0,0.0,0.0,0.0,0.0,0.0,0.0,0.0,0.0,0.0,0.0,0.0,0.0,0.0,0.0,0.0,0.0,0.0,0.0,0.0,0.0,0.0,0.0,0.0,0.0,0.0,0.0,0.0,6.1953,6.2031,6.1289,0.0,0.0,0.0,0.0,0.0,0.0,0.0,0.0,0.0,0.0,8.7422,9.164,9.3945,0.0,0.0,9.625,9.4765,9.4883,9.6094,9.3711,8.3867,7.9492,0.0,0.0,0.0,0.0,0.0,0.0,0.0,0.0,0.0,0.0,0.0,0.0,0.0,0.0,0.0,0.0,0.0,0.0,0.0,0.0,0.0,0.0,0.0,0.0,0.0,0.0,0.0,0.0,0.0,0.0,0.0,0.0,0.0,0.0,0.0,0.0,0.0,0.0,0.0,0.0,0.0,0.0,0.0,0.0,0.0,0.0,0.0,0.0,0.0,0.0,0.0,0.0,6.9325,7.2734,8.1566,8.7221,8.9472,8.9479,8.8906,8.7752,8.4709,8.0652,0.0,0.0,0.0,0.0,0.0,0.0,0.0,0.0,0.0,0.0,0.0,0.0,0.0,0.0,0.0,0.0,0.0,0.0,0.0,0.0,0.0,0.0,0.0,0.0,0.0,0.0,0.0,0.0,6.2969,6.2656,6.1445,0.0,0.0,0.0,0.0,0.0,0.0,0.0,0.0,0.0,0.0,8.8672,9.3711,9.5859,9.6953,9.6953,9.5429,9.414,9.3945,9.3164,9.0508,8.4453,0.0,0.0,0.0,0.0,0.0,0.0,0.0,0.0,0.0,0.0,0.0,0.0,0.0,0.0,0.0,0.0,0.0,0.0,0.0,0.0,0.0,0.0,0.0,0.0,0.0,0.0,0.0,0.0,0.0,0.0,5.5862,0.0,0.0,0.0,0.0,0.0,0.0,0.0,0.0,0.0,0.0,0.0,0.0,0.0,0.0,0.0,0.0,0.0,0.0,0.0,0.0,0.0,0.0,6.7675,7.1086,8.1037,8.6998,8.8786,9.0325,9.0327,8.8677,8.617,8.3204,7.9592,0.0,0.0,0.0,0.0,0.0,0.0,0.0,0.0,0.0,0.0,0.0,0.0,0.0,0.0,0.0,0.0,0.0,0.0,0.0,0.0,0.0,0.0,0.0,0.0,0.0,0.0,5.9609,6.0078,6.0547,0.0,0.0,0.0,0.0,0.0,0.0,0.0,0.0,0.0,0.0,8.5195,9.1445,9.25,9.414,9.5312,9.539,9.0469,8.832,9.3203,9.3086,9.1094,0.0,0.0,0.0,0.0,0.0,0.0,0.0,0.0,0.0,0.0,0.0,0.0,0.0,0.0,0.0,0.0,0.0,0.0,0.0,0.0,0.0,0.0,0.0,0.0,0.0,0.0,0.0,6.3412,6.2067,0.0,0.0,0.0,0.0,0.0,0.0,0.0,0.0,0.0,0.0,0.0,6.7611,6.9304,0.0,0.0,0.0,0.0,0.0,0.0,0.0,0.0,0.0,0.0,0.0,0.0,6.8906,7.3595,8.2359,8.836,9.1133,9.121,9.0669,8.9515,8.7592,8.3882,7.8303,0.0,0.0,0.0,0.0,0.0,0.0,0.0,0.0,0.0,0.0,0.0,0.0,0.0,0.0,0.0,0.0,0.0,0.0,0.0,0.0,0.0,0.0,0.0,0.0,0.0,6.1367,0.0,0.0,0.0,0.0,0.0,0.0,0.0,0.0,0.0,0.0,0.0,7.1289,7.7265,8.2265,8.6679,9.0351,9.2851,9.5312,0.0,0.0,0.0,0.0,0.0,0.0,0.0,0.0,0.0,0.0,0.0,0.0,0.0,0.0,8.0505,7.2609,7.207,7.2752,7.2388,0.0,0.0,0.0,0.0,0.0,0.0,0.0,0.0,0.0,0.0,0.0,0.0,0.0,0.0,6.6835,0.0,6.5827,0.0,0.0,0.0,0.0,0.0,0.0,0.0,0.0,7.025,7.2402,7.3236,7.462,7.4639,0.0,7.2146,6.8167,0.0,0.0,0.0,0.0,0.0,0.0,0.0,0.0,6.9626,7.3987,8.249,8.831,9.1025,9.1199,9.0782,8.9893,8.8556,8.5075,7.9227,7.4205,6.9062,0.0,0.0,0.0,0.0,0.0,0.0,0.0,0.0,0.0,0.0,0.0,0.0,0.0,0.0,0.0,0.0,0.0,0.0,0.0,0.0,0.0,0.0,0.0,6.3008,0.0,0.0,0.0,0.0,0.0,0.0,0.0,0.0,0.0,6.8495,7.0874,7.4609,8.0351,8.3828,8.664,8.8828,0.0,0.0,0.0,0.0,0.0,0.0,0.0,8.4804,8.4258,8.3828,8.3906,8.5234,8.8203,8.9993,8.8826,0.0,0.0,7.9863,7.8557,7.8838,7.8742,8.0563,8.2063,8.1936,8.4178,8.5835,0.0,0.0,0.0,0.0,0.0,0.0,0.0,0.0,7.0909,6.9912,0.0,7.0039,0.0,0.0,0.0,0.0,0.0,6.8127,0.0,0.0,7.8219,8.0675,7.9994,7.924,7.8817,7.8714,7.7949,7.5363,7.1206,6.7167,0.0,0.0,0.0,0.0,0.0,0.0,6.9758,7.2686,8.1541,8.7001,8.8824,9.0371,9.0744,8.9932,8.9133,8.6752,8.2633,7.9231,7.5513,7.1233,6.4869,0.0,0.0,0.0,0.0,0.0,0.0,0.0,0.0,0.0,0.0,0.0,0.0,0.0,0.0,0.0,0.0,0.0,0.0,0.0,0.0,6.3638,0.0,0.0,0.0,0.0,0.0,0.0,0.0,0.0,0.0,0.0,7.2031,7.5453,7.9922,8.4883,0.0,0.0,0.0,0.0,9.0429,8.5156,8.3359,8.3281,8.4375,8.6367,8.8945,9.2148,0.0,0.0,9.4531,9.2734,9.1312,8.9448,9.314,9.4845,9.0829,8.7267,8.5121,8.5102,8.6433,8.7311,8.7496,9.0098,9.2222,7.7017,0.0,0.0,0.0,0.0,7.3282,7.513,7.7794,7.7418,7.6863,7.6086,7.5,0.0,0.0,0.0,0.0,0.0,0.0,7.3708,7.7673,8.0044,8.2541,8.5205,8.5625,8.5459,8.4823,8.3387,8.1785,7.9865,7.6936,7.1243,6.3089,0.0,0.0,0.0,0.0,7.232,7.6766,8.2903,8.7543,9.0415,9.0337,9.0126,8.9893,8.9665,8.8438,8.6019,8.3283,7.9557,7.4773,7.0988,0.0,0.0,0.0,0.0,0.0,0.0,0.0,0.0,0.0,0.0,0.0,0.0,0.0,0.0,0.0,0.0,0.0,0.0,0.0,6.2746,6.4142,6.4673,0.0,0.0,0.0,0.0,0.0,0.0,0.0,0.0,0.0,7.8518,7.7286,7.751,0.0,0.0,8.2734,8.1914,8.582,8.9492,9.1445,9.1601,0.0,9.5937,9.5039,9.4453,9.6015,9.8515,10.0273,10.0117,10.0586,10.0849,10.0208,10.0223,9.9915,9.8814,9.64,9.4675,9.5118,9.5184,9.5457,9.6512,9.7975,9.8977,8.4405,8.0052,7.7903,7.7284,7.7744,7.8286,8.0246,8.3022,8.2549,8.192,8.1283,8.0407,7.7566,7.3325,7.132,0.0,0.0,0.0,7.7744,8.2324,8.3193,8.5296,8.8293,8.8607,8.8583,8.8327,8.7059,8.5788,8.4557,8.2364,7.7282,6.951,0.0,0.0,6.6978,7.1208,7.5284,7.9018,8.3706,8.712,8.91,8.935,8.9588,8.9893,9.0239,8.978,8.8438,8.6936,8.409,7.9713,7.6152,7.1767,0.0,0.0,0.0,0.0,0.0,0.0,0.0,0.0,0.0,0.0,0.0,5.8703,5.7531,0.0,0.0,0.0,6.1597,6.3304,6.5111,6.5775,0.0,0.0,0.0,0.0,0.0,0.0,0.0,7.3221,7.6817,8.0284,8.3079,8.1403,8.1117,8.4508,8.5453,8.554,8.4703,0.0,9.1956,9.5156,9.5664,9.707,10.0937,10.0469,10.0273,10.25,10.3711,10.4648,10.5146,10.5504,10.5444,10.5012,10.4278,10.3599,10.3268,10.1661,10.0129,9.9659,9.992,10.0485,10.1067,10.2315,10.3329,9.1253,8.8444,8.2253,8.0868,8.2789,8.2864,8.4245,8.6361,8.6397,8.5557,8.4215,8.5591,8.3129,7.7786,7.5432,0.0,7.9136,8.0015,8.255,8.6399,8.7232,8.844,8.9938,8.9248,8.926,8.9861,8.9162,8.7944,8.6284,8.4751,8.2253,7.8906,7.6555,7.4436,7.2794,7.5672,7.8185,8.0019,8.3795,8.5931,8.6205,8.7981,8.9212,8.9893,9.0742,9.0821,9.0047,8.9833,8.8359,8.524,8.0393,7.6189,7.273,0.0,0.0,0.0,0.0,0.0,0.0,0.0,0.0,0.0,0.0,0.0,0.0,0.0,0.0,0.0,6.4939,0.0,6.887,6.8348,0.0,0.0,0.0,6.9666,7.3101,7.5547,7.7902,8.0235,0.0,0.0,8.6312,8.6967,8.8826,9.32,9.4783,9.4657,9.2467,9.4245,9.6345,9.6636,9.7031,9.8437,10.2031,10.3867,10.6133,10.9492,11.0039,10.914,10.8905,10.7528,10.6214,10.5122,10.5522,10.5529,10.4635,10.3516,10.25,10.0027,10.1359,10.2767,10.2226,10.3675,10.4873,9.3332,9.1481,8.9829,8.8406,8.7252,8.7823,8.8434,8.897,8.8989,8.8763,8.8357,8.75,8.5577,8.305,8.2433,8.2974,8.4324,8.5209,8.682,8.8934,8.9197,8.9891,9.0872,9.0699,9.0371,8.9899,8.9692,8.909,8.8098,8.7677,8.5756,8.2485,8.1789,7.9325,7.5328,7.6566,7.8764,8.1649,8.2694,8.4495,8.7053,8.9402,9.0398,8.9932,9.0744,9.1131,9.0862,8.9652,8.8628,8.7756,8.352,7.9592,7.6225,7.0102,0.0,0.0,0.0,0.0,0.0,0.0,0.0,0.0,0.0,6.099,5.8014,0.0,6.1197,0.0,6.7178,7.0314,7.1638,7.2002,0.0,0.0,7.466,7.619,8.0596,8.229,8.3282,8.3834,8.576,8.7866,8.9949,9.1944,9.4584,9.8159,9.5215,9.2263,9.124,9.437,9.7121,9.8203,10.0937,10.3906,10.6133,10.9101,11.1289,11.2422,11.1211,10.9922,10.9258,10.7483,10.5639,10.4186,10.3838,10.3556,10.2797,10.2396,10.2121,10.1425,10.1816,10.2351,10.2784,10.34,10.3938,9.4448,9.3561,9.3215,9.2676,9.202,9.0938,9.0475,9.047,9.0462,9.0265,8.9816,8.8543,8.747,8.6632,8.6594,8.6824,8.7327,8.813,8.9013,8.9893,9.0297,9.0723,9.1165,9.1203,9.0966,9.0493,9.0468,9.0052,8.9246,8.9246,8.8058,8.5907,8.5869,8.4057,8.0552,7.8724,7.8957,8.1171,8.2314,8.4349,8.7322,8.9515,8.9705,8.7778,8.8859,8.8769,8.7269,8.6011,8.5121,8.467,8.1727,7.8893,7.6209,7.1596,6.7588,0.0,0.0,0.0,0.0,0.0,0.0,0.0,0.0,0.0,0.0,0.0,6.4603,6.6668,7.0696,7.3592,7.4652,7.5758,7.7421,7.9864,8.0851,8.303,8.7216,8.8418,8.9132,8.9462,9.0744,9.2119,9.3429,9.5591,9.778,10.0099,9.7699,9.5665,9.5884,9.7858,9.9758,10.1324,10.4157,10.7183,10.9761,11.2187,11.3593,11.3047,11.1875,11.0742,11.0156,10.8164,10.6227,10.4915,10.3978,10.3114,10.2204,10.1968,10.1893,10.1467,10.1622,10.2077,10.2517,10.2946,10.3276,9.5602,9.541,9.4561,9.5018,9.6052,9.3129,9.1862,9.1864,9.1757,9.114,9.0169,8.9483,8.9098,8.9021,8.8906,8.8908,8.906,8.9744,9.0047,9.0124,9.0859,9.1203,9.1203,9.1203,9.1203,9.1203,9.1203,9.0823,9.0086,9.0047,8.9551,8.856,8.8526,8.7596,8.5666,8.1248,7.9261,7.9817,8.2518,8.4927,8.7015,8.8397,8.7664,8.4782,8.5976,8.533,8.2453,8.141,8.0599,7.9812,7.82,7.671,7.5346,7.2084,6.9552,0.0,6.5586,0.0,0.0,0.0,0.0,0.0,0.0,0.0,0.0,6.8131,6.9464,7.1697,7.4963,7.7372,7.8338,7.9929,8.2203,8.5346,8.7203,8.9513,9.2708,9.3856,9.4686,9.5546,9.5539,9.5831,9.6684,9.8102,9.9228,10.0448,10.0513,10.0606,10.1941,10.1829,10.2265,10.4635,10.6614,10.8852,11.1502,11.3281,11.3828,11.2968,11.2265,11.1623,11.1093,10.914,10.7271,10.607,10.458,10.329,10.2284,10.2048,10.1779,10.1044,10.1467,10.1893,10.2009,10.2484,10.2774,9.8718,9.8026,9.7134,9.6593,9.6247,9.5591,9.5324,9.5288,9.4581,9.3431,9.2006,9.1836,9.1402,9.0671,8.9977,9.0052,9.0748,9.09,9.0936,9.0977,9.1131,9.1203,9.1203,9.1203,9.1203,9.1203,9.1203,9.1131,9.0975,9.0975,8.9823,8.7711,8.7634,8.6442,8.4097,0.0,0.0,0.0,8.3642,8.5534,8.5356,8.498,8.4174,8.2862,8.3093,0.0,8.2278,8.0836,7.9976,7.976,7.8209,0.0,0.0,0.0,0.0,0.0,0.0,0.0,0.0,0.0,0.0,0.0,7.2181,7.0739,6.9477,7.2993,7.5597,7.6171,7.9792,8.2797,8.4312,8.6009,8.7812,8.9784,9.1498,9.358,9.6196,9.7274,9.8187,9.9007,9.8499,9.8408,9.9067,9.8523,9.9025,10.1802,10.1834,10.2155,10.3717,10.2274,10.1968,10.4385,10.7498,10.9676,11.0495,11.2043,11.3014,11.2633,11.255,11.1861,11.0614,10.9343,10.7507,10.5608,10.4058,10.3071,10.2204,10.193,10.2086,10.174,10.1852,10.1899,10.1918,10.2017,10.227,9.906,0.0,9.8519,9.8363,0.0,9.8784,9.8784,9.8634,9.6558,9.4926,9.3753,9.3719,9.3038,9.1864,9.1783,9.1785,9.1862,9.2249,9.2441,9.2443,9.2866,9.264,9.1877,9.3136,9.3269,9.2441,9.2425,9.2443,9.2364,9.1592,9.0554,8.9284,8.9284,8.863,8.7365,8.6494,8.5223,8.3593,8.5685,8.7338,8.8628,8.9021,8.76,8.4362,8.502,0.0,0.0,0.0,0.0,0.0,0.0,0.0,0.0,0.0,0.0,7.6474,7.4978,7.4401,7.5245,7.5703,7.6668,7.8314,8.0019,7.9208,7.5025,7.8193,8.0952,8.2236,8.5381,8.7855,8.9141,9.0808,9.2487,9.4111,9.5086,9.6561,9.888,9.977,10.0042,10.0091,10.0043,9.9945,9.9488,9.9182,10.0094,10.2752,10.2044,10.208,10.4276,10.3551,10.3457,10.6044,10.829,11.0231,11.11,11.1917,11.2579,11.2548,11.2496,11.212,11.1265,10.9925,10.8543,10.7223,10.5985,10.492,10.4566,10.4407,10.4409,10.4407,10.4446,10.403,10.336,10.2493,10.2009,9.9486,10.0681,9.9832,10.0171,10.1279,10.1279,10.1279,10.1128,0.0,0.0,0.0,9.5441,9.4511,9.3022,9.3484,9.3328,9.2789,9.3405,9.3753,9.3946,9.4525,9.4109,9.3076,9.5061,9.5328,9.3996,9.4102,9.4174,9.41,9.2749,9.1936,9.1667,9.1633,9.1595,9.1364,9.041,8.9595,8.8992,8.8253,8.9265,9.2167,9.3484,9.1558,8.6207,8.7365,8.5251,7.9438,7.8408,7.7634,7.6941,7.6225,7.6628,7.8289,7.8392,7.8829,7.9752,7.9829,8.0212,8.1091,8.1803,8.2704,8.3781,8.7381,8.731,8.1979,8.4071,8.6385,8.8359,9.0556,9.2167,9.2891,9.4303,9.5781,9.7162,9.7816,9.8997,10.0777,10.1706,10.1748,10.1003,10.1555,10.1402,10.0103,10.0507,10.1694,10.3624,10.3083,10.2678,10.5342,10.5657,10.5798,10.7742,10.9398,11.0803,11.1886,11.2374,11.2449,11.2355,11.2344,11.229,11.1936,11.079,10.9794,10.9292,10.8203,10.73,10.7189,10.6883,10.7077,10.7193,10.7079,10.6506,10.4779,10.3303,10.2363,10.3102,10.3294,10.2443,10.1786,10.1279,10.1279,10.1279,10.1284,10.0781,9.9315,9.7171,9.7171,9.6209,9.4602,9.3984,9.3638,9.3559,9.364,9.41,9.4797,9.4179,9.4163,9.4642,9.5014,9.5074,9.4888,9.5573,9.5939,9.5899,9.567,9.4826,9.352,9.3366,9.3031,9.2232,9.069,9.1579,9.4864,9.14,9.0148,9.1355,9.0859,8.9205,8.6282,8.5784,8.4338,8.1911,8.1035,8.0523,8.0385,8.0271,8.0977,8.2569,8.2733,8.3415,8.4863,8.5053,8.544,8.6252,8.6432,8.7525,8.9799,9.1871,9.1685,8.8897,9.1507,9.3249,9.2941,9.3717,9.4525,9.4715,9.5523,9.6252,9.6752,9.9058,10.0664,10.0562,10.2742,10.3998,10.3247,10.4064,10.4097,10.3025,10.3078,10.3866,10.5578,10.575,10.65,10.7957,10.828,10.7931,10.8516,11.0286,11.1708,11.2097,11.2133,11.2172,11.2133,11.2133,11.2172,11.2095,11.1304,11.0442,10.9699,10.8921,10.8346,10.8265,10.7504,10.7541,10.7964,10.7626,10.6543,10.4811,10.4019,10.3425,10.3907,10.383,10.3443,10.3058,10.2674,10.221,10.1984,10.1953,10.1479,10.0421,9.8971,9.8906,9.7962,9.6446,9.6446,9.6213,9.5749,9.5326,9.5826,9.6949,9.6177,9.598,9.6476,9.7752,9.7931,9.7161,9.7474,9.7673,9.7598,9.6747,9.5901,9.5136,9.5131,9.4935,9.449,9.3284,9.4093,9.6766,9.3648,9.3032,9.5247,9.5403,9.421,9.1706,9.1667,9.0503,8.7904,8.6582,8.5891,8.5878,8.4553,8.4806,8.6853,8.7011,8.778,8.944,8.9979,9.0404,9.0791,9.1273,9.222,9.3873,9.5515,9.5801,9.4146,9.4157,9.4137,9.3781,9.4905,9.5713,9.5752,9.6469,9.7462,9.8894,10.0089,10.1044,10.2047,10.2904,10.3557,10.3306,10.3496,10.3588,10.3246,10.3599,10.4776,10.6718,10.794,10.8942,10.9405,10.9609,10.9669,10.9809,11.1029,11.1936,11.2093,11.2093,11.2093,11.2093,11.2093,11.2093,11.2093,11.1699,11.1527,11.1538,11.0883,11.0638,11.0825,10.9937,10.9279,10.8738,10.8265,10.6966,10.5062,10.3746,10.2791,10.4369,10.4176,10.4179,10.4061,10.3833,10.3176,10.2876,10.2814,10.2186,10.1529,10.0947,10.0375,9.9341,9.8211,9.8601,9.8406,9.7788,9.7134,9.7673,9.8908,9.8214,9.7988,9.8461,10.0255,10.0418,9.9461,9.9349,9.9368,9.9211,9.8055,9.7091,9.6629,9.6399,9.6284,9.6281,9.5458,9.6024,9.7781,9.5759,9.6038,9.8983,9.9906,9.925,9.7134,9.7403,9.6395,9.3527,9.2083,9.1321,9.1251,8.9278,8.9024,9.087,9.0879,9.1444,9.2941,9.3638,9.4097,9.4335,9.5259,9.6121,9.6821,9.8223,9.8728,9.7791,9.6014,9.4743,9.4776,9.6057,9.6749,9.6439,9.7007,9.8312,10.0178,10.0469,10.1056,10.2622,10.2727,10.2494,10.239,10.2616,10.3024,10.3308,10.4251,10.5954,10.8044,10.9567,11.0082,10.9658,11.0167,11.0687,11.0952,11.154,11.2054,11.2093,11.2093,11.2093,11.2093,11.1897,11.1897,11.1936,11.2093,11.2239,11.2595,11.2608,11.2436,11.2952,11.1869,11.0704,11.0126,10.9153,10.7506,10.5266,10.3506,10.2235,10.5672,10.5064,10.4987,10.4564,10.3984,10.383,10.3794,10.3761,10.3682,10.3637,10.3212,10.1147,10.007,9.9793,9.9178,9.8906,9.8752,9.8598,9.9101,9.9873,9.9101,9.9483,10.0753,10.0527,10.0519,10.1007,10.1051,10.1053,10.0976,10.0781,9.9632,9.7555,9.667,9.6403,9.6256,9.5538,9.6642,9.9719,9.8079,9.8091,9.9868,10.0789,10.0325,9.8639,9.8637,9.7831,9.6148,9.5828,9.5711,9.5633,9.4626,9.4212,9.4425,9.3826,9.3773,9.4751,9.4951,9.5215,9.6105,9.7538,9.8531,9.8613,9.9454,9.9678,9.886,9.8471,9.7969,9.7363,9.7904,9.775,9.6596,9.7033,9.7696,9.8391,10.0004,10.1021,10.0865,10.1763,10.2297,10.1485,10.2611,10.4028,10.4672,10.6521,10.851,10.9426,10.9999,11.0108,10.961,11.0217,11.0749,11.0924,11.1504,11.1979,11.2056,11.2093,11.2093,11.2054,11.1463,11.1426,11.1826,11.1981,11.2168,11.2548,11.2544,11.2784,11.2832,11.2024,11.0975,11.0436,10.9247,10.7563,10.5873,10.422,10.296,10.621,10.5864,10.5864,10.5672,10.5364,10.4828,10.46,10.4566,10.4081,10.3886,10.3787,10.278,10.2055,10.1599,10.1714,10.1558,10.1058,10.0517,10.1058,10.214,10.094,10.1188,10.267,10.2535,10.2525,10.2828,10.2828,10.2556,10.2053,10.1553,10.0743,9.9786,9.8945,9.8553,9.8495,9.8214,9.8969,10.0725,10.0646,10.1127,10.2133,10.2135,10.1748,10.1135,10.1056,10.0757,9.9959,9.8601,9.823,9.8994,9.7049,9.6465,9.7943,9.7688,9.7863,9.8707,9.9714,10.0382,10.0794,10.1464,10.1811,10.1804,10.1161,10.0856,10.1036,10.0604,9.9555,9.7904,9.7829,9.7521,9.6555,9.6999,9.7871,9.8963,10.043,10.1136,10.09,10.0955,10.1096,10.1267,10.1484,10.2649,10.4784,10.6895,10.8426,10.9354,10.9883,10.9946,10.9463,11.0439,11.1108,11.0908,11.1132,11.1553,11.1901,11.2093,11.2056,11.1936,11.1383,11.1115,11.1671,11.105,11.0952,11.2411,11.1826,11.1744,11.2445,11.0747,10.9355,10.9125,10.7673,10.5608,10.4449,10.4096,10.3522,10.6397,10.6397,10.6397,10.6397,10.6323,10.5713,10.5446,10.5405,10.4828,10.4597,10.4592,10.459,10.4095,10.3402,10.3753,10.352,10.2904,10.2284,10.2671,10.3717,10.2594,10.2773,10.4113,10.3966,10.402,10.4166,10.3979,10.3561,10.2943,10.2361,10.1899,10.1633,10.1291,10.1032,10.0846,10.0998,10.1433,10.2009,10.2662,10.3259,10.371,10.3482,10.3174,10.2979,10.2943,10.2953,10.2893,10.1183,10.0719,10.1883,9.944,9.8863,10.0613,10.057,10.0788,10.1664,10.3053,10.3879,10.388,10.3903,10.3894,10.3778,10.2469,10.1923,10.2265,10.1597,10.0087,9.8211,9.7634,9.7209,9.6543,9.7033,9.8138,9.9574,10.0293,10.0606,10.0529,10.0048,9.9983,10.0483,10.0611,10.1675,10.4777,10.681,10.7992,10.851,10.9101,10.9335,10.8913,10.986,11.0925,11.0788,11.0627,11.0784,11.1517,11.136,11.1437,11.1227,11.0556,11.0266,11.1118,10.9972,10.9555,11.0792,11.0017,10.9896,11.0784,10.9471,10.7923,10.6844,10.5696,10.4741,10.4458,10.4467,10.4607,10.6397,10.6397,10.6397,10.6397,10.64,10.6359,10.6323,10.6246,10.6287,10.6246,10.6169,10.6203,10.5785,10.491,10.4333,10.3907,10.3833,10.3789,10.3869,10.4061,10.3869,10.423,10.494,10.4304,10.4318,10.499,10.4433,10.3984,10.3869,10.3753,10.3366,10.2597,10.3099,10.3156,10.2575,10.3035,10.3652,10.3592,10.3775,10.389,10.4054,10.4638,10.4602,10.3984,10.3833,10.3835,10.3804,10.3684,10.3655,10.3736,10.2676,10.2298,10.2449,10.1732,10.174,10.2625,10.3464,10.3962,10.4018,10.3941,10.3916,10.3793,10.2807,10.2483,10.2458,10.1082,9.9685,9.875,9.798,9.7276,9.6522,9.7016,9.7867,9.8784,9.8995,9.9106,9.9026,9.931,9.8897,9.9351,10.057,10.2526,10.5744,10.711,10.7449,10.761,10.7798,10.7554,10.7179,10.8209,10.9628,11.0127,11.0021,10.9855,11.0552,11.0511,10.9957,10.9789,10.9628,10.8887,10.8988,10.9084,10.9284,10.9404,10.9245,10.9204,10.9355,10.8772,10.7612,10.6643,10.6055,10.5322,10.4701,10.5301,10.5407,10.6898,10.64,10.6397,10.6397,10.6436,10.698,10.6939,10.6477,10.6992,10.6913,10.6438,10.6397,10.6246,10.5905,10.5633,10.5172,10.4756,10.5251,10.5518,10.5515,10.5479,10.5638,10.5874,10.56,10.5628,10.5849,10.5628,10.5215,10.4641,10.4176,10.3756,10.3405,10.3174,10.2883,10.2718,10.2896,10.3324,10.39,10.4385,10.4903,10.5436,10.5787,10.5787,10.5479,10.4943,10.4672,10.4654,10.4166,10.4138,10.4636,10.3856,10.3651,10.4095,10.3913,10.4115,10.4936,10.5318,10.551,10.5392,10.4508,10.4136,10.4413,10.1833,10.1011,10.1851,10.0608,9.8892,9.8199,9.8288,9.7781,9.6772,9.7005,9.7851,9.8654,9.93,9.9629,9.9738,10.0072,10.0386,10.0656,10.1892,10.3546,10.4469,10.5533,10.6018,10.6097,10.6508,10.6303,10.58,10.7319,10.918,10.8702,10.8979,10.9393,10.9082,10.9507,10.9462,10.9299,10.9063,10.8962,10.898,10.8162,10.8084,10.8873,10.8791,10.8392,10.8428,10.8156,10.7109,10.6875,10.6248,10.5698,10.4947,10.5601,10.5637,10.6939,10.6436,10.6397,10.6397,10.6477,10.7054,10.6939,10.6477,10.7033,10.6954,10.6477,10.6397,10.6397,10.6397,10.6397,10.6287,10.5946,10.6285,10.6554,10.6785,10.6554,10.6556,10.6756,10.6556,10.6397,10.6397,10.6397,10.6172,10.5949,10.5407,10.5295,10.5482,10.4674,10.4246,10.4205,10.3992,10.4125,10.478,10.551,10.6144,10.6436,10.6939,10.7054,10.6823,10.6485,10.6049,10.5564,10.5241,10.5361,10.5813,10.5643,10.5759,10.6267,10.6321,10.6444,10.6785,10.6826,10.6551,10.5921,10.4693,10.4006,10.415,10.1592,10.0467,10.1833,10.0103,9.8661,9.8134,9.779,9.748,9.7093,9.7202,9.7856,9.8755,9.9795,10.0437,10.0512,10.0979,10.1183,10.139,10.2402,10.3289,10.3553,10.4254,10.4659,10.4734,10.5708,10.5892,10.5599,10.7514,10.971,10.9102,10.9334,10.9699,10.9471,10.943,10.862,10.8263,10.8339,10.8475,10.8406,10.7508,10.7354,10.8103,10.8178,10.7702,10.7386,10.727,10.7113,10.6958,10.6724,10.6254,10.5943,10.5871,10.5908,10.6438,10.6397,10.6397,10.6397,10.6438,10.659,10.6477,10.6515,10.6551,10.6631,10.6551,10.6362,10.6287,10.6397,10.6397,10.6785,10.7287,10.69,10.698,10.748,10.6823,10.6874,10.739,10.6715,10.6474,10.651,10.6436,10.69,10.7521,10.748,10.7787,10.8406,10.7636,10.7067,10.7516,10.6451,10.6208,10.6426,10.7067,10.7187,10.6741,10.7941,10.8367,10.7864,10.8252,10.79,10.6551,10.7172,10.749,10.7662,10.8221,10.8796,10.8557,10.8557,10.8447,10.7787,10.7713,10.689,10.5523,10.4618,10.3879,10.3413,10.1929,10.1284,10.1317,9.9989,9.879,9.8341,9.7519,9.6747,9.737,9.7651,9.8076,9.8834,10.0262,10.1104,10.1202,10.1243,10.1317,10.1474,10.221,10.2556,10.2818,10.361,10.4241,10.4562,10.5538,10.6404,10.6295,10.8217,11.0782,11.1624,11.0576,10.9471,10.9548,10.943,10.8117,10.7113,10.7266,10.7429,10.7545,10.7038,10.7038,10.7628,10.763,10.7193,10.7193,10.7075,10.7077,10.6958,10.6806,10.6612,10.6303,10.6109,10.6382,10.6941,10.64,10.6397,10.6397,10.6477,10.7015,10.7287,10.7285,10.731,10.7272,10.7095,10.6038,10.5841,10.6326,10.6397,10.69,10.7675,10.7944,10.7982,10.7713,10.7439,10.7136,10.6869,10.6556,10.67,10.7231,10.728,10.7713,10.8406,10.8518,10.8675,10.8713,10.8136,10.7723,10.7744,10.6874,10.6662,10.7267,10.7564,10.7802,10.8095,10.8636,10.8752,10.8598,10.879,10.8595,10.8172,10.8406,10.8526,10.8531,10.877,10.8903,10.8905,10.8882,10.879,10.86,10.8521,10.8383,10.7706,10.6397,10.569,10.5466,10.3656,10.2354,10.2021,10.0653,9.9218,9.8312,9.7915,9.7983,9.7754,9.8658,9.9322,9.9663,10.0644,10.1331,10.1369,10.1322,10.1582,10.2046,10.1933,10.1976,10.2679,10.3681,10.4466,10.4661,10.5713,10.6381,10.6275,10.7468,10.835,10.9351,10.8771,10.9357,10.9742,10.9471,10.8196,10.7347,10.7231,10.7038,10.6999,10.7195,10.7156,10.7077,10.7077,10.6999,10.6999,10.6999,10.6999,10.6802,10.6566,10.6374,10.6185,10.6187,10.6346,10.69,10.6397,10.6397,10.659,10.6903,10.7521,10.7905,10.8134,10.8121,10.8005,10.7521,10.6882,10.6613,10.6903,10.7172,10.7826,10.8634,10.9175,10.9098,10.8598,10.8252,10.7985,10.7718,10.7444,10.7587,10.8044,10.817,10.8562,10.9367,10.9408,10.9519,10.9675,10.9021,10.868,10.8544,10.7811,10.7641,10.8108,10.8484,10.8726,10.9016,10.956,10.9713,10.9483,10.9672,10.9865,10.9865,10.9862,10.9716,10.9532,10.9678,10.9846,10.9858,10.9885,10.9713,10.9447,10.9331,10.9108,10.8473,10.7036,10.6053,10.5533,10.3803,10.2275,10.1744,10.0712,9.9909,9.8884,9.8918,9.9062,9.8795,9.9353,10.0291,10.102,10.1465,10.1767,10.1796,10.1757,10.1748,10.1976,10.1664,10.1669,10.226,10.317,10.4144,10.4344,10.5589,10.6521,10.6364,10.7448,10.841,10.9181,10.9639,11.0128,11.0322,10.9509,10.8274,10.7773,10.7504,10.7193,10.6999,10.7472,10.7669,10.7472,10.7433,10.7077,10.6999,10.6999,10.6958,10.6643,10.6563,10.6568,10.6496,10.5957,10.5997,10.6438,10.6477,10.6474,10.7015,10.7711,10.7826,10.8213,10.879,10.8829,10.8441,10.8057,10.8172,10.8252,10.7982,10.8364,10.9098,11.0065,11.0216,11.0255,10.9985,10.956,10.9339,10.9427,10.8867,10.8736,10.8934,10.8977,10.9444,11.0214,11.0252,11.0678,11.1131,11.0406,11.0139,10.9798,10.9253,10.8773,10.9031,10.9671,10.9684,10.9288,11.0554,11.1055,11.0332,11.0901,11.1283,11.1244,11.1324,11.1068,11.0471,11.095,11.1242,11.1434,11.1478,11.098,11.0293,11.0255,10.9549,10.8223,10.7756,10.6355,10.4586,10.3984,10.2198,10.1459,10.1527,10.1062,9.9971,10.0022,10.0103,9.999,10.0315,10.1092,10.2316,10.2624,10.2698,10.2744,10.2744,10.2494,10.1904,10.1474,10.1512,10.1907,10.278,10.3415,10.3941,10.5687,10.6868,10.7541,10.8817,11.0616,11.096,11.0593,11.0706,11.082,10.9896,10.8777,10.8544,10.8278,10.8009,10.7616,10.8048,10.8135,10.794,10.7781,10.7349,10.7077,10.7154,10.727,10.7268,10.7189,10.7115,10.7042,10.6814,10.6543,10.6785,10.7326,10.7364,10.7829,10.8521,10.8598,10.8713,10.8906,10.8947,10.887,10.8554,10.8154,10.8392,10.8598,10.8829,10.937,11.0219,11.0868,11.1131,11.1134,11.0978,11.0096,10.9403,10.9058,10.9276,10.9797,10.9898,11.0293,11.1093,11.1134,11.1288,11.1439,11.0752,11.0283,11.0077,10.9447,10.9324,10.9792,11.0053,11.0489,11.0818,11.1208,11.1401,11.125,11.1401,11.1552,11.1593,11.2107,11.1997,11.1255,11.1368,11.1513,11.1629,11.1593,11.1519,11.1327,11.1173,11.1055,11.0585,11.0231,10.9468,10.8365,10.7357,10.6251,10.4016,10.3398,10.2249,10.0853,10.056,10.0789,10.0527,10.1275,10.2417,10.3298,10.3848,10.3967,10.4123,10.3906,10.3451,10.3253,10.3212,10.3212,10.3499,10.4744,10.5964,10.6299,10.7298,10.845,10.8713,10.8933,11.0167,11.0984,11.1014,11.1169,11.1014,11.0126,10.9509,10.9316,10.9206,10.9176,10.8931,10.9,10.8781,10.84,10.8319,10.8003,10.7655,10.7502,10.7657,10.7964,10.8247,10.8408,10.864,10.8606,10.8103,10.7249,10.7711,10.8057,10.8675,10.9408,10.9444,10.9637,10.995,11.0006,10.9773,10.9483,10.939,10.9351,10.9485,10.9826,11.0252,11.0791,11.1285,11.1475,11.1513,11.1475,11.0898,11.02,11.0017,11.0242,11.0682,11.0741,11.1016,11.1478,11.1824,11.1978,11.1978,11.1522,11.1283,11.1308,11.047,11.0203,11.0687,11.0758,11.1036,11.1472,11.186,11.2016,11.2093,11.2288,11.2555,11.2634,11.3033,11.3002,11.2656,11.2568,11.2555,11.2557,11.2557,11.2557,11.2557,11.2555,11.256,11.2541,11.2543,11.1791,11.0667,11.0169,10.8783,10.6541,10.5697,10.4937,10.2844,10.2738,10.244,10.2183,10.3206,10.4466,10.5477,10.6097,10.6094,10.5301,10.4661,10.4639,10.4798,10.4928,10.4789,10.4564,10.6424,10.7206,10.7436,10.8026,10.8707,10.9027,10.9153,10.9523,11.0616,11.1398,11.1592,11.1669,11.1014,11.0627,11.0436,11.0283,11.0294,11.0012,10.9918,10.9611,10.9232,10.9002,10.8697,10.8388,10.8274,10.8581,10.8935,10.9339,10.9498,10.9608,10.9715,10.9331,10.7944,10.8021,10.8713,10.9524,11.0255,11.0332,11.0598,11.1219,11.1292,11.0866,11.0414,11.1055,11.0824,11.0409,11.0901,11.1437,11.1437,11.1475,11.1593,11.175,11.187,11.1835,11.1799,11.1505,11.15,11.1659,11.1706,11.1862,11.217,11.2596,11.2788,11.2827,11.2788,11.2827,11.2596,11.206,11.1791,11.1821,11.1895,11.1934,11.2129,11.2555,11.2824,11.2901,11.3135,11.3558,11.3673,11.383,11.3761,11.4115,11.3964,11.3555,11.3588,11.3629,11.3676,11.3596,11.3478,11.3566,11.3873,11.3675,11.2958,11.1308,11.1904,11.1088,10.8111,10.7829,10.7402,10.5259,10.5261,10.4761,10.4625,10.5612,10.6477,10.7336,10.8878,10.8165,10.6523,10.5623,10.5881,10.6481,10.6677,10.6246,10.6236,10.6812,10.7885,10.8344,10.9114,10.9986,11.0156,11.016,11.0512,11.1076,11.1624,11.2017,11.2056,11.194,11.1824,11.1669,11.1515,11.1364,11.093,11.0724,11.0481,11.0213,10.9843,10.9505,10.9198,10.9275,10.9585,10.9819,11.0178,11.0057,10.9933,11.0116,10.9959,10.9678,10.9678,10.9832,11.0406,11.1131,11.1208,11.0944,11.0604,11.1222,11.1035,11.0565,11.1134,11.136,11.1211,11.1398,11.1513,11.1513,11.1552,11.1785,11.2522,11.3214,11.3417,11.3288,11.2827,11.2492,11.2607,11.3165,11.3404,11.3481,11.3522,11.3714,11.3714,11.3714,11.3714,11.3679,11.3434,11.3478,11.345,11.3404,11.3324,11.3327,11.3522,11.3753,11.375,11.3558,11.3519,11.3747,11.3346,11.3654,11.4316,11.3772,11.2876,11.2525,11.2349,11.2632,11.3088,11.319,11.3385,11.3868,11.4011,11.3547,11.253,11.2522,11.1758,10.9788,10.9069,10.8495,10.7203,10.6585,10.6387,10.674,10.6518,10.7418,10.8464,10.8787,10.8834,10.8934,10.9002,10.8678,10.8452,10.8369,10.829,10.8144,10.9366,10.991,10.9632,11.0289,11.1429,11.1512,11.134,11.1803,11.2332,11.229,11.2645,11.2368,11.2252,11.2093,11.2093,11.2093,11.229,11.1856,11.1615,11.1416,11.1072,11.0616,11.0352,11.0124,11.024,11.0511,11.0743,11.0936,11.1014,11.1007,11.0913,11.0754,11.0216,11.0257,11.0637,11.1057,11.1475,11.1513,11.1247,11.0942,11.1285,11.1247,11.098,11.1321,11.1513,11.1513,11.1513,11.1513,11.1629,11.1939,11.2516,11.3217,11.3818,11.3939,11.4088,11.3937,11.3791,11.3516,11.3736,11.3981,11.406,11.4407,11.4599,11.4602,11.4602,11.4602,11.4486,11.4242,11.3928,11.3912,11.4003,11.3994,11.4011,11.4445,11.4874,11.5448,11.5715,11.6099,11.5253,11.4822,11.4571,11.4332,11.35,11.2786,11.2703,11.2667,11.2901,11.3206,11.3775,11.4071,11.4541,11.4882,11.4865,11.3991,11.4201,11.3201,11.1959,11.0918,11.0105,10.9031,10.8236,10.7926,10.8706,10.8098,10.8595,11.0091,11.0272,11.046,11.1023,11.0729,11.0284,11.0089,11.0115,10.9865,11.0201,11.0972,11.0879,11.0131,11.1795,11.2891,11.2958,11.2924,11.3543,11.3884,11.35,11.3277,11.28,11.2486,11.2133,11.2093,11.2093,11.2488,11.2645,11.2482,11.2393,11.1895,11.1396,11.1358,11.1205,11.136,11.136,11.1476,11.1669,11.1979,11.1974,11.1581,11.1463,11.0524,11.0447,11.1208,11.1513,11.1513,11.1513,11.1475,11.1475,11.1632,11.1634,11.1552,11.1593,11.1791,11.1708,11.1744,11.1747,11.2132,11.2827,11.3676,11.414,11.4528,11.4646,11.4756,11.5047,11.5069,11.4431,11.4544,11.4561,11.4714,11.5063,11.5451,11.5489,11.5489,11.5489,11.5297,11.4833,11.4605,11.4643,11.4654,11.4948,11.5118,11.5632,11.6102,11.7102,11.8487,11.8606,11.7226,11.6578,11.6064,11.4632,11.3753,11.375,11.4063,11.3893,11.4173,11.4256,11.5022,11.5602,11.6105,11.6374,11.633,11.5736,11.6017,11.5464,11.3846,11.308,11.2261,11.1082,11.0096,10.9567,11.0201,10.9488,11.0351,11.1984,11.2756,11.2854,11.2964,11.197,11.1846,11.1157,11.1047,11.0747,11.0829,11.1274,11.0972,11.1154,11.29,11.4222,11.4327,11.436,11.4892,11.4974,11.4519,11.3253,11.2643,11.2948,11.2557,11.2565,11.2486,11.2959,11.3427,11.3442,11.3238,11.2636,11.2254,11.2095,11.1938,11.1785,11.1863,11.2095,11.2093,11.2093,11.2093,11.2093,11.2093,11.1901,11.1285,11.1439,11.1513,11.1513,11.1513,11.1513,11.1632,11.2186,11.2107,11.1632,11.2186,11.2491,11.2519,11.2516,11.2904,11.3519,11.4214,11.4794,11.5179,11.5564,11.5833,11.5871,11.5984,11.6094,11.6132,11.5987,11.5874,11.6028,11.6223,11.6374,11.6339,11.6374,11.6374,11.6374,11.6143,11.611,11.6116,11.6135,11.6624,11.7544,11.7783,11.7753,11.8561,11.9834,11.9683,11.8782,11.7934,11.7441,11.713,11.6306,11.5998,11.561,11.4291,11.433,11.5371,11.6105,11.6729,11.7524,11.7716,11.7598,11.7281,11.6965,11.6649,11.5819,11.5154,11.4129,11.3112,11.1876,11.1175,11.1214,11.0747,11.1421,11.2862,11.3535,11.3739,11.5124,11.5168,11.4003,11.261,11.2041,11.1865,11.2291,11.2535,11.2541,11.2923,11.4145,11.5594,11.6228,11.5946,11.578,11.5696,11.5367,11.3767,11.2286,11.2944,11.3176,11.3346,11.3427,11.3896,11.4237,11.4321,11.408,11.3587,11.3029,11.2662,11.2509,11.2236,11.2357,11.2546,11.2357,11.2133,11.2488,11.2765,11.2525,11.1862,11.1513,11.1513,11.1513,11.1513,11.1513,11.1513,11.1632,11.2307,11.2499,11.2447,11.295,11.3376,11.3368,11.3365,11.3868,11.464,11.5066,11.5528,11.5913,11.6339,11.649,11.6528,11.6528,11.649,11.649,11.649,11.6797,11.7102,11.7176,11.7333,11.7798,11.7833,11.7836,11.7845,11.7864,11.7831,11.7793,11.7886,11.8399,11.9731,11.9935,12.0213,11.9638,12.0594,12.0707,11.9278,11.8792,11.8215,11.7719,11.6925,11.6845,11.6708,11.6311,11.5481,11.6064,11.6756,11.7226,11.7985,11.8015,11.848,11.8428,11.7994,11.7878,11.7482,11.6657,11.5448,11.4231,11.3623,11.3,11.3458,11.262,11.3523,11.5147,11.5187,11.5559,11.665,11.7125,11.5972,11.4398,11.4459,11.4517,11.4415,11.4547,11.4417,11.4893,11.563,11.6581,11.7672,11.7517,11.6938,11.6171,11.5791,11.4571,11.3212,11.3494,11.3898,11.4043,11.4357,11.4787,11.5037,11.5097,11.5048,11.4737,11.4125,11.338,11.2811,11.2529,11.2781,11.3035,11.2939,11.2954,11.3275,11.3434,11.3227,11.1513,11.1513,11.167,11.1632,11.1513,11.1667,11.1783,11.1906,11.2661,11.3008,11.3071,11.3687,11.4003,11.4073,11.4296,11.4748,11.5503,11.5566,11.6066,11.6605,11.6569,11.6531,11.6729,11.6605,11.6602,11.6937,11.6872,11.7138,11.7555,11.7671,11.8251,11.8677,11.9023,11.91,11.8996,11.8826,11.9085,11.9113,11.9117,11.9541,12.0503,12.1973,12.2174,12.0251,12.2018,12.2077,12.04,12.0139,11.9595,11.8918,11.8286,11.7963,11.8445,11.8568,11.7866,11.683,11.7638,11.7795,11.8182,11.8523,11.9342,11.9294,11.9148,11.9071,11.8719,11.7528,11.6289,11.5058,11.4563,11.4703,11.5091,11.4857,11.5712,11.7054,11.7426,11.7405,11.8253,11.8658,11.8468,11.7593,11.7385,11.6709,11.6105,11.5712,11.5459,11.572,11.6419,11.6921,11.7903,11.846,11.7966,11.6872,11.6072,11.5193,11.4457,11.4358,11.4616,11.4728,11.5098,11.5548,11.5717,11.5874,11.5695,11.5383,11.4768,11.3991,11.3384,11.3037,11.3377,11.3598,11.3568,11.3694,11.3889,11.4076,11.4022,11.1513,11.1552,11.225,11.217,11.1708,11.2285,11.2555,11.2678,11.3447,11.3829,11.3787,11.4107,11.4281,11.4508,11.5115,11.5731,11.6184,11.6413,11.6833,11.7446,11.6984,11.7037,11.7441,11.6806,11.7209,11.7547,11.7632,11.7674,11.8058,11.8056,11.8402,11.9138,11.9408,11.9177,11.9452,11.9499,11.9108,11.918,11.9222,11.9642,12.0591,12.2633,12.2944,12.2752,12.2979,12.3163,12.1947,12.1766,12.1503,12.097,12.0893,12.0973,12.1174,12.1174,12.0642,12.0065,11.9988,12.0298,12.0411,12.0284,12.016,12.0059,11.9698,11.9249,11.8953,11.8503,11.7618,11.7479,11.6715,11.6391,11.6619,11.6372,11.7259,11.8204,11.8947,11.9507,12.0302,11.9536,11.9382,11.9346,11.8682,11.7756,11.6951,11.6662,11.6459,11.68,11.7163,11.7627,11.7873,11.8238,11.8202,11.6936,11.6307,11.5463,11.5397,11.5335,11.5374,11.5447,11.5743,11.6133,11.6203,11.6229,11.6101,11.5764,11.5197,11.483,11.444,11.4235,11.4209,11.426,11.4406,11.4417,11.4381,11.4564,11.4901,11.2632,11.2206,11.2557,11.2788,11.2942,11.3288,11.3442,11.3527,11.3967,11.4154,11.4199,11.4331,11.4593,11.5064,11.6216,11.693,11.7189,11.7195,11.7712,11.8204,11.7781,11.7724,11.8296,11.8196,11.8316,11.8396,11.8594,11.8905,11.8985,11.9254,11.9677,12.0334,12.0488,12.0603,12.0375,12.0488,12.0529,12.0683,12.0946,12.1139,12.1488,12.2447,12.3062,12.2296,12.2639,12.2633,12.2479,12.2133,12.2029,12.1609,12.1609,12.1571,12.1571,12.1606,12.1491,12.1867,12.1754,12.1491,12.0881,12.1023,12.1056,12.0973,12.0657,12.0385,11.9867,11.9444,11.892,11.852,11.8215,11.8158,11.8488,11.8634,11.9342,12.005,12.0222,12.0261,12.0707,12.0464,12.0085,12.0052,11.9895,11.8806,11.7913,11.7555,11.7423,11.766,11.7671,11.7728,11.7601,11.7406,11.7151,11.6539,11.6096,11.573,11.5984,11.6118,11.6131,11.6182,11.6107,11.6412,11.6465,11.6473,11.6487,11.6407,11.6058,11.5736,11.5528,11.5005,11.4561,11.4892,11.5346,11.5317,11.533,11.5847,11.6109,11.3035,11.2805,11.3393,11.3673,11.3736,11.3938,11.3905,11.3765,11.3937,11.4248,11.4513,11.4586,11.4827,11.5376,11.6362,11.7028,11.7798,11.7866,11.8507,11.8811,11.8734,11.8671,11.904,11.9215,11.9127,11.9399,11.9363,11.9792,12.0334,12.0644,12.0872,12.1609,12.1337,12.1452,12.1651,12.2044,12.2396,12.3145,12.332,12.3163,12.2917,12.3024,12.3062,12.2799,12.2571,12.266,12.2831,12.2728,12.2683,12.2716,12.2497,12.2565,12.279,12.2678,12.2873,12.3213,12.3329,12.268,12.2154,12.2041,12.1964,12.1727,12.1571,12.1133,12.0775,12.0577,12.0464,11.9834,11.9757,12.0035,12.0431,12.0511,12.0733,12.1068,12.137,12.0973,12.0586,12.0538,12.0365,12.0093,11.9895,11.9609,11.8833,11.8446,11.8358,11.8533,11.8406,11.8016,11.7637,11.7187,11.6885,11.6635,11.7029,11.6641,11.6302,11.6563,11.6691,11.6809,11.6732,11.6872,11.7012,11.7119,11.7152,11.7034,11.6946,11.7435,11.7645,11.6237,11.4953,11.5488,11.5984,11.6237,11.6456,11.688,11.6966,11.1775,11.3183,11.5278,11.4857,11.2969,11.3893,11.3838,11.3336,11.3392,11.4143,11.495,11.4834,11.4725,11.4954,11.5516,11.6581,11.7946,11.7985,11.8804,11.941,11.9506,11.9465,11.9719,11.9704,11.9621,12.016,12.0248,12.068,12.1337,12.1645,12.1645,12.1609,12.2029,12.176,12.2154,12.3127,12.4113,12.4787,12.4909,12.4767,12.4412,12.4293,12.4101,12.4755,12.5033,12.5451,12.6155,12.5152,12.466,12.4595,12.4054,12.4015,12.424,12.3979,12.4178,12.4486,12.4329,12.3832,12.3607,12.3334,12.2955,12.2162,12.1648,12.1802,12.1751,12.1526,12.1414,12.1257,12.1065,12.1183,12.1417,12.1491,12.1458,12.1932,12.2047,12.1571,12.118,12.0887,12.0635,12.0212,12.0008,11.9916,11.9523,11.9061,11.8286,11.8349,11.8085,11.7695,11.7849,11.7547,11.7302,11.7311,11.8094,11.7817,11.6702,11.6696,11.6891,11.71,11.7194,11.7449,11.776,11.7829,11.7907,11.802,11.8124,11.8979,11.9295,11.7498,11.6311,11.6385,11.6581,11.674,11.685,11.7054,11.7066,11.2816,11.2614,11.5033,11.5186,11.382,11.4242,11.4254,11.3975,11.3996,11.4055,11.4342,11.4936,11.4782,11.4693,11.6254,11.6978,11.7494,11.7965,11.8844,11.937,11.9495,11.9721,12.0083,12.0627,12.0867,12.1018,12.1103,12.1183,12.1568,12.2488,12.3065,12.3139,12.3255,12.3565,12.4036,12.4027,12.4645,12.4957,12.4951,12.4653,12.4521,12.4367,12.4252,12.4524,12.5255,12.5175,12.5116,12.5344,12.5347,12.5353,12.5113,12.5323,12.55,12.513,12.5178,12.5447,12.5101,12.4947,12.4722,12.4456,12.3748,12.3355,12.2796,12.2506,12.2639,12.2219,12.2068,12.2029,12.1876,12.1722,12.2293,12.1991,12.1849,12.2562,12.2674,12.2233,12.1917,12.1651,12.137,12.1124,12.0869,12.0721,12.018,11.9603,11.8748,11.8011,11.7712,11.7528,11.7682,11.7828,11.758,11.7409,11.8077,11.7946,11.6833,11.6869,11.7097,11.7339,11.7581,11.8048,11.8439,11.8586,11.8714,11.8906,11.8959,11.9239,11.9017,11.81,11.7602,11.7528,11.7347,11.7186,11.7257,11.7366,11.7391,11.2762,11.2346,11.4054,11.4597,11.4137,11.4197,11.4071,11.3841,11.3798,11.3652,11.3328,11.4721,11.4999,11.4905,11.6201,11.7667,11.7653,11.8153,11.8933,11.9459,11.9867,12.0149,12.0742,12.1213,12.1375,12.1609,12.1645,12.1683,12.2565,12.3598,12.4675,12.5329,12.5329,12.5486,12.4983,12.5163,12.505,12.5483,12.532,12.525,12.5364,12.5098,12.5252,12.5521,12.6329,12.6577,12.6612,12.6968,12.7072,12.6806,12.6489,12.64,12.632,12.6166,12.5986,12.595,12.5912,12.5761,12.5536,12.4746,12.4151,12.3811,12.3216,12.3092,12.2947,12.2284,12.1923,12.2177,12.1911,12.1988,12.2749,12.2441,12.2586,12.3337,12.3447,12.308,12.2882,12.2651,12.2399,12.2112,12.1757,12.1222,12.0644,12.0029,11.9232,11.8422,11.7892,11.7705,11.7663,11.7765,11.7736,11.7645,11.7791,11.7352,11.6756,11.71,11.7446,11.7685,11.8037,11.8724,11.9097,11.9326,11.9705,12.0115,12.0009,11.9509,11.9399,11.9526,11.9064,11.852,11.8114,11.7592,11.8076,11.8187,11.8142,11.111,11.2256,11.2549,11.2949,11.3363,11.3469,11.3173,11.2937,11.2964,11.2972,11.3108,11.446,11.5009,11.5114,11.6217,11.7086,11.7835,11.8227,11.8951,11.9771,12.022,12.0808,12.1244,12.1577,12.176,12.1648,12.1837,12.2527,12.3716,12.4713,12.6214,12.7368,12.7214,12.6788,12.5643,12.6226,12.7399,12.8551,12.7748,12.7341,12.706,12.6524,12.6601,12.7021,12.7942,12.8192,12.8058,12.8849,12.8996,12.8629,12.8111,12.8102,12.838,12.7377,12.7108,12.7326,12.6835,12.6607,12.653,12.503,12.4518,12.4388,12.3965,12.3278,12.2287,12.1772,12.1828,12.2254,12.1876,12.2177,12.2592,12.2967,12.3468,12.4086,12.4237,12.4219,12.4023,12.4065,12.3861,12.3358,12.2385,12.1568,12.0991,12.0419,11.9673,11.895,11.8263,11.7917,11.7757,11.7705,11.7715,11.7541,11.7491,11.7272,11.6987,11.7446,11.7792,11.8031,11.8534,11.9342,11.9908,12.0192,12.0657,12.1213,12.1047,12.0494,12.0935,12.1455,12.0999,12.0431,11.8623,11.8095,11.8645,11.9071,11.9094,11.1678,11.1677,11.2257,11.2611,11.279,11.2803,11.3234,11.4062,11.4548,11.451,11.4412,11.5706,11.5731,11.565,11.6281,11.7056,11.7039,11.7706,11.8398,11.9206,12.0135,12.0608,12.1113,12.176,12.2047,12.1911,12.2103,12.2601,12.3252,12.5406,12.6678,12.7643,12.7903,12.7628,12.7089,12.7034,12.7129,12.7398,12.7158,12.7037,12.7066,12.6954,12.6992,12.7412,12.8717,12.916,12.8869,13.0054,13.0535,13.0201,12.964,12.9582,12.9441,12.8405,12.7925,12.7489,12.6761,12.6723,12.6646,12.603,12.5906,12.5515,12.4915,12.4246,12.4056,12.2944,12.2657,12.2485,12.2447,12.2905,12.3518,12.3669,12.4225,12.5382,12.5666,12.5545,12.5465,12.5704,12.5628,12.4787,12.3846,12.2263,12.1337,12.0831,12.0156,11.965,11.899,11.8246,11.7944,11.7716,11.7622,11.7295,11.7168,11.7135,11.7215,11.7753,11.8348,11.8752,11.9362,12.02,12.0686,12.0938,12.1245,12.1597,12.1577,12.1598,12.1932,12.2305,12.2908,12.2345,12.0596,11.9108,11.9177,11.9766,12.0243,11.186,11.1771,11.2254,11.2663,11.2886,11.2626,11.3195,11.4197,11.488,11.4911,11.4843,11.6077,11.6347,11.601,11.6642,11.7232,11.6705,11.7434,11.7895,11.869,11.9998,12.0479,12.0997,12.1754,12.1882,12.195,12.2485,12.3136,12.4059,12.6832,12.7717,12.7525,12.7598,12.7551,12.732,12.6909,12.6726,12.6883,12.6841,12.7188,12.7528,12.7797,12.8028,12.8836,12.972,13.0253,13.0022,13.0564,13.1641,13.1407,13.1032,13.0855,13.0364,12.9293,12.8582,12.7691,12.6954,12.6838,12.6684,12.6646,12.6489,12.6489,12.5886,12.5315,12.4968,12.3817,12.3459,12.3332,12.3287,12.3832,12.4376,12.4489,12.5107,12.6264,12.6409,12.6246,12.6131,12.6291,12.5495,12.4811,12.361,12.2299,12.1488,12.1171,12.0633,12.0192,11.9752,11.9056,11.8359,11.8164,11.8087,11.7913,11.7751,11.7907,11.8023,11.8177,11.8776,11.939,12.011,12.0863,12.1118,12.1331,12.1674,12.1979,12.2151,12.2334,12.2627,12.3074,12.3663,12.3586,12.2574,12.124,12.0136,12.0657,12.1636,11.1643,11.243,11.2482,11.2965,11.3485,11.2891,11.2657,11.2736,11.3614,11.4116,11.4269,11.5939,11.6535,11.6604,11.7194,11.7343,11.7341,11.8,11.8318,11.8803,11.981,12.017,12.0776,12.1516,12.2082,12.2254,12.3021,12.4636,12.5447,12.6527,12.7294,12.7714,12.7714,12.764,12.7303,12.7274,12.7226,12.7291,12.732,12.8054,12.8906,12.9294,12.9836,13.0724,13.1644,13.1855,13.2012,13.2737,13.3192,13.2958,13.2269,13.2401,13.1628,12.9807,12.9227,12.8611,12.7797,12.7575,12.728,12.7398,12.696,12.696,12.6214,12.5225,12.4565,12.4323,12.4133,12.4021,12.4021,12.4687,12.5238,12.5545,12.5856,12.6347,12.6566,12.6447,12.6291,12.572,12.4616,12.35,12.2062,12.1056,12.0911,12.0674,12.1609,12.1742,12.1343,12.058,11.9875,11.91,11.9056,11.9162,11.9044,11.9061,11.9138,11.9215,11.9584,12.035,12.0691,12.1289,12.1505,12.1802,12.21,12.2435,12.2802,12.3305,12.4323,12.4515,12.4432,12.4201,12.4201,12.3343,12.2251,12.274,12.3497,11.2241,11.2482,11.2482,11.2668,11.2923,11.3257,11.3412,11.361,11.4883,11.6065,11.7228,11.7069,11.7614,11.8738,11.7873,11.7492,11.7516,11.7694,11.8081,11.8752,11.9646,11.978,12.0661,12.2012,12.2729,12.3614,12.4711,12.5839,12.6157,12.6666,12.7528,12.856,12.7602,12.7546,12.8068,12.8465,12.8457,12.8571,12.8597,12.9497,13.0516,13.0987,13.1567,13.2183,13.2917,13.3051,13.3327,13.385,13.418,13.3955,13.3708,13.3625,13.2683,13.1974,13.1654,13.0951,13.0435,13.0116,12.9445,12.8823,12.8189,12.7674,12.7277,12.6368,12.5577,12.5032,12.4855,12.4787,12.4983,12.5649,12.6081,12.6433,12.6866,12.7253,12.7274,12.6835,12.6598,12.5826,12.4684,12.3429,12.195,12.1864,12.1526,12.1899,12.276,12.3177,12.3056,12.231,12.15,12.0722,12.0258,12.04,12.0503,12.0562,12.0488,12.0526,12.086,12.1229,12.1561,12.1905,12.2328,12.2583,12.268,12.305,12.3654,12.5041,12.6631,12.6435,12.574,12.6219,12.6219,12.5302,12.4675,12.4832,12.5186,11.2368,11.2472,11.2482,11.2663,11.3188,11.4265,11.4886,11.5422,11.6595,11.7931,11.8961,11.8633,11.8744,11.8908,11.8017,11.7576,11.7942,11.8397,11.8782,11.9194,11.9697,12.0335,12.1368,12.2344,12.2887,12.4108,12.5227,12.6001,12.6251,12.6632,12.7412,12.7832,12.6992,12.7869,12.8615,12.913,13.0086,13.0507,13.0949,13.1391,13.2038,13.2756,13.3026,13.3567,13.4186,13.4311,13.4433,13.5029,13.5164,13.5134,13.509,13.4779,13.4186,13.3939,13.274,13.1952,13.1467,13.0941,13.0335,12.993,12.9237,12.8702,12.8385,12.7697,12.7021,12.6471,12.5983,12.5643,12.6104,12.6566,12.6883,12.728,12.7914,12.8509,12.7905,12.7338,12.6711,12.6048,12.4986,12.3814,12.3311,12.3299,12.3388,12.3687,12.3822,12.3944,12.4273,12.4418,12.3517,12.2632,12.2097,12.1905,12.2027,12.21,12.2026,12.1988,12.2192,12.2313,12.2257,12.2645,12.3092,12.2991,12.2751,12.3565,12.4666,12.5977,12.7098,12.7329,12.7054,12.734,12.726,12.6527,12.5915,12.6014,12.6406,11.2113,11.2454,11.2447,11.3073,11.4096,11.5401,11.66,11.7698,11.8368,11.9188,11.9841,11.9676,11.9158,11.8855,11.7905,11.79,11.8232,11.8694,11.8909,11.9826,12.011,12.0607,12.1223,12.2314,12.3696,12.4181,12.5212,12.7035,12.5754,12.6107,12.68,12.6761,12.6761,12.7674,12.9211,12.9724,13.0949,13.2804,13.2983,13.3189,13.4083,13.468,13.5177,13.6257,13.6568,13.6568,13.6607,13.6722,13.6799,13.6481,13.6244,13.6007,13.5782,13.5366,13.3792,13.3019,13.276,13.2131,13.1525,13.0926,13.0142,12.9619,12.925,12.8736,12.8125,12.7788,12.73,12.653,12.6758,12.7025,12.7338,12.7735,12.8289,12.8659,12.8432,12.8208,12.7995,12.708,12.5816,12.4923,12.4844,12.487,12.5373,12.5705,12.5545,12.5181,12.5066,12.5637,12.5337,12.4359,12.4087,12.3635,12.3482,12.3604,12.3716,12.3639,12.3556,12.355,12.3314,12.35,12.4092,12.3562,12.2691,12.3813,12.5015,12.5947,12.6835,12.7101,12.7178,12.6983,12.6983,12.7191,12.7166,12.7271,12.8047,11.1942,11.2056,11.2221,11.3447,11.5247,11.5318,11.7237,12.0081,11.972,11.9964,12.0352,11.9067,11.867,11.9168,11.7943,11.7863,11.854,11.8663,11.8454,11.9253,11.9999,12.089,12.138,12.3641,12.4973,12.6581,12.7822,12.8334,12.7628,12.7249,12.7028,12.7406,12.7143,12.7754,13.0085,13.055,13.2083,13.4429,13.5054,13.5137,13.5747,13.6103,13.6565,13.6799,13.6799,13.6799,13.6799,13.6799,13.6799,13.6719,13.6638,13.6638,13.668,13.6337,13.603,13.5565,13.4628,13.384,13.2952,13.2006,13.1064,13.0487,13.0064,12.9574,12.9218,12.9019,12.8531,12.7682,12.7332,12.764,12.7874,12.8271,12.8656,12.8888,12.9087,12.9202,12.9316,12.8106,12.6817,12.6582,12.6477,12.6832,12.7406,12.7438,12.7278,12.6941,12.646,12.6486,12.6406,12.5875,12.6142,12.5763,12.508,12.5066,12.5143,12.5066,12.487,12.4639,12.4409,12.4684,12.5122,12.4853,12.4502,12.4529,12.5252,12.6527,12.7223,12.6877,12.6877,12.7146,12.7357,12.7795,12.8351,12.8538,12.9658,11.1789,11.19,11.202,11.3473,11.546,11.5714,11.7514,11.9802,11.9873,11.9767,11.9852,11.8956,11.8829,11.9227,11.7937,11.8165,11.8877,11.8776,11.963,12.0278,12.0718,12.1627,12.3119,12.4967,12.6336,12.794,12.8647,12.8963,12.8857,12.7682,12.6989,12.7371,12.7111,12.8106,13.0598,13.1645,13.2974,13.534,13.6286,13.6719,13.6799,13.6799,13.6799,13.6799,13.6799,13.6799,13.6799,13.6799,13.6799,13.6799,13.6757,13.6757,13.6799,13.6684,13.6722,13.6408,13.5814,13.5144,13.4179,13.3061,13.1805,13.1231,13.101,13.0542,13.0106,12.99,12.9644,12.8909,12.9025,12.9256,12.9082,12.9367,12.9691,12.9968,13.0308,13.0519,13.0531,13.0048,12.9446,12.9385,12.9336,12.9451,12.9676,12.924,12.8968,12.8134,12.772,12.696,12.6918,12.7018,12.7445,12.7566,12.6717,12.6143,12.5992,12.5992,12.5953,12.5726,12.5498,12.5987,12.6434,12.6472,12.6438,12.6657,12.7006,12.7794,12.8143,12.7951,12.822,12.8836,12.8748,12.8666,12.9216,12.9839,13.0676,11.1787,11.1932,11.2116,11.3419,11.5392,11.625,11.7502,11.894,11.9152,11.8817,11.8431,11.9115,11.9035,11.842,11.8012,11.8845,11.9556,12.0039,12.1047,12.1642,12.2533,12.315,12.4517,12.6378,12.7551,12.8196,12.8642,12.8801,12.8811,12.7678,12.7066,12.6992,12.7626,12.8535,13.0717,13.2112,13.3214,13.5061,13.6164,13.6719,13.6799,13.6799,13.6799,13.6799,13.6799,13.6799,13.6799,13.6799,13.6799,13.6799,13.6799,13.6799,13.6799,13.6799,13.6799,13.6562,13.5702,13.4968,13.4199,13.3208,13.234,13.1856,13.1756,13.1445,13.0929,13.0702,13.0445,13.0371,13.0448,13.0224,13.005,13.0175,13.0499,13.0788,13.1179,13.1487,13.1487,13.1484,13.149,13.1455,13.1452,13.149,13.1211,13.0814,13.0086,12.9291,12.8493,12.7771,12.7309,12.7509,12.7805,12.8045,12.7782,12.7326,12.6951,12.6726,12.6687,12.6767,12.6652,12.7283,12.7854,12.8269,12.8667,12.901,12.9478,12.967,12.9794,12.9756,13.0141,13.0448,13.0178,13.0016,13.0552,13.1134,13.1532,11.227,11.2362,11.3163,11.4214,11.5286,11.5781,11.6946,11.8226,11.7991,11.7677,11.77,11.7678,11.773,11.7672,11.8235,11.9025,11.9901,12.0861,12.1196,12.1456,12.3648,12.4579,12.5415,12.6668,12.8267,12.8853,12.8897,12.8671,12.8823,12.8137,12.8022,12.8486,12.8563,12.9393,13.0537,13.1887,13.3256,13.4891,13.6122,13.6799,13.6799,13.6799,13.6799,13.6799,13.6799,13.6799,13.6799,13.6799,13.6799,13.6799,13.6722,13.6642,13.668,13.6642,13.6684,13.6411,13.5552,13.4782,13.4003,13.2885,13.2058,13.1788,13.1682,13.1644,13.1365,13.1368,13.1182,13.1105,13.0951,13.0294,13.0118,13.0403,13.0736,13.0922,13.1192,13.1493,13.1605,13.1605,13.1605,13.1609,13.1605,13.1605,13.1525,13.0936,13.0119,12.9246,12.8291,12.7729,12.8302,12.8297,12.8283,12.8488,12.8695,12.8279,12.7826,12.7415,12.7303,12.7495,12.8069,12.9066,12.9849,13.0449,13.0853,13.1382,13.1218,13.1176,13.1295,13.1756,13.1564,13.1763,13.1492,13.1482,13.1944,13.2153,13.2359]},{"header":{"parameterUnit":"m.s-1","parameterCategory":1,"la1":31.0,"la2":29.5877,"lo1":-88.7671,"lo2":-86.6584,"dy":0.0162,"dx":0.0185,"nx":115,"ny":88,"refTime":"2026-03-09T00:00:00:Z","depth":0,"parameterNumber":3,"parameterNumberName":"V-component_of_WINDS"},"data":[0.0,0.0,0.0,0.0,0.0,0.0,0.0,0.0,0.0,0.0,0.0,0.0,0.0,0.0,0.0,0.0,0.0,0.0,0.0,0.0,0.0,0.0,0.0,0.0,0.0,0.0,0.0,0.0,0.0,0.0,0.0,0.0,0.0,0.0,0.0,0.0,0.0,0.0,0.0,0.0,0.0,0.0,0.0,0.0,0.0,0.0,0.0,0.0,0.0,0.0,0.0,0.0,0.0,0.0,0.0,0.0,0.0,0.0,0.0,0.0,0.0,0.0,0.0,0.0,0.0,0.0,0.0,0.0,0.0,0.0,0.0,0.0,0.0,0.0,0.0,0.0,0.0,0.0,0.0,0.0,0.0,0.0,0.0,0.0,0.0,0.0,0.0,0.0,0.0,0.0,0.0,0.0,0.0,0.0,0.0,0.0,0.0,0.0,0.0,0.0,0.0,0.0,0.0,0.0,0.0,0.0,0.0,0.0,0.0,0.0,0.0,0.0,0.0,0.0,0.0,0.0,0.0,0.0,0.0,0.0,0.0,0.0,0.0,0.0,0.0,0.0,0.0,0.0,0.0,0.0,0.0,0.0,0.0,0.0,0.0,0.0,0.0,0.0,0.0,0.0,0.0,0.0,0.0,0.0,0.0,0.0,0.0,0.0,0.0,0.0,0.0,0.0,0.0,0.0,0.0,0.0,0.0,0.0,0.0,0.0,0.0,0.0,0.0,0.0,0.0,0.0,0.0,0.0,0.0,0.0,0.0,0.0,0.0,0.0,0.0,0.0,0.0,0.0,0.0,0.0,0.0,0.0,0.0,0.0,0.0,0.0,0.0,0.0,0.0,0.0,0.0,0.0,0.0,0.0,0.0,0.0,0.0,0.0,0.0,0.0,0.0,0.0,0.0,0.0,0.0,0.0,0.0,0.0,0.0,0.0,0.0,0.0,0.0,0.0,0.0,0.0,0.0,0.0,0.0,0.0,0.0,0.0,0.0,0.0,0.0,0.0,0.0,0.0,0.0,0.0,0.0,0.0,0.0,0.0,0.0,0.0,0.0,0.0,0.0,0.0,0.0,0.0,0.0,0.0,0.0,0.0,0.0,0.0,0.0,0.0,0.0,0.0,0.0,0.0,0.0,0.0,0.0,0.0,0.0,0.0,0.0,0.0,0.0,0.0,0.0,0.0,0.0,0.0,0.0,0.0,0.0,0.0,0.0,0.0,0.0,0.0,0.0,0.0,0.0,0.0,0.0,0.0,0.0,0.0,0.0,0.0,0.0,0.0,0.0,0.0,0.0,0.0,0.0,0.0,0.0,0.0,0.0,0.0,0.0,0.0,0.0,0.0,0.0,0.0,0.0,0.0,0.0,0.0,0.0,0.0,0.0,0.0,0.0,0.0,0.0,0.0,0.0,0.0,0.0,0.0,0.0,0.0,0.0,0.0,0.0,0.0,0.0,0.0,0.0,0.0,0.0,0.0,0.0,0.0,0.0,0.0,0.0,0.0,0.0,0.0,0.0,0.0,0.0,0.0,0.0,0.0,0.0,0.0,0.0,0.0,0.0,0.0,0.0,0.0,0.0,0.0,0.0,0.0,0.0,0.0,0.0,0.0,0.0,0.0,0.0,0.0,0.0,0.0,0.0,0.0,0.0,0.0,0.0,0.0,0.0,0.0,0.0,0.0,0.0,0.0,0.0,0.0,0.0,0.0,0.0,0.0,0.0,0.0,0.0,0.0,0.0,0.0,0.0,0.0,0.0,0.0,0.0,0.0,0.0,0.0,0.0,0.0,0.0,0.0,0.0,0.0,0.0,0.0,0.0,0.0,0.0,0.0,0.0,0.0,0.0,0.0,0.0,0.0,0.0,0.0,0.0,0.0,0.0,0.0,0.0,0.0,0.0,0.0,0.0,0.0,0.0,0.0,0.0,0.0,0.0,0.0,0.0,0.0,0.0,0.0,0.0,0.0,0.0,0.0,0.0,0.0,0.0,0.0,0.0,0.0,0.0,0.0,0.0,0.0,0.0,0.0,0.0,0.0,0.0,0.0,0.0,0.0,0.0,0.0,0.0,0.0,0.0,0.0,0.0,0.0,0.0,0.0,0.0,0.0,0.0,0.0,0.0,0.0,0.0,0.0,0.0,0.0,0.0,0.0,0.0,0.0,0.0,0.0,0.0,0.0,0.0,0.0,0.0,0.0,0.0,0.0,0.0,0.0,0.0,0.0,0.0,0.0,0.0,0.0,0.0,0.0,0.0,0.0,0.0,0.0,0.0,0.0,0.0,0.0,0.0,0.0,0.0,0.0,0.0,0.0,0.0,0.0,0.0,0.0,0.0,0.0,0.0,0.0,0.0,0.0,0.0,0.0,0.0,0.0,0.0,0.0,0.0,0.0,0.0,0.0,0.0,0.0,0.0,0.0,0.0,0.0,0.0,0.0,0.0,0.0,0.0,0.0,0.0,0.0,0.0,0.0,0.0,0.0,0.0,0.0,0.0,0.0,0.0,0.0,0.0,0.0,0.0,0.0,0.0,0.0,0.0,0.0,0.0,0.0,0.0,0.0,0.0,0.0,0.0,0.0,0.0,0.0,0.0,0.0,0.0,0.0,0.0,0.0,0.0,0.0,0.0,0.0,0.0,0.0,0.0,0.0,0.0,0.0,0.0,0.0,0.0,0.0,0.0,0.0,0.0,0.0,0.0,0.0,0.0,0.0,0.0,0.0,0.0,0.0,0.0,0.0,0.0,0.0,0.0,0.0,0.0,0.0,0.0,0.0,0.0,0.0,0.0,0.0,0.0,0.0,0.0,0.0,0.0,0.0,0.0,0.0,0.0,0.0,0.0,0.0,0.0,0.0,0.0,0.0,0.0,0.0,0.0,0.0,0.0,0.0,0.0,0.0,0.0,0.0,0.0,0.0,0.0,0.0,0.0,0.0,0.0,0.0,0.0,0.0,0.0,0.0,0.0,0.0,0.0,0.0,0.0,0.0,0.0,0.0,0.0,0.0,0.0,0.0,0.0,0.0,0.0,0.0,0.0,0.0,0.0,0.0,0.0,0.0,0.0,0.0,0.0,0.0,0.0,0.0,0.0,0.0,0.0,0.0,0.0,0.0,0.0,0.0,0.0,0.0,0.0,0.0,0.0,0.0,0.0,0.0,0.0,0.0,0.0,0.0,0.0,0.0,0.0,0.0,0.0,0.0,0.0,0.0,0.0,0.0,0.0,0.0,0.0,0.0,0.0,0.0,0.0,0.0,0.0,0.0,0.0,0.0,0.0,0.0,0.0,0.0,0.0,0.0,0.0,0.0,0.0,0.0,0.0,0.0,0.0,0.0,0.0,0.0,0.0,0.0,0.0,0.0,0.0,0.0,0.0,0.0,0.0,0.0,0.0,0.0,0.0,0.0,0.0,0.0,0.0,0.0,0.0,0.0,0.0,0.0,0.0,0.0,0.0,0.0,0.0,0.0,0.0,0.0,0.0,0.0,0.0,0.0,0.0,0.0,0.0,0.0,0.0,0.0,0.0,0.0,0.0,0.0,0.0,0.0,0.0,0.0,0.0,0.0,0.0,0.0,0.0,0.0,0.0,0.0,0.0,0.0,0.0,0.0,0.0,0.0,0.0,0.0,0.0,0.0,0.0,0.0,0.0,0.0,0.0,0.0,0.0,0.0,0.0,0.0,0.0,0.0,0.0,0.0,0.0,0.0,0.0,0.0,0.0,0.0,0.0,0.0,0.0,0.0,0.0,0.0,0.0,0.0,0.0,0.0,0.0,0.0,0.0,0.0,0.0,0.0,0.0,0.0,0.0,0.0,0.0,0.0,0.0,0.0,0.0,0.0,0.0,0.0,0.0,0.0,0.0,0.0,0.0,0.0,0.0,0.0,0.0,0.0,0.0,0.0,0.0,0.0,0.0,0.0,0.0,0.0,0.0,0.0,0.0,0.0,0.0,0.0,0.0,0.0,0.0,0.0,0.0,0.0,0.0,0.0,0.0,0.0,0.0,0.0,0.0,0.0,0.0,0.0,0.0,0.0,0.0,0.0,0.0,0.0,0.0,0.0,0.0,0.0,0.0,0.0,0.0,0.0,0.0,0.0,0.0,0.0,0.0,0.0,0.0,0.0,0.0,0.0,0.0,0.0,0.0,0.0,0.0,0.0,0.0,0.0,0.0,0.0,0.0,0.0,0.0,0.0,0.0,0.0,0.0,0.0,0.0,0.0,0.0,0.0,0.0,0.0,0.0,0.0,0.0,0.0,0.0,0.0,0.0,0.0,0.0,0.0,0.0,0.0,0.0,0.0,0.0,0.0,0.0,0.0,0.0,0.0,0.0,0.0,0.0,0.0,0.0,0.0,0.0,0.0,0.0,0.0,0.0,0.0,0.0,0.0,0.0,0.0,0.0,0.0,0.0,0.0,0.0,0.0,0.0,0.0,0.0,0.0,0.0,0.0,0.0,0.0,0.0,0.0,0.0,0.0,0.0,0.0,0.0,0.0,0.0,0.0,0.0,0.0,0.0,0.0,0.0,0.0,0.0,0.0,0.0,0.0,0.0,0.0,0.0,0.0,0.0,0.0,0.0,0.0,0.0,0.0,0.0,0.0,0.0,0.0,0.0,0.0,0.0,0.0,0.0,0.0,0.0,0.0,0.0,0.0,0.0,0.0,0.0,0.0,0.0,0.0,0.0,0.0,0.0,0.0,0.0,0.0,0.0,0.0,0.0,0.0,0.0,0.0,0.0,0.0,0.0,0.0,0.0,0.0,0.0,0.0,0.0,0.0,0.0,0.0,0.0,0.0,0.0,0.0,0.0,0.0,0.0,0.0,0.0,0.0,0.0,0.0,0.0,0.0,0.0,0.0,0.0,0.0,0.0,0.0,0.0,0.0,0.0,0.0,0.0,0.0,0.0,0.0,0.0,0.0,0.0,0.0,0.0,0.0,0.0,0.0,0.0,0.0,0.0,0.0,0.0,0.0,0.0,0.0,0.0,0.0,0.0,0.0,0.0,0.0,0.0,0.0,0.0,0.0,0.0,0.0,0.0,0.0,0.0,0.0,0.0,0.0,0.0,0.0,0.0,0.0,0.0,0.0,0.0,0.0,0.0,0.0,0.0,0.0,0.0,0.0,0.0,0.0,0.0,0.0,0.0,0.0,0.0,0.0,0.0,0.0,0.0,0.0,0.0,0.0,0.0,0.0,0.0,0.0,0.0,0.0,0.0,0.0,0.0,0.0,0.0,0.0,0.0,0.0,0.0,0.0,0.0,0.0,0.0,0.0,0.0,0.0,0.0,0.0,0.0,0.0,0.0,0.0,0.0,0.0,0.0,0.0,0.0,0.0,0.0,0.0,0.0,0.0,0.0,0.0,0.0,0.0,0.0,0.0,0.0,0.0,0.0,0.0,0.0,0.0,0.0,0.0,0.0,0.0,0.0,0.0,0.0,0.0,0.0,0.0,0.0,0.0,0.0,0.0,0.0,0.0,0.0,0.0,0.0,0.0,0.0,0.0,0.0,0.0,0.0,0.0,0.0,0.0,0.0,0.0,0.0,0.0,0.0,0.0,0.0,0.0,0.0,0.0,0.0,0.0,0.0,0.0,0.0,0.0,0.0,0.0,0.0,0.0,0.0,0.0,0.0,0.0,0.0,0.0,0.0,0.0,0.0,0.0,0.0,0.0,0.0,0.0,0.0,0.0,0.0,0.0,0.0,0.0,0.0,0.0,0.0,0.0,0.0,0.0,0.0,0.0,0.0,0.0,0.0,0.0,0.0,0.0,0.0,0.0,0.0,0.0,0.0,0.0,0.0,0.0,0.0,0.0,0.0,0.0,0.0,0.0,0.0,0.0,0.0,0.0,0.0,0.0,0.0,0.0,0.0,0.0,0.0,0.0,0.0,0.0,0.0,0.0,0.0,0.0,0.0,0.0,0.0,0.0,0.0,0.0,0.0,0.0,0.0,0.0,0.0,0.0,0.0,0.0,0.0,0.0,0.0,0.0,0.0,0.0,0.0,0.0,0.0,0.0,0.0,0.0,0.0,0.0,0.0,0.0,0.0,0.0,0.0,0.0,0.0,0.0,0.0,0.0,0.0,0.0,0.0,0.0,0.0,0.0,0.0,0.0,0.0,0.0,0.0,0.0,0.0,0.0,0.0,0.0,0.0,0.0,0.0,0.0,0.0,0.0,0.0,0.0,0.0,0.0,0.0,0.0,0.0,0.0,0.0,0.0,0.0,0.0,0.0,0.0,0.0,0.0,0.0,0.0,0.0,0.0,0.0,0.0,0.0,0.0,0.0,0.0,0.0,0.0,0.0,0.0,0.0,0.0,0.0,0.0,0.0,0.0,0.0,0.0,0.0,0.0,0.0,0.0,0.0,0.0,0.0,0.0,0.0,0.0,0.0,0.0,0.0,0.0,0.0,0.0,0.0,0.0,0.0,0.0,0.0,0.0,0.0,0.0,0.0,0.0,0.0,0.0,0.0,0.0,0.0,0.0,0.0,0.0,0.0,0.0,0.0,0.0,0.0,0.0,0.0,0.0,0.0,0.0,0.0,0.0,0.0,0.0,0.0,0.0,0.0,0.0,0.0,0.0,0.0,0.0,0.0,0.0,0.0,0.0,0.0,0.0,0.0,0.0,0.0,0.0,0.0,0.0,0.0,0.0,0.0,0.0,0.0,0.0,0.0,0.0,0.0,0.0,0.0,0.0,0.0,0.0,0.0,0.0,0.0,0.0,0.0,0.0,0.0,0.0,0.0,0.0,0.0,0.0,0.0,0.0,0.0,0.0,0.0,0.0,0.0,0.0,0.0,0.0,0.0,0.0,0.0,0.0,0.0,0.0,0.0,0.0,0.0,0.0,0.0,0.0,0.0,0.0,0.0,0.0,0.0,0.0,0.0,0.0,0.0,0.0,0.0,0.0,0.0,0.0,0.0,0.0,0.0,0.0,0.0,0.0,0.0,0.0,0.0,0.0,0.0,0.0,0.0,0.0,0.0,0.0,0.0,0.0,0.0,0.0,0.0,0.0,0.0,0.0,0.0,0.0,0.0,0.0,0.0,0.0,0.0,0.0,0.0,0.0,0.0,0.0,0.0,0.0,0.0,0.0,0.0,0.0,0.0,0.0,0.0,0.0,0.0,0.0,0.0,0.0,0.0,0.0,0.0,0.0,0.0,0.0,0.0,0.0,0.0,0.0,0.0,0.0,0.0,0.0,0.0,0.0,0.0,0.0,0.0,0.0,0.0,0.0,0.0,0.0,0.0,0.0,0.0,0.0,0.0,0.0,0.0,0.0,0.0,0.0,0.0,0.0,0.0,0.0,0.0,0.0,0.0,0.0,0.0,0.0,0.0,0.0,0.0,0.0,0.0,0.0,0.0,0.0,0.0,0.0,0.0,0.0,0.0,0.0,0.0,0.0,0.0,0.0,0.0,0.0,0.0,0.0,0.0,0.0,0.0,0.0,0.0,0.0,0.0,0.0,0.0,0.0,0.0,0.0,0.0,0.0,0.0,0.0,0.0,0.0,0.0,0.0,0.0,0.0,0.0,0.0,0.0,0.0,0.0,0.0,0.0,0.0,0.0,0.0,0.0,0.0,0.0,0.0,0.0,0.0,0.0,0.0,0.0,0.0,0.0,0.0,0.0,0.0,0.0,0.0,0.0,0.0,0.0,0.0,0.0,0.0,0.0,0.0,0.0,0.0,0.0,0.0,0.0,0.0,0.0,0.0,0.0,0.0,0.0,0.0,0.0,0.0,0.0,0.0,0.0,0.0,0.0,0.0,0.0,0.0,0.0,0.0,0.0,0.0,0.0,0.0,0.0,0.0,0.0,0.0,0.0,0.0,0.0,0.0,0.0,0.0,0.0,0.0,0.0,0.0,0.0,0.0,0.0,0.0,0.0,0.0,0.0,0.0,0.0,0.0,0.0,0.0,0.0,0.0,0.0,0.0,0.0,0.0,0.0,0.0,0.0,0.0,0.0,0.0,0.0,0.0,0.0,0.0,0.0,0.0,0.0,0.0,0.0,0.0,0.0,0.0,0.0,0.0,0.0,0.0,0.0,0.0,0.0,0.0,0.0,0.0,0.0,0.0,0.0,0.0,0.0,0.0,0.0,0.0,0.0,0.0,0.0,0.0,0.0,0.0,0.0,0.0,0.0,0.0,0.0,0.0,0.0,0.0,0.0,0.0,0.0,0.0,0.0,0.0,0.0,0.0,0.0,0.0,0.0,0.0,0.0,0.0,0.0,0.0,0.0,0.0,0.0,0.0,0.0,0.0,0.0,0.0,0.0,0.0,0.0,0.0,0.0,0.0,0.0,0.0,0.0,0.0,0.0,0.0,0.0,0.0,0.0,0.0,0.0,0.0,0.0,0.0,0.0,0.0,0.0,0.0,0.0,0.0,0.0,0.0,0.0,0.0,0.0,0.0,0.0,0.0,0.0,0.0,0.0,0.0,0.0,0.0,0.0,0.0,0.0,0.0,0.0,0.0,0.0,0.0,0.0,0.0,0.0,0.0,0.0,0.0,0.0,0.0,0.0,0.0,0.0,0.0,0.0,0.0,0.0,0.0,0.0,0.0,0.0,0.0,0.0,0.0,0.0,0.0,0.0,0.0,0.0,0.0,0.0,0.0,0.0,0.0,0.0,0.0,0.0,0.0,0.0,0.0,0.0,0.0,0.0,0.0,0.0,0.0,0.0,0.0,0.0,0.0,0.0,0.0,0.0,0.0,0.0,0.0,0.0,0.0,0.0,0.0,0.0,0.0,0.0,0.0,0.0,0.0,0.0,0.0,0.0,0.0,0.0,0.0,0.0,0.0,0.0,0.0,0.0,0.0,0.0,0.0,0.0,0.0,0.0,0.0,0.0,0.0,0.0,0.0,0.0,0.0,0.0,0.0,0.0,0.0,0.0,0.0,0.0,0.0,0.0,0.0,0.0,0.0,0.0,0.0,0.0,0.0,0.0,0.0,0.0,0.0,0.0,0.0,0.0,0.0,0.0,0.0,0.0,0.0,0.0,0.0,0.0,0.0,0.0,0.0,0.0,0.0,0.0,0.0,0.0,0.0,0.0,0.0,0.0,0.0,0.0,0.0,0.0,0.0,0.0,0.0,0.0,0.0,0.0,0.0,0.0,0.0,0.0,0.0,0.0,0.0,0.0,0.0,0.0,0.0,0.0,0.0,0.0,0.0,0.0,0.0,0.0,0.0,0.0,0.0,0.0,0.0,0.0,0.0,0.0,0.0,0.0,0.0,0.0,0.0,0.0,0.0,0.0,0.0,0.0,0.0,0.0,0.0,0.0,0.0,0.0,0.0,0.0,0.0,0.0,0.0,0.0,0.0,0.0,0.0,0.0,0.0,0.0,0.0,0.0,0.0,0.0,0.0,0.0,0.0,0.0,0.0,0.0,0.0,0.0,0.0,0.0,0.0,0.0,0.0,0.0,0.0,0.0,0.0,0.0,0.0,0.0,0.0,0.0,0.0,0.0,0.0,0.0,0.0,0.0,0.0,0.0,0.0,0.0,0.0,0.0,0.0,0.0,0.0,0.0,0.0,0.0,0.0,0.0,0.0,0.0,0.0,0.0,0.0,0.0,0.0,0.0,0.0,0.0,0.0,0.0,0.0,0.0,0.0,0.0,0.0,0.0,0.0,0.0,0.0,0.0,0.0,0.0,0.0,0.0,0.0,0.0,0.0,0.0,0.0,0.0,0.0,0.0,0.0,0.0,0.0,0.0,0.0,0.0,0.0,0.0,0.0,0.0,0.0,0.0,0.0,0.0,0.0,0.0,0.0,0.0,0.0,0.0,0.0,0.0,0.0,0.0,0.0,0.0,0.0,0.0,0.0,0.0,0.0,0.0,0.0,0.0,0.0,0.0,0.0,0.0,0.0,0.0,0.0,0.0,0.0,0.0,0.0,0.0,0.0,0.0,0.0,0.0,0.0,0.0,0.0,0.0,0.0,0.0,0.0,0.0,0.0,0.0,0.0,0.0,0.0,0.0,0.0,0.0,0.0,0.0,0.0,0.0,0.0,0.0,0.0,0.0,0.0,0.0,0.0,0.0,0.0,0.0,0.0,0.0,0.0,0.0,0.0,0.0,0.0,0.0,0.0,0.0,0.0,0.0,0.0,0.0,0.0,0.0,0.0,0.0,0.0,0.0,0.0,0.0,0.0,0.0,0.0,0.0,0.0,0.0,0.0,0.0,0.0,0.0,0.0,0.0,0.0,0.0,0.0,0.0,0.0,0.0,0.0,0.0,0.0,0.0,0.0,0.0,0.0,0.0,0.0,0.0,0.0,0.0,0.0,0.0,0.0,0.0,0.0,0.0,0.0,0.0,0.0,0.0,0.0,0.0,0.0,0.0,0.0,0.0,0.0,0.0,0.0,0.002,0.0,0.0,0.0,0.0,0.0,0.0,0.0,0.0,0.0,0.0,0.0,0.0,0.0,0.0,0.0,0.0,0.0,0.0,0.0,0.0,0.0,0.0,0.0,0.0,0.0,0.0,0.0,0.0,0.0,0.0,0.0,0.0,0.0,0.0,0.0,0.0,0.0,0.0,0.0,0.0,0.0,0.0,0.0,0.0,0.0,0.0,0.0,0.0,0.0,0.0,0.0,0.0,0.0,0.0,0.0,0.0,0.0,0.0,0.0,0.0,0.0,0.0,0.0,0.0,0.0,0.0,0.0,0.0,0.0,0.0,0.0,0.0,0.0,0.0,0.0,0.0,0.0,0.0,0.0,0.0,0.0,0.0,0.0,0.0,0.0,0.0,0.0,0.0,0.0,0.0,0.0,0.0,0.0,0.0,0.0,0.0,0.0,0.0,0.0,0.0,0.0,0.0,0.0,0.0,0.0,0.0,0.0,0.0,0.0,0.0,0.0,0.0,0.0,0.0,0.0,0.0,0.0,0.0,0.0,0.0,0.0,0.0,0.0,0.0,0.0,0.0,0.0,0.0,0.0,0.0,0.0,0.0,0.0,0.0,0.0,0.0,0.0,0.0,0.0,0.0,0.0,0.0,0.0,0.0,0.0,0.0,0.0,0.0,0.0,0.0,0.0,0.0,0.0,0.0,0.0,0.0,0.0,0.0,0.0,0.0,0.0,0.0,0.0,0.0,0.0,0.0,0.0,0.0,0.0,0.0,0.0,0.0,0.0,0.0,0.0,0.0,0.0,0.0,0.0,0.0,0.0,0.0,0.0,0.0,0.0,0.0,0.0,0.0,0.0,0.0,0.0,0.0,0.0,0.0,0.0,0.0,0.0,0.0,0.0,0.0,0.0,0.0,0.0,0.0,0.0,0.0,0.0,0.0,0.0,0.0,0.0,0.0,0.0,0.0,0.0,0.0,0.0,0.0,0.0,0.0,0.0,0.0,0.0,0.0,0.0,0.0,0.0,0.0,0.9669,0.5478,0.1868,0.0,0.0,0.0,0.0,0.0,0.0,0.0,0.0,0.0,0.0,0.0,0.0,0.0,0.0,0.0,0.0,0.0,0.0,0.0,0.0,0.0,0.0,0.0,0.0,0.0,0.0,0.0,0.0,0.0,0.0,0.0,0.0,0.0,0.0,0.0,0.0,0.0,0.0,0.0,0.0,0.0,0.0,0.0,0.0,0.0,0.0,0.0,0.0,0.0,0.0,0.0,0.0,0.0,0.0,0.0,0.0,0.0,0.0,0.0,0.0,0.0,0.0,0.0,0.0,0.0,0.0,0.0,0.0,0.0,0.0,0.0,0.0,0.0,0.0,0.0,0.0,0.0,0.0,0.0,0.0,0.0,0.0,0.0,0.0,0.0,0.0,0.0,0.0,0.0,0.0,0.0,0.0,0.0,0.0,0.0,0.0,0.0,0.0,0.0,0.0,0.0,0.0,0.0,0.0,0.0,0.0,0.0,0.0,0.0,0.0,0.0,0.0,1.0962,1.2441,0.5237,0.0,0.0085,0.0614,0.0942,0.0,0.0,0.0,0.0,0.0,0.0,0.0,0.0,0.0,0.0,0.0,0.0,0.0,0.0,0.0,0.0,0.0,0.0,0.0,0.0,0.0,0.0,0.0,0.0,0.0,0.0,0.0,0.0,0.0,0.0,0.0,0.0,0.0,0.0,0.0,0.0,0.0,0.0,0.0,0.0,0.0,0.0,0.0,0.0,0.0,0.0,0.0,0.0,0.0,0.0,0.0,0.0,0.0,0.0,0.0,0.0,0.0,0.0,0.0,0.0,0.0,0.0,0.0,0.0,0.0,0.0,0.0,0.0,0.0,0.0,0.0,0.0,0.0,0.0,0.0,0.0,0.0,0.0,0.0,0.0,0.0,0.0,0.0,0.0,0.0,0.0,0.0,0.0,0.0,0.0,0.0,0.0,0.0,0.0,0.0,0.0,0.0,0.0,0.0,0.0,0.0,0.0,0.0,0.0,0.0,0.0,0.0,0.0,1.1058,1.0629,1.0314,0.6905,0.0198,0.4754,0.716,0.0,0.0,0.0,0.0,0.0,0.0,0.0,0.0,0.0,0.0,0.0,0.0,0.0,0.0,0.0,0.0,0.0,0.0,0.0,0.0,0.0,0.0,0.0,0.0,0.0,0.0,0.0,0.0,0.0,0.0,0.0,0.0,0.0,0.0,0.0,0.0,0.0,0.0,0.0,0.0,0.0,0.0,0.0,0.0,0.0,0.0,0.0,0.0,0.0,0.0,0.0,0.0,0.0,0.0,0.0,0.0,0.0,0.0,0.0,0.0,0.0,0.0,0.0,0.0,0.0,0.0,0.0,0.0,0.0,0.0,0.0,0.0,0.0,0.0,0.0,0.0,0.0,0.0,0.0,0.0,0.0,0.0,0.0,0.0,0.0,0.0,0.0,0.0,0.0,0.0,0.0,0.0,0.0,0.0,0.0,0.0,0.0,0.0,0.0,0.0,0.0,0.0,0.0,0.0,0.0,0.0,0.0,0.0,1.0853,0.8231,1.122,1.0583,0.5991,0.5251,0.6092,0.0,0.0,0.0,0.0,0.0,0.0,0.0,0.0,0.0,0.0,0.0,0.0,0.0,0.0,0.0,0.0,0.0,0.0,0.0,0.0,0.0,0.0,0.0,0.0,0.0,0.0,0.0,0.0,0.0,0.0,0.0,0.0,0.0,0.0,0.0,0.0,0.0,0.0,0.0,0.0,0.0,0.0,0.0,0.0,0.0,0.0,0.0,0.0,0.0,0.0,0.0,0.0,0.0,0.0,0.0,0.0,0.0,0.0,0.0,0.0,0.0,0.0,0.0,0.0,0.0,0.0,0.0,0.0,0.0,0.0,0.0,0.0,0.0,0.0,0.0,0.0,0.0,0.0,0.0,0.0,0.0,0.0,0.0,0.0,0.0,0.0,0.0,0.0,0.0,0.0,0.0,0.0,0.0,0.0,0.0,0.0,0.0,0.0,0.0,0.0,0.0,0.0,0.0,0.0,0.0,0.0,0.0,1.2165,1.0857,0.7155,1.0125,1.1666,1.1187,0.5097,0.3981,0.8635,0.0,0.0,0.0,0.0,0.0,0.0,0.0,0.0,0.0,0.0,0.0,0.0,0.0,0.0,0.0,0.0,0.0,0.0,0.0,0.0,0.0,0.0,0.0,0.0,0.0,0.0,0.0,0.0,0.0,0.0,0.0,0.0,0.0,0.0,0.0,0.0,0.0,0.0,0.0,0.0,0.0,0.0,0.0,0.0,0.0,0.0,0.0,0.0,0.0,0.0,0.0,0.0,0.0,0.0,0.0,0.0,0.0,0.0,0.0,0.0,0.0,0.0,0.0,0.0,0.0,0.0,0.0,0.0,0.0,0.0,0.0,0.0,0.0,0.0,0.0,0.0,0.0,0.0,0.0,0.0,0.0,0.0,0.0,0.0,0.0,0.0,0.0,0.0,0.0,0.0,0.0,0.0,0.0,0.0,0.0,0.0,0.0,0.0,0.0,0.0,0.0,0.0,0.0,0.0,0.0,1.1942,1.2198,1.2005,1.1384,0.8637,0.7187,0.7132,0.8744,0.9776,1.0044,0.0,0.0,0.0,0.0,0.0,0.0,0.0,0.0,0.0,0.0,0.0,0.0,0.0,0.0,0.0,0.0,0.0,0.0,0.0,0.0,0.0,0.0,0.0,0.0,0.0,0.0,0.0,0.0,0.0,0.0,0.0,0.0,0.0,0.0,0.0,0.0,0.0,0.0,0.0,0.0,0.0,0.0,0.0,0.0,0.0,0.0,0.0,0.0,0.0,0.0,0.0,0.0,0.0,0.0,0.0,0.0,0.0,0.0,0.0,0.0,0.0,0.0,0.0,0.0,0.0,0.0,0.0,0.0,0.0,0.0,0.0,0.0,0.0,0.0,0.0,0.0,0.0,0.0,0.0,0.0,0.0,0.0,0.0,0.0,0.0,0.0,0.0,0.0,0.0,0.0,0.0,0.0,0.0,0.0,0.0,0.0,0.0,0.0,0.0,0.0,0.0,0.0,0.0,0.0,0.0,0.9933,1.1885,1.2981,1.2915,1.0948,1.0014,1.0269,1.0581,1.0725,0.0,0.0,0.0,0.0,0.0,0.0,0.0,0.0,0.0,0.0,0.0,0.0,0.0,0.0,0.0,0.0,0.0,0.0,0.0,0.0,0.0,0.0,0.0,0.0,0.0,0.0,0.0,0.0,0.0,0.0,0.0,0.0,0.0,0.0,0.0,0.0,0.0,0.0,0.0,0.0,0.0,0.0,0.0,0.0,0.0,0.0,0.0,0.0,0.0,0.0,0.0,0.0,0.0,0.0,0.0,0.0,0.0,0.0,0.0,0.0,0.0,0.0,0.0,0.0,0.0,0.0,0.0,0.0,0.0,0.0,0.0,0.0,0.0,0.0,0.0,0.0,0.0,0.0,0.0,0.0,0.0,0.0,0.0,0.0,0.0,0.0,0.0,0.0,0.0,0.0,0.0,0.0,0.0,0.0,0.0,0.0,0.0,0.0,0.0,0.0,0.0,0.0,0.0,0.0,0.0,0.0,0.9189,1.2321,1.3829,1.347,1.3459,1.3656,1.4044,1.1793,1.0609,0.0,0.0,0.0,0.0,0.0,0.0,0.0,0.0,0.0,0.0,0.0,0.0,0.0,0.0,0.0,0.0,0.0,0.0,0.0,0.0,0.0,0.0,0.0,0.0,0.0,0.0,0.0,0.0,0.0,0.0,0.0,0.0,0.0,0.0,0.0,0.0,0.0,0.0,0.0,0.0,0.0,0.0,0.0,0.0,0.0,0.0,0.0,0.0,0.0,0.0,0.0,0.0,0.0,0.0,0.0,0.0,0.0,0.0,0.0,0.0,0.0,0.0,0.0,0.0,0.0,0.0,0.0,0.0,0.0,0.0,0.0,0.0,0.0,0.0,0.0,0.0,0.0,0.0,0.0,0.0,0.0,0.0,0.0,0.0,0.0,0.0,0.0,0.0,0.0,0.0,0.0,0.0,0.0,0.0,0.0,0.0,0.0,0.0,0.0,0.0,0.0,0.0,0.0,0.0,0.0,0.0,1.3813,1.4625,1.4581,1.3723,1.3683,1.3701,1.3754,1.2876,1.1478,0.0,0.0,0.0,0.0,0.0,0.0,0.0,0.0,0.0,0.0,0.0,0.0,0.0,0.0,0.0,0.0,0.0,0.0,0.0,0.0,0.0,0.0,0.0,0.0,0.0,0.0,0.0,0.0,0.0,0.0,0.0,0.0,0.0,0.0,0.0,0.0,0.0,0.0,0.0,0.0,0.0,0.0,0.0,0.0,0.0,0.0,0.0,0.0,0.0,0.0,0.0,0.0,0.0,0.0,0.0,0.0,0.0,0.0,0.0,0.0,0.0,0.0,0.0,0.0,0.0,0.0,0.0,0.0,0.0,0.0,0.0,0.0,0.0,0.0,0.0,0.0,0.0,0.0,0.0,0.0,0.0,0.0,0.0,0.0,0.0,0.0,0.0,0.0,0.0,0.0,0.0,0.0,0.0,0.0,0.0,0.0,0.0,0.0,0.0,0.0,0.0,0.0,0.0,0.0,0.0,1.1491,1.4371,1.4953,1.4974,1.4574,1.4553,1.4541,1.4558,1.3359,1.2086,0.0,0.0,0.0,0.0,0.0,0.0,0.0,0.0,0.0,0.0,0.0,0.0,0.0,0.0,0.0,0.0,0.0,0.0,0.0,0.0,0.0,0.0,0.0,0.0,0.0,0.0,0.0,0.0,0.0,0.0,0.0,0.0,0.0,0.0,0.0,0.0,0.0,0.0,0.0,0.0,0.0,0.0,0.0,0.0,0.0,0.0,0.0,0.0,0.0,0.0,0.0,0.0,0.0,0.0,0.0,0.0,0.0,0.0,0.0,0.0,0.0,0.0,0.0,0.0,0.0,0.0,0.0,0.0,0.0,0.0,0.0,0.0,0.0,0.0,0.0,0.0,0.0,0.0,0.0,0.0,0.0,0.0,0.0,0.0,0.0,0.0,0.0,0.0,0.0,0.0,0.0,0.0,0.0,0.0,0.0,0.0,0.0,0.0,0.0,0.0,0.0,0.0,0.0,0.0,0.0,0.0,1.402,1.4959,1.5363,1.5197,1.5255,1.5255,1.5179,1.3822,0.0,0.0,0.0,0.0,0.0,0.0,0.0,0.0,0.0,0.0,0.0,0.0,0.0,0.0,0.0,0.0,0.0,0.0,0.0,0.0,0.0,0.0,0.0,0.0,0.0,0.0,0.0,0.0,0.0,0.0,0.0,0.0,0.0,0.0,0.0,0.0,0.0,0.0,0.0,0.0,0.0,0.0,0.0,0.0,0.0,0.0,0.0,0.0,0.0,0.0,0.0,0.0,0.0,0.0,0.0,0.0,0.0,0.0,0.0,0.0,0.0,0.0,0.0,0.0,0.0,0.0,0.0,0.0,0.0,0.0,0.0,0.0,0.0,0.0,0.0,0.0,0.0,0.0,0.0,0.0,0.0,0.0,0.0,0.0,0.0,0.0,0.0,0.0,0.0,0.0,0.0,0.0,0.0,0.0,0.0,0.0,0.0,0.0,0.0,0.0,0.0,0.0,0.0,0.0,0.0,0.0,0.0,1.3424,1.5158,1.5757,1.5228,1.5435,1.5448,1.5181,1.4545,1.3554,0.0,0.0,0.0,0.0,0.0,0.0,0.0,0.0,0.0,0.0,0.0,0.0,0.0,0.0,0.0,0.0,0.0,0.0,0.0,0.0,0.0,0.0,0.0,0.0,0.0,0.0,0.0,0.0,0.0,0.0,0.0,0.0,0.0,0.0,0.0,0.0,0.0,0.0,0.0,0.0,0.0,0.0,0.0,0.0,0.0,0.0,0.0,0.0,0.0,0.0,0.0,0.0,0.0,0.0,0.0,0.0,0.0,0.0,0.0,0.0,0.0,0.0,0.0,0.0,0.0,0.0,0.0,0.0,0.0,0.0,0.0,0.0,0.0,0.0,0.0,0.0,0.0,0.0,0.0,0.0,0.0,0.0,0.0,0.0,0.0,0.0,0.0,0.0,0.0,0.0,0.0,0.0,0.0,0.0,0.0,0.0,0.0,0.0,0.0,0.0,0.0,0.0,0.0,0.0,0.0,1.112,1.3741,1.53,1.5951,1.5634,1.5616,1.5504,1.533,1.4728,1.3767,0.0,0.0,0.0,0.0,0.0,0.0,0.0,0.0,0.0,0.0,0.0,0.0,0.0,0.0,0.0,0.0,0.0,0.0,0.0,0.0,0.0,0.0,0.0,0.0,0.0,0.0,0.0,0.0,0.0,0.0,0.0,0.0,0.0,0.0,0.0,0.0,0.0,0.0,0.0,0.0,0.0,0.0,0.0,0.0,0.0,0.0,0.0,0.0,0.0,0.0,0.0,0.0,0.0,0.0,0.0,0.0,0.0,0.0,0.0,0.0,0.0,0.0,0.0,0.0,0.0,0.0,0.0,0.0,0.0,0.0,0.0,0.0,0.0,0.0,0.0,0.0,0.0,0.0,0.0,0.0,0.0,0.0,0.0,0.0,0.0,0.0,0.0,0.0,0.0,0.0,0.0,0.0,0.0,0.0,0.0,0.0,0.0,0.0,0.0,0.0,0.0,0.0,0.0,0.0,0.0,1.1019,1.3542,1.5405,1.619,1.5814,1.5778,1.5652,1.5448,1.4936,1.4096,0.0,0.0,0.0,0.0,0.0,0.0,0.0,0.0,0.0,0.0,0.0,0.0,0.0,0.0,0.0,0.0,0.0,0.0,0.0,0.0,0.0,0.0,0.0,0.0,0.0,0.0,0.0,0.0,0.0,0.0,0.0,0.0,0.0,0.0,0.0,0.0,0.0,0.0,0.0,0.0,0.0,0.0,0.0,0.0,0.0,0.0,0.0,0.0,0.0,0.0,0.0,0.0,0.0,0.0,0.0,0.0,0.0,0.0,0.0,0.0,0.0,0.0,0.0,0.0,0.0,0.0,0.0,0.0,0.0,0.0,0.0,0.0,0.0,0.0,0.0,0.0,0.0,0.0,0.0,0.0,0.0,0.0,0.9819,0.0,0.0,0.0,0.0,0.0,0.0,0.0,0.0,0.0,0.0,0.0,0.0,0.0,0.0,0.0,0.0,0.0,0.0,0.0,0.0,0.0,0.0,1.07,1.2564,1.5466,1.6529,1.5655,1.5927,1.5914,1.5599,1.5194,1.4695,1.4034,0.0,0.0,0.0,0.0,0.0,0.0,0.0,0.0,0.0,0.0,0.0,0.0,0.0,0.0,0.0,0.0,0.0,0.0,0.0,0.0,0.0,0.0,0.0,0.0,0.0,0.0,0.0,0.0,0.0,0.0,0.0,0.0,0.0,0.0,0.0,0.0,0.0,0.0,0.0,0.0,0.0,0.0,0.0,0.0,0.0,0.0,0.0,0.0,0.0,0.0,0.0,0.0,0.0,0.0,0.0,0.0,0.0,0.0,0.0,0.0,0.0,0.0,0.0,0.0,0.0,0.0,0.0,0.0,0.0,0.0,0.0,0.0,0.0,0.0,0.0,0.0,0.0,1.0629,1.0848,0.0,0.0,0.0,0.0,0.0,0.0,0.0,0.0,0.0,0.0,0.0,1.1333,1.2542,0.0,0.0,0.0,0.0,0.0,0.0,0.0,0.0,0.0,0.0,0.0,0.0,1.0663,1.2956,1.5415,1.6476,1.6069,1.6083,1.6,1.5797,1.5457,1.4673,1.3466,0.0,0.0,0.0,0.0,0.0,0.0,0.0,0.0,0.0,0.0,0.0,0.0,0.0,0.0,0.0,0.0,0.0,0.0,0.0,0.0,0.0,0.0,0.0,0.0,0.0,0.0,0.0,0.0,0.0,0.0,0.0,0.0,0.0,0.0,0.0,0.0,0.0,0.0,0.0,0.0,0.0,0.0,0.0,0.0,0.0,0.0,0.0,0.0,0.0,0.0,0.0,0.0,0.0,0.0,0.0,0.0,0.0,0.0,0.7132,0.1099,0.0,0.1766,0.7479,0.0,0.0,0.0,0.0,0.0,0.0,0.0,0.0,0.0,0.0,0.0,0.0,0.0,0.0,1.1241,0.0,1.1108,0.0,0.0,0.0,0.0,0.0,0.0,0.0,0.0,1.1894,1.2055,1.2276,1.3872,1.4403,0.0,1.3067,1.202,0.0,0.0,0.0,0.0,0.0,0.0,0.0,0.0,1.061,1.2755,1.5137,1.6317,1.6229,1.6145,1.6033,1.5901,1.5615,1.4881,1.3625,1.2636,1.118,0.0,0.0,0.0,0.0,0.0,0.0,0.0,0.0,0.0,0.0,0.0,0.0,0.0,0.0,0.0,0.0,0.0,0.0,0.0,0.0,0.0,0.0,0.0,0.0,0.0,0.0,0.0,0.0,0.0,0.0,0.0,0.0,0.0,0.4921,0.1846,0.0,0.0,0.0,0.0,0.0,0.0,0.0,0.0,0.0,0.0,0.0,0.0,0.0,0.0,0.0,0.0,0.0,0.0,0.1104,0.4594,0.0,0.0,0.5869,0.3441,0.411,0.969,0.7358,0.4525,0.4686,0.8534,1.235,0.0,0.0,0.0,0.0,0.0,0.0,0.0,0.0,1.2443,1.2249,0.0,1.2645,0.0,0.0,0.0,0.0,0.0,1.2022,0.0,0.0,1.3726,1.3964,1.3543,1.4664,1.522,1.5134,1.4128,1.3278,1.2556,1.1843,0.0,0.0,0.0,0.0,0.0,0.0,1.0523,1.2011,1.4676,1.6088,1.6112,1.6113,1.6026,1.5908,1.5716,1.5272,1.4559,1.406,1.3326,1.217,1.0184,0.0,0.0,0.0,0.0,0.0,0.0,0.0,0.0,0.0,0.0,0.0,0.0,0.0,0.0,0.0,0.0,0.0,0.0,0.0,0.0,0.438,0.0,0.0,0.0,0.0,0.0,0.0,0.0,0.0,0.0,0.0,1.1902,0.5648,0.0,0.0,0.0,0.0,0.0,0.0,0.0,0.0,0.0,0.0,0.0,0.0,0.0,0.0,0.0,0.0,0.0,0.0,0.3176,1.3019,1.4726,1.4691,1.3562,0.9774,0.7248,0.7469,1.0182,1.2781,1.3394,1.3428,1.4272,1.3569,0.0,0.0,0.0,0.0,1.2932,1.3247,1.3662,1.2847,1.2852,1.3448,1.3531,0.0,0.0,0.0,0.0,0.0,0.0,1.2986,1.3674,1.3485,1.3709,1.4354,1.5363,1.5622,1.5183,1.4785,1.4421,1.406,1.3577,1.2572,1.1124,0.0,0.0,0.0,0.0,1.1081,1.2954,1.4606,1.5732,1.6312,1.6081,1.593,1.5901,1.5848,1.5606,1.5155,1.4919,1.4453,1.369,1.2667,0.0,0.0,0.0,0.0,0.0,0.0,0.0,0.0,0.0,0.0,0.0,0.0,0.0,0.0,0.0,0.0,0.0,0.0,0.0,1.0351,0.7078,0.3451,0.0,0.0,0.0,0.0,0.0,0.0,0.0,0.0,0.0,1.2151,1.0293,0.8446,0.0,0.0,0.0,0.0,0.0,0.0,0.0,0.0,0.0,0.0,0.0,0.0,0.0,0.0,0.0,0.0,0.0,0.315,1.2748,1.4657,1.4598,1.4025,1.2945,1.1979,1.2206,1.2901,1.3495,1.3846,1.4369,1.4806,1.4859,1.4127,1.3715,1.3627,1.3719,1.3793,1.415,1.4604,1.3895,1.387,1.4344,1.4359,1.383,1.2909,1.2586,0.0,0.0,0.0,1.3719,1.4516,1.4073,1.4286,1.5072,1.5773,1.5906,1.5562,1.5326,1.5115,1.4898,1.4511,1.3638,1.2276,0.0,0.0,1.1791,1.1368,1.185,1.3223,1.4548,1.5435,1.5899,1.583,1.5835,1.5901,1.5962,1.5869,1.5606,1.5574,1.5289,1.4684,1.4178,1.2968,0.0,0.0,0.0,0.0,0.0,0.0,0.0,0.0,0.0,0.0,0.0,0.9413,1.025,0.0,0.0,0.0,0.7325,0.7852,1.0404,0.7921,0.0,0.0,0.0,0.0,0.0,0.0,0.0,1.1884,1.2156,1.2491,1.2822,1.2666,1.2213,1.1395,0.4771,0.1096,0.4138,0.0,0.3713,0.0,0.0,0.0,0.0,0.0,0.0,0.0,0.0,0.0,0.518,0.5803,0.7937,1.2734,1.4438,1.4502,1.4327,1.4259,1.4211,1.4186,1.4015,1.3927,1.3993,1.4379,1.4738,1.6065,1.557,1.4469,1.4225,1.4575,1.46,1.4867,1.524,1.5258,1.5074,1.4814,1.5104,1.467,1.3705,1.3333,0.0,1.392,1.4109,1.4579,1.5247,1.5247,1.5371,1.5644,1.5963,1.6116,1.6085,1.5772,1.5482,1.5226,1.492,1.4469,1.388,1.3488,1.3135,1.2774,1.2631,1.2755,1.3155,1.4493,1.52,1.5224,1.5501,1.5718,1.5901,1.6038,1.604,1.5928,1.6017,1.5829,1.5294,1.4877,1.4196,1.3131,0.0,0.0,0.0,0.0,0.0,0.0,0.0,0.0,0.0,0.0,0.0,0.0,0.0,0.0,0.0,1.1432,0.0,1.0639,0.7778,0.0,0.0,0.0,0.7937,0.1854,0.843,1.3725,1.4656,0.0,0.0,1.3888,1.3495,1.2953,1.2412,0.581,0.3616,1.0714,1.0985,0.8495,0.0962,0.0,0.0,0.0,0.0,0.0,0.0,0.0,0.0,1.0127,1.2415,1.3203,1.3431,1.3687,1.3937,1.4429,1.4534,1.4462,1.41,1.4161,1.4243,1.4168,1.4239,1.4418,1.6418,1.6118,1.5814,1.5563,1.536,1.5498,1.5631,1.5738,1.5854,1.5789,1.5617,1.5527,1.5186,1.4667,1.457,1.4654,1.4869,1.5025,1.5333,1.5719,1.5577,1.5686,1.5972,1.6056,1.6113,1.6092,1.5916,1.5734,1.5509,1.5423,1.5073,1.4498,1.4399,1.3976,1.3251,1.3199,1.3556,1.4294,1.4884,1.5244,1.5362,1.5764,1.5965,1.5908,1.6026,1.6082,1.6034,1.5921,1.5877,1.5869,1.4927,1.4258,1.3999,1.2519,0.0,0.0,0.0,0.0,0.0,0.0,0.0,0.0,0.0,0.92,1.2265,0.0,0.9898,0.0,1.1553,1.1983,1.1396,1.0831,0.0,0.0,1.1794,1.2846,1.1731,1.4024,1.5788,1.6023,1.4821,1.4064,1.4397,1.4537,1.4333,1.3632,1.1427,1.078,1.3178,0.7246,0.2305,0.0,0.0,0.0,0.0,0.0,0.0,0.0,0.0,0.0,0.0,0.3475,0.4656,0.7985,0.8899,1.0256,1.3733,1.4362,1.4352,1.4254,1.4281,1.4399,1.4688,1.4517,1.4333,1.6614,1.6471,1.641,1.6315,1.6213,1.6048,1.5979,1.6003,1.6053,1.6043,1.5888,1.5687,1.5473,1.5276,1.5269,1.5309,1.5386,1.5552,1.572,1.5901,1.5858,1.592,1.6113,1.612,1.6116,1.6096,1.6016,1.5904,1.5749,1.5749,1.5515,1.5112,1.5105,1.481,1.4215,1.3782,1.3811,1.4301,1.5012,1.5395,1.541,1.5797,1.5843,1.5527,1.5693,1.5752,1.5707,1.542,1.5512,1.6015,1.4526,1.3723,1.3867,1.2816,1.1927,0.0,0.0,0.0,0.0,0.0,0.0,0.0,0.0,0.0,0.0,0.0,1.1083,1.0811,1.2068,1.2511,1.1594,1.2105,1.2826,1.3611,1.4541,1.5225,1.5563,1.6375,1.6809,1.653,1.5797,1.5403,1.5622,1.5474,1.5391,1.5477,1.437,1.3698,1.3822,0.9517,0.6361,0.6364,0.6741,0.5104,0.0958,0.0,0.0,0.0,0.0,0.0,0.0,0.0,0.2187,0.8675,1.0355,1.1108,1.3753,1.4317,1.4292,1.4232,1.4254,1.4389,1.4622,1.4654,1.4558,1.6817,1.6783,1.6647,1.6754,1.6964,1.6447,1.6211,1.6198,1.6128,1.6032,1.5912,1.5753,1.5685,1.5672,1.5652,1.5639,1.5679,1.5849,1.5928,1.5942,1.6046,1.612,1.612,1.612,1.612,1.612,1.612,1.6027,1.5935,1.5928,1.5816,1.5591,1.556,1.5433,1.5129,1.4315,1.3887,1.3883,1.498,1.5489,1.5355,1.5612,1.5495,1.4973,1.5172,1.5238,1.5119,1.4744,1.4836,1.5424,1.3833,1.3052,1.337,1.2751,1.2264,0.0,1.1583,0.0,0.0,0.0,0.0,0.0,0.0,0.0,0.0,1.1306,1.2532,1.1767,1.2839,1.3121,1.2036,1.2738,1.3837,1.5145,1.5855,1.625,1.636,1.7038,1.7282,1.6686,1.6725,1.6871,1.698,1.6334,1.623,1.6753,1.5611,1.4461,1.4228,1.3901,1.3591,1.4429,1.5221,1.1456,0.3681,0.0,0.0,0.0,0.0,0.1948,0.0,0.0,0.4903,1.21,1.3957,1.4172,1.4318,1.4313,1.4262,1.4159,1.4232,1.4292,1.4308,1.4574,1.4758,1.7365,1.7243,1.7127,1.7046,1.6984,1.6882,1.6822,1.6802,1.6305,1.6081,1.6068,1.6129,1.6117,1.5988,1.5878,1.5904,1.6001,1.6041,1.606,1.6054,1.6082,1.612,1.612,1.612,1.612,1.612,1.612,1.6082,1.6067,1.6067,1.5851,1.5454,1.544,1.523,1.4805,0.0,0.0,0.0,1.4913,1.5202,1.5087,1.4972,1.4819,1.4611,1.4652,0.0,1.4774,1.4401,1.3653,1.2555,1.3088,0.0,0.0,0.0,0.0,0.0,0.0,0.0,0.0,0.0,0.0,0.0,1.2423,1.2046,1.0548,1.2994,1.4171,1.296,1.38,1.453,1.4712,1.4755,1.5101,1.5844,1.6468,1.7028,1.749,1.7892,1.7893,1.7304,1.7257,1.7324,1.7412,1.7123,1.6738,1.6466,1.6015,1.521,1.3928,1.4104,1.46,1.5353,1.5661,1.3527,0.7394,0.6408,0.4996,0.2258,0.7685,1.1973,1.2236,1.2352,1.2249,1.4519,1.4321,1.4328,1.4321,1.4311,1.4319,1.4256,1.43,1.425,1.4111,1.4252,1.4416,1.7453,0.0,1.7372,1.7358,0.0,1.7446,1.7446,1.7392,1.6795,1.6605,1.6729,1.6473,1.6287,1.6198,1.621,1.6197,1.6211,1.6266,1.63,1.6287,1.6362,1.6296,1.6123,1.6409,1.6551,1.6521,1.6388,1.6287,1.6286,1.6163,1.598,1.5756,1.5756,1.564,1.5393,1.5385,1.5387,1.5399,1.5687,1.5769,1.5652,1.5672,1.5409,1.4875,1.4968,0.0,0.0,0.0,0.0,0.0,0.0,0.0,0.0,0.0,0.0,1.3495,1.321,1.3108,1.3268,1.2913,1.283,1.3171,1.3862,1.3966,1.3166,1.4525,1.5072,1.4339,1.4947,1.5541,1.5893,1.5884,1.6035,1.6502,1.682,1.723,1.7797,1.814,1.8175,1.7902,1.7725,1.7609,1.75,1.721,1.6975,1.6705,1.5934,1.5185,1.4452,1.428,1.4669,1.5612,1.5641,1.4726,1.2459,1.1809,1.1104,0.9275,1.2274,1.5337,1.5808,1.5801,1.5527,1.4816,1.4645,1.4643,1.4638,1.4644,1.463,1.4644,1.465,1.4519,1.4239,1.4233,1.4308,1.7514,1.771,1.7575,1.7677,1.7915,1.7915,1.7915,1.7874,0.0,0.0,0.0,1.6829,1.6479,1.6376,1.6457,1.6443,1.6348,1.6457,1.6505,1.6539,1.6627,1.6515,1.6294,1.6735,1.7023,1.7143,1.6778,1.6592,1.6566,1.6354,1.6237,1.6189,1.6157,1.6151,1.611,1.612,1.6239,1.6494,1.6618,1.6519,1.6277,1.6457,1.6131,1.5213,1.5393,1.4781,1.3316,1.355,1.3438,1.2854,1.3108,1.3522,1.4003,1.3867,1.3866,1.4029,1.4042,1.4121,1.431,1.4091,1.4153,1.4573,1.5076,1.5481,1.5738,1.5819,1.5767,1.5605,1.5967,1.6277,1.6445,1.6535,1.67,1.6968,1.7083,1.7358,1.784,1.8191,1.8399,1.835,1.815,1.7894,1.7609,1.7341,1.7118,1.7181,1.637,1.5145,1.501,1.4732,1.4854,1.5607,1.5618,1.5449,1.56,1.5496,1.5804,1.5057,1.543,1.5813,1.5809,1.5817,1.5614,1.5254,1.5147,1.511,1.5064,1.4992,1.5019,1.5035,1.5004,1.4865,1.4522,1.436,1.4315,1.8151,1.8184,1.8063,1.7962,1.7915,1.7915,1.7915,1.7888,1.7813,1.7805,1.7804,1.7366,1.6978,1.6641,1.6546,1.6485,1.6484,1.6472,1.6566,1.6662,1.6567,1.6656,1.6861,1.678,1.7112,1.7693,1.7202,1.693,1.6936,1.6883,1.672,1.6477,1.645,1.6325,1.6133,1.6106,1.6238,1.6501,1.7004,1.6899,1.616,1.6046,1.5754,1.5238,1.5138,1.4788,1.4155,1.4175,1.4153,1.4038,1.3782,1.4051,1.4919,1.4669,1.4626,1.4964,1.5009,1.5065,1.5184,1.4828,1.4929,1.5758,1.5928,1.6089,1.6363,1.6637,1.6665,1.6388,1.6485,1.6627,1.6674,1.6816,1.6958,1.7046,1.7467,1.7806,1.793,1.8391,1.8689,1.867,1.854,1.8355,1.8137,1.806,1.7862,1.7579,1.7252,1.7017,1.5488,1.5158,1.5394,1.5719,1.576,1.5746,1.5785,1.5806,1.5812,1.5806,1.5806,1.5812,1.5801,1.5813,1.5767,1.5722,1.5641,1.5528,1.5261,1.5064,1.5084,1.5158,1.5036,1.4885,1.4861,1.4604,1.4334,1.8307,1.8293,1.824,1.8172,1.8104,1.8037,1.7968,1.792,1.7908,1.7834,1.773,1.7649,1.7383,1.6979,1.6979,1.6951,1.6883,1.6809,1.6897,1.7054,1.6932,1.6924,1.7038,1.7223,1.7557,1.7857,1.7448,1.7222,1.7195,1.7073,1.6923,1.6762,1.6788,1.6553,1.6144,1.6239,1.6379,1.6505,1.7093,1.7203,1.6808,1.6822,1.6612,1.6196,1.6189,1.5818,1.5031,1.5109,1.5205,1.5276,1.4695,1.4834,1.5816,1.5599,1.5515,1.5771,1.5866,1.5928,1.5983,1.5491,1.5743,1.6949,1.7084,1.704,1.6971,1.7132,1.7023,1.6576,1.6721,1.6863,1.687,1.7078,1.7295,1.7493,1.7465,1.7675,1.8281,1.8594,1.8712,1.8564,1.8613,1.8542,1.8234,1.8253,1.8328,1.8098,1.7655,1.657,1.5574,1.5526,1.5657,1.5784,1.5805,1.5809,1.5816,1.5816,1.5816,1.5816,1.5816,1.5816,1.5816,1.5807,1.5907,1.611,1.6,1.578,1.5575,1.5435,1.5343,1.5267,1.5261,1.5241,1.5306,1.4855,1.4361,1.8388,1.8354,1.834,1.8334,1.8279,1.8178,1.8082,1.7984,1.7946,1.7845,1.7771,1.7868,1.7656,1.7317,1.7358,1.7338,1.7243,1.7127,1.7222,1.7412,1.7304,1.7237,1.7251,1.7649,1.7848,1.7874,1.7616,1.7507,1.7494,1.7304,1.7147,1.7066,1.7025,1.6774,1.6328,1.651,1.6675,1.6829,1.7276,1.7488,1.7439,1.7602,1.75,1.7127,1.7175,1.6821,1.5979,1.6081,1.6128,1.6077,1.5566,1.566,1.6432,1.6382,1.633,1.6388,1.6485,1.6579,1.6581,1.6048,1.6341,1.7767,1.7914,1.7756,1.745,1.7403,1.7186,1.6778,1.6937,1.706,1.7018,1.7173,1.7418,1.7636,1.756,1.7833,1.8615,1.8692,1.8447,1.814,1.8426,1.8586,1.8332,1.8382,1.8623,1.8687,1.7629,1.6605,1.6007,1.5759,1.571,1.5794,1.5816,1.581,1.5816,1.5816,1.5816,1.5816,1.5804,1.5804,1.5809,1.5816,1.5899,1.6169,1.6077,1.5896,1.5874,1.5722,1.5589,1.5493,1.5401,1.5333,1.5263,1.4878,1.4382,1.8648,1.8496,1.8482,1.8408,1.8321,1.8293,1.8273,1.8237,1.8005,1.8041,1.8199,1.7991,1.78,1.7568,1.746,1.7426,1.7399,1.7372,1.7446,1.7568,1.7446,1.7528,1.7751,1.7683,1.7724,1.7881,1.7861,1.7847,1.7833,1.7813,1.7582,1.7215,1.7059,1.6998,1.6932,1.6953,1.7217,1.7765,1.7832,1.7765,1.7595,1.7772,1.7704,1.7365,1.7378,1.7223,1.6872,1.6884,1.6648,1.6178,1.6273,1.6374,1.6517,1.6768,1.6838,1.6694,1.6689,1.6762,1.6892,1.6391,1.6613,1.7735,1.7914,1.7772,1.746,1.7418,1.7343,1.7181,1.7263,1.7236,1.7032,1.7028,1.7089,1.7197,1.7943,1.868,1.8666,1.8316,1.7765,1.7182,1.8007,1.8519,1.8471,1.8782,1.9194,1.9402,1.9071,1.8194,1.6595,1.5689,1.5549,1.5713,1.5795,1.5784,1.5795,1.5816,1.5816,1.581,1.5805,1.5784,1.5747,1.5769,1.5842,1.5943,1.5974,1.5945,1.5889,1.5744,1.5627,1.5536,1.5293,1.4923,1.46,1.4575,1.4556,1.8743,1.8682,1.8682,1.8648,1.8593,1.8484,1.8429,1.8394,1.8221,1.8201,1.8315,1.8398,1.8239,1.79,1.7921,1.7907,1.7819,1.7738,1.7819,1.7981,1.7813,1.7757,1.7901,1.7993,1.8049,1.8131,1.8131,1.8098,1.8023,1.7935,1.7806,1.7609,1.7433,1.7405,1.7506,1.7525,1.7743,1.8129,1.8129,1.8102,1.8023,1.8009,1.7955,1.7833,1.7833,1.7724,1.7527,1.7358,1.721,1.7149,1.6935,1.6874,1.7036,1.7362,1.749,1.7432,1.7568,1.7601,1.7518,1.7307,1.7366,1.7865,1.7909,1.784,1.7716,1.7697,1.7568,1.7263,1.7236,1.7182,1.7039,1.6994,1.6996,1.7102,1.7779,1.8274,1.826,1.773,1.7372,1.7529,1.788,1.8244,1.8506,1.8909,1.9225,1.9359,1.9283,1.8692,1.8026,1.6598,1.5523,1.5541,1.5634,1.5724,1.5773,1.5816,1.5795,1.5809,1.5809,1.5755,1.5446,1.5653,1.5794,1.5798,1.5747,1.5767,1.5834,1.5565,1.5369,1.5321,1.4983,1.4519,1.4345,1.4615,1.4765,1.8806,1.8806,1.8806,1.8806,1.8778,1.864,1.8578,1.8586,1.8484,1.8443,1.8472,1.8707,1.8589,1.8247,1.828,1.8253,1.8145,1.8064,1.8118,1.8259,1.8105,1.7992,1.8036,1.82,1.8342,1.8411,1.8349,1.8246,1.8152,1.8078,1.7996,1.7935,1.7846,1.7744,1.7669,1.7709,1.7942,1.8274,1.8391,1.8382,1.8301,1.8247,1.8192,1.8172,1.8152,1.8095,1.7984,1.7784,1.7717,1.7864,1.7548,1.7446,1.7642,1.7889,1.7998,1.7983,1.82,1.8244,1.801,1.8102,1.8159,1.8138,1.814,1.8086,1.7946,1.7914,1.7704,1.7317,1.7216,1.7154,1.7105,1.7028,1.7056,1.7236,1.7656,1.7909,1.7896,1.7472,1.7391,1.7704,1.7882,1.8143,1.8549,1.8939,1.9209,1.9194,1.8992,1.9017,1.9158,1.7277,1.542,1.5555,1.5578,1.5585,1.5704,1.5697,1.5708,1.5802,1.5799,1.562,1.5169,1.5471,1.5626,1.5525,1.5431,1.5445,1.5585,1.5385,1.5168,1.4986,1.4737,1.4517,1.4564,1.4784,1.4905,1.8806,1.8806,1.8806,1.8806,1.8791,1.8799,1.8778,1.8764,1.8756,1.8764,1.875,1.8786,1.8682,1.8469,1.8367,1.8307,1.8279,1.8301,1.83,1.8334,1.83,1.8276,1.8297,1.8304,1.8453,1.869,1.8473,1.8321,1.83,1.828,1.8226,1.8091,1.8165,1.7841,1.7295,1.7387,1.7723,1.8295,1.8605,1.8626,1.8377,1.8436,1.8415,1.8321,1.8279,1.8265,1.8216,1.8224,1.8161,1.7927,1.809,1.821,1.8252,1.8267,1.8226,1.8153,1.8345,1.8448,1.8356,1.8562,1.8703,1.8725,1.8692,1.8503,1.798,1.7909,1.7731,1.7412,1.7277,1.7221,1.7223,1.712,1.7243,1.7668,1.7818,1.7865,1.7865,1.7832,1.7702,1.7602,1.7889,1.8266,1.869,1.9037,1.9143,1.9126,1.8962,1.8995,1.9095,1.7214,1.5941,1.5768,1.5677,1.5454,1.5552,1.5562,1.5576,1.5644,1.5666,1.5606,1.5454,1.5331,1.5313,1.53,1.5308,1.5317,1.5369,1.5302,1.5139,1.5017,1.4993,1.4875,1.4802,1.4741,1.4829,1.8894,1.8791,1.8806,1.8806,1.8812,1.8878,1.8886,1.8805,1.8805,1.8807,1.8798,1.8806,1.8764,1.8674,1.8641,1.8559,1.8442,1.8559,1.862,1.8635,1.8614,1.8612,1.8624,1.8605,1.867,1.8768,1.867,1.8537,1.8422,1.8354,1.8266,1.8233,1.8192,1.804,1.7852,1.7739,1.8015,1.8569,1.8744,1.8733,1.8636,1.8668,1.8668,1.8614,1.8504,1.8471,1.8571,1.8411,1.8348,1.845,1.8371,1.8408,1.8589,1.8498,1.8475,1.8547,1.863,1.8664,1.8658,1.8722,1.8802,1.8807,1.8802,1.8522,1.8045,1.7896,1.7729,1.7384,1.7331,1.7283,1.7159,1.7186,1.7336,1.7506,1.744,1.7371,1.7432,1.7786,1.8026,1.7847,1.8038,1.8331,1.8494,1.8757,1.8932,1.8932,1.8855,1.8893,1.8819,1.7583,1.6302,1.5791,1.5513,1.5374,1.5346,1.5405,1.5445,1.5483,1.5479,1.5359,1.5225,1.5156,1.5145,1.515,1.5169,1.5203,1.5224,1.52,1.5068,1.505,1.5021,1.5002,1.5012,1.4856,1.4876,1.8886,1.8812,1.8806,1.8806,1.8805,1.8907,1.8886,1.8805,1.8798,1.8799,1.8805,1.8806,1.8806,1.8806,1.8806,1.8756,1.8666,1.8771,1.8818,1.8859,1.8818,1.8804,1.8794,1.8804,1.8806,1.8806,1.8806,1.8736,1.8652,1.8571,1.8537,1.8599,1.8457,1.8411,1.8418,1.8278,1.8419,1.8756,1.8886,1.8895,1.8812,1.8886,1.8907,1.8866,1.8761,1.8759,1.8807,1.8616,1.8608,1.8747,1.8583,1.8604,1.8872,1.8792,1.8769,1.8859,1.8851,1.8833,1.8811,1.8799,1.8646,1.8277,1.8385,1.8238,1.7698,1.7609,1.7466,1.7304,1.7229,1.7188,1.7134,1.7194,1.731,1.7385,1.733,1.7286,1.7313,1.7819,1.8012,1.7963,1.8071,1.8213,1.8288,1.8588,1.8763,1.8791,1.8669,1.8523,1.8383,1.7359,1.6457,1.5758,1.5518,1.5448,1.5385,1.5395,1.5266,1.5276,1.5301,1.517,1.51,1.5035,1.5013,1.5013,1.5038,1.5062,1.5062,1.5046,1.5039,1.5017,1.4999,1.4977,1.4948,1.4894,1.4914,1.8798,1.8806,1.8806,1.8806,1.8798,1.884,1.8805,1.8811,1.8833,1.8832,1.8833,1.8784,1.8756,1.8806,1.8806,1.8859,1.8933,1.8879,1.8878,1.8967,1.8866,1.88,1.88,1.8802,1.8819,1.8841,1.8812,1.8879,1.8959,1.8967,1.9021,1.9115,1.8979,1.8834,1.8761,1.8725,1.8757,1.887,1.9059,1.9051,1.8881,1.9048,1.9108,1.9035,1.9088,1.9056,1.8833,1.8912,1.8908,1.8832,1.8809,1.8924,1.9157,1.9157,1.9107,1.9021,1.8993,1.8938,1.8814,1.8771,1.8244,1.7494,1.76,1.766,1.7239,1.7125,1.7183,1.7257,1.7195,1.7073,1.7142,1.7122,1.7183,1.7385,1.7608,1.7785,1.7902,1.7895,1.7922,1.7935,1.8037,1.8098,1.8187,1.8415,1.8659,1.8643,1.8046,1.7612,1.7549,1.64,1.56,1.5781,1.5663,1.5385,1.5396,1.5395,1.5195,1.5039,1.5075,1.5038,1.5055,1.5013,1.5013,1.5021,1.5007,1.5035,1.5035,1.5033,1.5019,1.5017,1.4981,1.4954,1.491,1.4883,1.4907,1.8872,1.8791,1.8806,1.8806,1.8805,1.89,1.8933,1.8947,1.9027,1.9021,1.8899,1.8593,1.8588,1.8763,1.8806,1.8879,1.8986,1.9033,1.904,1.8993,1.8975,1.8891,1.8829,1.8804,1.8889,1.9028,1.8977,1.8993,1.9115,1.915,1.9162,1.9169,1.9067,1.8934,1.8816,1.88,1.8882,1.905,1.9163,1.916,1.9075,1.9156,1.9176,1.9149,1.9183,1.9164,1.9089,1.9115,1.9106,1.9076,1.9072,1.9218,1.9433,1.9337,1.9183,1.9134,1.9135,1.9019,1.881,1.8581,1.8087,1.7294,1.723,1.72,1.7058,1.7182,1.723,1.7197,1.7196,1.7263,1.7209,1.7257,1.7318,1.7405,1.769,1.8067,1.8302,1.8122,1.7997,1.8065,1.8031,1.801,1.8076,1.8238,1.8288,1.8307,1.6995,1.6003,1.6179,1.5866,1.5499,1.5946,1.5589,1.5354,1.5423,1.5385,1.5191,1.5057,1.5041,1.5013,1.5008,1.5021,1.5015,1.5019,1.5019,1.5008,1.5008,1.5008,1.5008,1.501,1.5006,1.4965,1.4909,1.4894,1.4887,1.8879,1.8806,1.8806,1.884,1.8865,1.8959,1.9027,1.9082,1.9156,1.9135,1.8959,1.8756,1.8709,1.8865,1.8912,1.9028,1.917,1.925,1.9237,1.9149,1.9088,1.9025,1.8963,1.8945,1.9031,1.9142,1.9104,1.9127,1.9284,1.9276,1.9326,1.9339,1.9223,1.9133,1.9002,1.8889,1.895,1.923,1.9342,1.9324,1.9253,1.9318,1.9345,1.9305,1.9354,1.9388,1.9388,1.9403,1.933,1.9252,1.9324,1.9492,1.9649,1.9499,1.9345,1.9283,1.9263,1.9177,1.8959,1.8783,1.8506,1.8075,1.7997,1.789,1.7754,1.7758,1.7589,1.7325,1.7358,1.744,1.7379,1.7365,1.7444,1.7585,1.7763,1.8073,1.835,1.8129,1.7955,1.801,1.7983,1.7956,1.7974,1.7989,1.8085,1.8076,1.727,1.5593,1.5852,1.546,1.5628,1.5755,1.5592,1.5478,1.5505,1.5391,1.5202,1.5117,1.5064,1.5035,1.5008,1.5015,1.5012,1.5015,1.5009,1.5019,1.5008,1.5008,1.5017,1.5017,1.5021,1.4992,1.4937,1.4847,1.4838,1.8798,1.8805,1.8819,1.89,1.9007,1.9028,1.9081,1.9183,1.9189,1.9136,1.9069,1.9089,1.9088,1.904,1.9123,1.9237,1.9376,1.9419,1.9425,1.9378,1.9318,1.9218,1.9172,1.9196,1.9265,1.9269,1.9246,1.9298,1.9434,1.944,1.95,1.9627,1.9468,1.9405,1.9314,1.9034,1.9057,1.9394,1.9585,1.951,1.9286,1.9525,1.9613,1.9439,1.9586,1.9669,1.9662,1.9661,1.9537,1.9324,1.9532,1.9677,1.9711,1.9688,1.9584,1.9432,1.9425,1.9378,1.925,1.9197,1.9262,1.9384,1.9199,1.9403,1.8676,1.8302,1.8019,1.7684,1.7622,1.7609,1.7575,1.7533,1.7626,1.7883,1.7937,1.7964,1.7929,1.7929,1.8,1.7968,1.7935,1.7942,1.7955,1.795,1.8177,1.8562,1.8784,1.7674,1.5907,1.5263,1.5377,1.5456,1.5543,1.5574,1.5606,1.5445,1.5272,1.524,1.5172,1.512,1.5109,1.5125,1.5062,1.505,1.5058,1.5042,1.5019,1.503,1.5046,1.5061,1.5064,1.5024,1.4984,1.4923,1.4885,1.8859,1.894,1.8946,1.9013,1.9135,1.9149,1.9169,1.9203,1.9195,1.9181,1.9172,1.9192,1.9189,1.9149,1.9189,1.9269,1.9404,1.9549,1.9627,1.9612,1.96,1.9428,1.9306,1.946,1.9576,1.9545,1.9424,1.9432,1.962,1.9612,1.9639,1.9681,1.9529,1.9492,1.9533,1.9283,1.9307,1.9575,1.9668,1.9669,1.9603,1.964,1.9674,1.9632,1.9674,1.9717,1.9708,1.972,1.9669,1.9602,1.9637,1.971,1.973,1.9708,1.9679,1.9646,1.9618,1.9613,1.9577,1.9561,1.961,1.9565,1.899,1.8511,1.8809,1.8494,1.8259,1.8081,1.7944,1.7772,1.7683,1.7715,1.7987,1.8388,1.8194,1.7967,1.7979,1.8088,1.8197,1.8192,1.8199,1.8199,1.8148,1.8057,1.8104,1.846,1.8648,1.8164,1.599,1.5279,1.5483,1.5567,1.5633,1.5655,1.5633,1.5493,1.5391,1.5363,1.5302,1.5237,1.5294,1.5364,1.5243,1.5144,1.5163,1.5164,1.5115,1.5079,1.51,1.5158,1.5108,1.5085,1.5117,1.5082,1.5013,1.8926,1.9007,1.9069,1.9162,1.9276,1.9298,1.9332,1.9356,1.9258,1.9232,1.9305,1.9381,1.9374,1.929,1.9381,1.944,1.9535,1.9654,1.9703,1.971,1.9703,1.9601,1.9509,1.9647,1.9718,1.9703,1.9589,1.9606,1.9688,1.9749,1.9776,1.9776,1.9664,1.9669,1.9752,1.9556,1.9494,1.9673,1.9717,1.9719,1.9718,1.9771,1.9783,1.9797,1.9815,1.9878,1.9876,1.9867,1.9814,1.9753,1.9801,1.9878,1.9863,1.9863,1.9863,1.9863,1.9878,1.9847,1.9733,1.9718,1.9712,1.956,1.8776,1.854,1.8666,1.8504,1.8312,1.8264,1.8188,1.8077,1.796,1.8009,1.8288,1.8628,1.8484,1.8275,1.8272,1.8528,1.8657,1.8655,1.859,1.8477,1.8408,1.8197,1.8256,1.8536,1.9018,1.7567,1.5732,1.5675,1.5575,1.5654,1.5703,1.573,1.5741,1.5633,1.5578,1.5536,1.5499,1.5424,1.5461,1.557,1.5511,1.5397,1.535,1.5276,1.5233,1.5202,1.526,1.5264,1.5199,1.5191,1.5252,1.5328,1.5259,1.9033,1.9047,1.9169,1.9297,1.9425,1.9439,1.9501,1.958,1.9389,1.9331,1.9422,1.9613,1.9572,1.9452,1.9586,1.9696,1.9696,1.9703,1.9708,1.972,1.971,1.9688,1.9666,1.9755,1.9786,1.9783,1.9744,1.9756,1.981,1.987,1.9903,1.991,1.9903,1.991,1.987,1.9759,1.9712,1.9764,1.9793,1.98,1.9819,1.9878,1.9926,1.9939,1.9965,2.0039,2.006,2.0071,2.0011,1.9801,1.9983,2.0055,2.0092,2.0084,2.0044,2.0046,2.0041,1.9993,1.9823,1.982,1.9838,1.9752,1.9291,1.8964,1.8987,1.8786,1.85,1.8516,1.8501,1.8413,1.8286,1.8311,1.858,1.8881,1.8907,1.8905,1.8993,1.9144,1.9251,1.9225,1.902,1.8764,1.8598,1.8474,1.8462,1.8784,1.9148,1.8452,1.7155,1.6878,1.6377,1.575,1.5781,1.579,1.5795,1.5779,1.5762,1.5741,1.5719,1.5667,1.5667,1.5731,1.5773,1.5719,1.5544,1.542,1.5362,1.5373,1.5416,1.5434,1.5408,1.5422,1.5465,1.5568,1.5561,1.9324,1.9324,1.9351,1.9468,1.9627,1.964,1.9563,1.9471,1.9564,1.95,1.9465,1.9612,1.9683,1.9625,1.9689,1.971,1.971,1.9717,1.9742,1.9841,1.974,1.9712,1.9769,1.991,2.0009,2.003,2.0018,2.0012,2.0026,2.0017,2.0051,2.0051,2.0051,2.0051,2.0029,1.9842,1.9818,1.9972,2.0012,2.0014,1.9999,2.0017,2.0058,2.0073,2.0039,2.0032,2.0089,2.0113,2.0168,2.0237,2.0173,2.0078,2.0047,1.9921,1.9892,2.0004,2.0102,2.012,2.0078,2.0167,2.0325,2.0238,1.9841,1.9674,2.0038,1.9401,1.9054,1.8963,1.8869,1.8639,1.8431,1.8572,1.8865,1.9232,1.9427,1.9604,1.9929,1.9772,1.9591,1.952,1.9322,1.9094,1.9023,1.8839,1.8901,1.9131,1.923,1.9288,1.8801,1.8164,1.7239,1.635,1.5813,1.5816,1.5823,1.5807,1.5816,1.5816,1.5816,1.5813,1.5814,1.5842,1.586,1.578,1.5654,1.557,1.5508,1.5524,1.5562,1.5595,1.5622,1.5633,1.5678,1.5788,1.5797,1.9419,1.941,1.9508,1.9598,1.9703,1.971,1.9647,1.9578,1.9654,1.9647,1.9584,1.9676,1.971,1.971,1.971,1.971,1.973,1.9769,1.9871,1.9947,1.9909,1.9898,1.9956,2.0138,2.0289,2.0271,2.0151,2.0114,2.0112,2.0173,2.0207,2.0191,2.0191,2.0191,2.0171,1.9983,1.9961,2.0054,2.0214,2.0261,2.0167,2.018,2.0223,2.034,2.0404,2.0471,2.0322,2.0295,2.0363,2.0369,2.0141,1.9919,1.9936,1.9914,1.9939,2.0009,2.0158,2.0274,2.0309,2.0402,2.0496,2.0501,2.0217,2.0263,2.0324,1.9932,1.96,1.9394,1.9176,1.8909,1.8755,1.8833,1.9164,1.9226,1.9552,1.9834,2.0014,1.9883,1.971,1.969,1.954,1.9388,1.9277,1.9178,1.9255,1.945,1.9461,1.9541,1.9838,1.9119,1.7999,1.7068,1.6188,1.581,1.5837,1.5824,1.5806,1.5816,1.5816,1.5809,1.5816,1.5855,1.5921,1.5819,1.5718,1.5712,1.5675,1.5697,1.5697,1.5713,1.5741,1.5784,1.5815,1.5806,1.5805,1.9473,1.9459,1.964,1.971,1.971,1.971,1.9703,1.9703,1.9715,1.97,1.9717,1.9708,1.9712,1.9729,1.9751,1.9735,1.9803,1.991,2.0044,2.011,2.0162,2.0167,2.0218,2.0367,2.0468,2.0483,2.0294,2.02,2.0227,2.0273,2.0325,2.0331,2.0331,2.0331,2.0298,2.0232,2.0176,2.0182,2.0346,2.0479,2.0412,2.0422,2.0456,2.0632,2.0876,2.088,2.0604,2.0457,2.0449,2.0471,2.0058,1.9849,1.9872,1.9938,2.0148,2.013,2.0282,2.0368,2.044,2.0487,2.0512,2.0505,2.049,2.0473,2.0426,2.0273,1.9968,1.9681,1.9428,1.9273,1.9277,1.9275,1.9101,1.9054,1.9407,1.9756,1.9807,1.9822,1.9847,1.9709,1.9659,1.9559,1.9542,1.9495,1.963,1.9724,1.9717,1.9868,2.0175,2.0213,1.9194,1.7953,1.7051,1.598,1.5831,1.5905,1.5881,1.582,1.5824,1.5828,1.5862,1.6038,1.6088,1.5877,1.5792,1.5801,1.5794,1.5757,1.5768,1.5801,1.5816,1.5816,1.5816,1.5816,1.5816,1.9763,1.9654,1.9681,1.971,1.971,1.971,1.971,1.9715,1.9718,1.972,1.9715,1.9718,1.9788,1.9856,1.9871,1.9924,2.0032,2.0139,2.0225,2.0293,2.0361,2.0408,2.0415,2.0451,2.0503,2.051,2.0435,2.0399,2.0426,2.0444,2.0487,2.0465,2.0487,2.0487,2.0487,2.0447,2.0408,2.0376,2.0494,2.0646,2.0825,2.0818,2.0763,2.0906,2.1113,2.107,2.0778,2.0414,2.0279,2.0472,2.0426,2.0372,2.032,2.0153,2.0159,2.0327,2.044,2.05,2.0491,2.0525,2.0521,2.0515,2.0509,2.0503,2.0487,2.0434,2.0172,1.9865,1.968,1.9603,1.961,1.9559,1.9333,1.9251,1.9716,2.0359,2.038,2.0356,2.0214,2.0015,1.9866,1.9741,1.98,1.9764,1.9733,1.9816,1.9854,2.0187,2.0641,2.0885,2.0708,1.9361,1.7966,1.6796,1.5843,1.5936,1.5969,1.5882,1.5862,1.5896,1.5991,1.6242,1.6271,1.6406,1.6168,1.5975,1.5937,1.5914,1.59,1.5958,1.59,1.5806,1.5809,1.5801,1.583,1.9756,1.971,1.971,1.971,1.971,1.971,1.971,1.9715,1.9708,1.9742,1.9812,1.9884,1.9943,1.999,2.0005,2.0078,2.0198,2.0257,2.0338,2.0406,2.0465,2.0508,2.0514,2.0514,2.0508,2.0508,2.0508,2.0562,2.0632,2.0661,2.0673,2.0738,2.0761,2.0745,2.0696,2.0584,2.0545,2.0538,2.0687,2.0927,2.1246,2.1215,2.1214,2.1095,2.1298,2.1335,2.1116,2.0946,2.0845,2.0956,2.0962,2.0964,2.0841,2.0623,2.0379,2.0449,2.0571,2.0604,2.0572,2.0627,2.0691,2.0533,2.0524,2.0503,2.0501,2.0455,2.034,2.0046,1.9891,1.983,1.9703,1.9731,1.9555,1.956,2.0246,2.0831,2.0946,2.0949,2.0743,2.0445,2.0327,2.0225,2.0126,2.0053,1.9885,1.9887,1.9982,2.0442,2.0997,2.1201,2.1327,2.006,1.8534,1.749,1.6541,1.6503,1.6435,1.625,1.6263,1.6292,1.6471,1.6881,1.721,1.7436,1.704,1.6739,1.631,1.6347,1.6243,1.6122,1.5967,1.5859,1.5825,1.5816,1.5882,1.971,1.971,1.9722,1.9715,1.971,1.9737,1.9757,1.9732,1.9723,1.9783,2.0097,2.1295,2.1725,2.1142,2.1006,2.0928,2.048,2.0345,2.0433,2.0528,2.0505,2.0498,2.05,2.0528,2.0544,2.0669,2.0591,2.0655,2.0761,2.0782,2.0867,2.0926,2.0987,2.1001,2.0915,2.0752,2.063,2.0701,2.0903,2.1196,2.1367,2.1576,2.156,2.122,2.1549,2.1663,2.1501,2.1403,2.134,2.1353,2.134,2.1364,2.1335,2.109,2.08,2.06,2.0743,2.0754,2.0806,2.0899,2.0976,2.08,2.0724,2.0711,2.0683,2.069,2.0521,2.0304,2.0184,2.0064,1.9889,1.9865,1.9964,2.0229,2.0821,2.1379,2.13,2.1256,2.1206,2.0999,2.083,2.0612,2.044,2.0419,2.0277,2.0144,2.0233,2.0534,2.1038,2.1254,2.1132,2.0132,1.9001,1.8068,1.7457,1.733,1.7193,1.697,1.7137,1.7301,1.7488,1.7754,1.8146,1.8614,1.8499,1.8166,1.7499,1.6925,1.7023,1.6867,1.6261,1.5931,1.5943,1.6016,1.612,1.971,1.9717,1.9808,1.981,1.9729,1.9831,1.9878,1.9852,1.9765,1.9847,2.0752,2.4922,2.5761,2.3981,2.3551,2.2463,2.1108,2.0494,2.0584,2.0709,2.0627,2.0554,2.051,2.0514,2.07,2.0809,2.0775,2.0766,2.0833,2.085,2.0911,2.1007,2.1055,2.1014,2.1029,2.0987,2.0952,2.0998,2.1207,2.1298,2.1314,2.1658,2.1696,2.1662,2.1719,2.1804,2.1725,2.1625,2.1544,2.1415,2.1402,2.1399,2.1383,2.1383,2.1255,2.1154,2.114,2.1178,2.1215,2.126,2.1289,2.1186,2.1207,2.1278,2.1159,2.1012,2.0855,2.0748,2.058,2.0392,2.0219,2.0274,2.0643,2.0909,2.1191,2.1392,2.1382,2.1229,2.1201,2.1178,2.0894,2.0747,2.0589,2.0653,2.0682,2.0546,2.0511,2.0807,2.0983,2.1164,2.1141,2.0225,1.9496,1.861,1.8277,1.8171,1.7919,1.7705,1.8089,1.8377,1.8681,1.901,1.9543,1.9892,1.973,1.9329,1.8574,1.8125,1.8041,1.7714,1.7274,1.6669,1.6091,1.6196,1.6324,1.9892,1.9832,1.9863,1.9903,1.9931,1.9992,2.0019,1.9986,1.9967,2.0916,2.2959,2.6592,2.7016,2.4933,2.3232,2.1804,2.0812,2.078,2.0772,2.0909,2.0834,2.0708,2.0609,2.0725,2.0946,2.0943,2.0945,2.0983,2.098,2.1028,2.1102,2.1201,2.1228,2.1249,2.1192,2.1228,2.1219,2.1246,2.1326,2.136,2.1405,2.1591,2.1699,2.1547,2.1625,2.1658,2.1631,2.157,2.1483,2.1392,2.1392,2.1385,2.1385,2.1408,2.1388,2.1506,2.1469,2.1388,2.1247,2.134,2.1379,2.1399,2.1394,2.1362,2.1372,2.1296,2.1119,2.0915,2.0845,2.0718,2.0643,2.0718,2.0976,2.1236,2.1384,2.1391,2.1335,2.1139,2.1039,2.1,2.0989,2.0865,2.0758,2.0761,2.0837,2.0846,2.0782,2.0908,2.0951,2.0933,2.0805,2.0451,1.9802,1.9156,1.9052,1.896,1.8637,1.8564,1.9267,1.9579,1.9963,2.0374,2.0523,2.0526,2.0252,1.9822,1.9414,1.9229,1.9042,1.8711,1.835,1.7781,1.7172,1.633,1.6431,2.1588,2.0907,2.0297,2.006,2.0151,2.0796,2.1191,2.1085,2.0363,2.1691,2.452,2.7212,2.7717,2.6753,2.5215,2.4142,2.2049,2.1895,2.143,2.1284,2.1053,2.0958,2.089,2.1021,2.1072,2.1104,2.1081,2.1123,2.1201,2.1239,2.1296,2.1392,2.1361,2.1381,2.1382,2.14,2.1427,2.1679,2.1589,2.1578,2.1622,2.1692,2.1699,2.1618,2.1561,2.1508,2.1434,2.1571,2.1598,2.1414,2.1531,2.1594,2.1668,2.1631,2.1649,2.1743,2.1763,2.1615,2.1453,2.1416,2.1403,2.1395,2.1385,2.1393,2.1398,2.1397,2.136,2.1113,2.11,2.1098,2.11,2.1097,2.1187,2.1313,2.1401,2.1399,2.1347,2.1169,2.1021,2.099,2.0989,2.104,2.0937,2.0885,2.0936,2.1067,2.1111,2.1075,2.0974,2.0828,2.0741,2.0582,2.0372,1.9863,1.9756,1.962,1.9331,1.9334,2.0025,2.0361,2.0468,2.0536,2.0575,2.057,2.0621,2.0542,2.0248,2.0136,1.9995,1.965,1.9295,1.8963,1.8331,1.737,1.6504,2.5854,2.3639,2.1496,2.0543,2.0444,2.2897,2.3938,2.3671,2.1384,2.2236,2.5089,2.7354,2.9887,3.1155,3.0413,2.8275,2.4902,2.491,2.3834,2.235,2.1173,2.1401,2.1312,2.1174,2.1193,2.1289,2.1237,2.1262,2.1361,2.1415,2.1415,2.1392,2.1483,2.1435,2.1453,2.1555,2.1815,2.2038,2.2025,2.193,2.192,2.1916,2.1882,2.1998,2.1994,2.1874,2.1465,2.1769,2.1858,2.1549,2.17,2.1919,2.1994,2.1896,2.1896,2.195,2.194,2.1835,2.176,2.1504,2.1404,2.1403,2.1398,2.1426,2.1485,2.1411,2.1374,2.1364,2.133,2.1334,2.1358,2.1388,2.1348,2.1363,2.1383,2.1385,2.135,2.1214,2.1068,2.0994,2.1026,2.1094,2.1075,2.0994,2.089,2.0985,2.0905,2.0869,2.0896,2.0809,2.0848,2.08,2.0856,2.0625,2.043,2.0232,2.002,1.9957,2.0335,2.0462,2.0499,2.0561,2.079,2.0827,2.0911,2.1013,2.1018,2.0636,2.0394,2.0424,2.0212,1.9748,1.9325,1.8556,1.7447,2.7557,2.6387,2.5799,2.547,2.5315,2.6457,2.692,2.6739,2.5778,2.5873,2.7056,2.8424,3.0287,3.1959,3.1286,2.9912,2.7818,2.7862,2.7011,2.6088,2.494,2.3017,2.2154,2.1338,2.1329,2.1373,2.1337,2.1334,2.1401,2.1581,2.1682,2.1713,2.1733,2.1771,2.1801,2.1852,2.2171,2.242,2.2454,2.2348,2.1974,2.1947,2.1926,2.1957,2.2086,2.2089,2.1973,2.2031,2.2014,2.198,2.199,2.2151,2.227,2.2117,2.2072,2.212,2.2059,2.2032,2.1957,2.1665,2.1403,2.1387,2.1411,2.1481,2.1625,2.1533,2.149,2.1483,2.1456,2.1429,2.1564,2.1476,2.1382,2.1387,2.1424,2.145,2.1446,2.1382,2.1401,2.1443,2.1313,2.1252,2.1174,2.1072,2.0972,2.0875,2.0772,2.069,2.0717,2.0793,2.0848,2.0917,2.0953,2.0797,2.0584,2.0607,2.0664,2.0641,2.0617,2.0666,2.0701,2.0993,2.1166,2.12,2.1126,2.1109,2.1019,2.0824,2.072,2.069,2.0593,2.0383,1.9967,1.9558,1.8675,3.0132,2.9414,3.0594,3.0071,2.8722,2.9434,2.9766,2.9872,3.0642,2.9823,2.8732,2.9435,3.1437,3.2932,3.2943,3.1598,3.1044,3.0677,2.967,2.7991,2.582,2.3882,2.2242,2.139,2.1368,2.1392,2.1415,2.1422,2.1594,2.1811,2.2001,2.2116,2.2116,2.2127,2.2055,2.2158,2.2349,2.2585,2.2609,2.2561,2.214,2.2076,2.2103,2.215,2.2293,2.2461,2.2485,2.2495,2.2353,2.2288,2.2286,2.2341,2.2345,2.2317,2.2215,2.2191,2.2184,2.214,2.2065,2.1821,2.1595,2.1727,2.1726,2.1756,2.1679,2.1614,2.1635,2.1543,2.1479,2.1493,2.1678,2.1624,2.1477,2.1488,2.1767,2.1823,2.1823,2.1782,2.1858,2.191,2.1675,2.1341,2.1239,2.1131,2.0923,2.0798,2.0655,2.0589,2.0598,2.0699,2.0859,2.0926,2.1002,2.0791,2.0571,2.0648,2.0709,2.0701,2.073,2.0884,2.1017,2.1292,2.1393,2.1315,2.1245,2.1157,2.1104,2.1059,2.0978,2.0915,2.0744,2.0553,2.0505,2.0093,1.9886,3.4185,3.267,3.5082,3.3223,2.9384,3.1401,3.2452,3.2568,3.4267,3.3146,2.9894,3.1038,3.3556,3.6174,3.6312,3.5343,3.405,3.3674,3.1786,2.8202,2.6945,2.4373,2.2745,2.2019,2.1435,2.1398,2.1449,2.1588,2.1815,2.2008,2.2273,2.2476,2.2449,2.2392,2.2137,2.1973,2.207,2.2288,2.2346,2.24,2.2422,2.231,2.2323,2.2415,2.2596,2.2748,2.2832,2.2846,2.2691,2.2518,2.2535,2.2588,2.2583,2.2424,2.2377,2.2487,2.2347,2.2289,2.2275,2.2011,2.1991,2.2055,2.198,2.1824,2.1597,2.1592,2.1722,2.1557,2.1456,2.1543,2.1668,2.1786,2.1649,2.174,2.2011,2.2113,2.2095,2.2085,2.2119,2.2046,2.1717,2.1401,2.13,2.1165,2.09,2.0723,2.057,2.051,2.0516,2.0589,2.0756,2.0841,2.0899,2.0794,2.0612,2.0709,2.077,2.0762,2.0834,2.0976,2.1143,2.1328,2.1394,2.139,2.1429,2.1416,2.1392,2.1365,2.125,2.11,2.0783,2.0624,2.0654,2.0711,2.0581,3.5765,3.4994,3.6136,3.554,3.403,3.479,3.538,3.5349,3.4288,3.3733,3.3924,3.2973,3.387,3.6551,3.7782,3.7417,3.6692,3.6654,3.4212,3.128,2.9033,2.8226,2.6158,2.2962,2.1606,2.1479,2.1513,2.1618,2.175,2.213,2.2337,2.2489,2.2589,2.2576,2.2481,2.2346,2.2255,2.2303,2.2314,2.2329,2.2387,2.235,2.2356,2.2448,2.2696,2.2883,2.2959,2.2987,2.2962,2.283,2.2859,2.274,2.2642,2.2443,2.2467,2.2462,2.2316,2.2309,2.2295,2.2187,2.2218,2.2185,2.1991,2.1733,2.1456,2.1471,2.1524,2.1597,2.1591,2.1689,2.1814,2.1858,2.1852,2.2038,2.2229,2.2243,2.2246,2.2236,2.2222,2.2038,2.175,2.1507,2.1361,2.1306,2.1085,2.103,2.0948,2.0667,2.0581,2.0525,2.0608,2.0666,2.0709,2.0671,2.0668,2.0763,2.0768,2.0722,2.0862,2.1059,2.1229,2.1376,2.143,2.1458,2.1574,2.168,2.1586,2.1497,2.1447,2.1263,2.1061,2.0952,2.1014,2.127,2.149,3.6599,3.6367,3.6524,3.6657,3.673,3.6645,3.6916,3.6864,3.4677,3.5115,3.6641,3.5039,3.5224,3.7222,3.7935,3.8144,3.7867,3.6868,3.6308,3.3474,2.9919,2.7573,2.5391,2.3822,2.1868,2.1486,2.1597,2.173,2.1892,2.2364,2.252,2.2486,2.2517,2.2562,2.2522,2.2378,2.2292,2.2302,2.2312,2.2373,2.2469,2.2516,2.2557,2.2699,2.2855,2.2985,2.2945,2.3022,2.3212,2.3189,2.3068,2.2944,2.2803,2.258,2.2564,2.2444,2.235,2.2329,2.2302,2.2295,2.2286,2.2286,2.1879,2.1744,2.1684,2.1693,2.17,2.1747,2.1774,2.1835,2.1896,2.1933,2.2025,2.2211,2.2289,2.2314,2.2293,2.2286,2.2075,2.1902,2.1744,2.153,2.1405,2.14,2.1305,2.1328,2.1351,2.1026,2.0703,2.0686,2.0672,2.0758,2.0779,2.079,2.0811,2.0838,2.081,2.0699,2.0892,2.1125,2.1254,2.1394,2.1472,2.1543,2.1693,2.1777,2.1691,2.1632,2.1666,2.1653,2.1544,2.1463,2.142,2.1615,2.191,3.6882,3.6615,3.6582,3.6739,3.6908,3.6714,3.6927,3.7311,3.6761,3.7113,3.8147,3.7951,3.7759,3.7799,3.8132,3.818,3.7932,3.583,3.4767,3.3069,3.0028,2.6452,2.3733,2.235,2.2076,2.178,2.1709,2.1994,2.212,2.2292,2.2445,2.2537,2.2537,2.2506,2.2393,2.2334,2.238,2.2463,2.2522,2.2633,2.2748,2.2798,2.2875,2.3013,2.3194,2.312,2.3129,2.3293,2.3411,2.3388,2.3248,2.3402,2.3284,2.2815,2.2732,2.2623,2.2516,2.2423,2.23,2.2303,2.2315,2.2315,2.2273,2.2257,2.2174,2.1974,2.1923,2.1886,2.1886,2.1933,2.196,2.2013,2.205,2.219,2.2299,2.2296,2.2286,2.215,2.1886,2.169,2.1523,2.1379,2.1303,2.1295,2.1392,2.1312,2.1328,2.138,2.1103,2.1001,2.1026,2.1095,2.1091,2.0994,2.1007,2.1021,2.0951,2.0883,2.0976,2.1182,2.1305,2.1426,2.153,2.1657,2.1826,2.1898,2.1974,2.2008,2.2028,2.1987,2.1987,2.1679,2.1573,2.1729,2.1932,3.6689,3.6582,3.6582,3.6642,3.6742,3.6851,3.7004,3.7154,3.7155,3.7817,3.8904,3.8391,3.8357,3.8563,3.8317,3.8228,3.79,3.7215,3.5697,3.3684,3.1605,2.7121,2.4703,2.3924,2.3509,2.2823,2.2464,2.2596,2.2369,2.2406,2.2469,2.2687,2.25,2.2364,2.233,2.2327,2.2596,2.2851,2.2928,2.2998,2.3069,2.3097,2.318,2.3289,2.3399,2.3311,2.3322,2.3507,2.366,2.3808,2.3633,2.3656,2.3601,2.3568,2.3585,2.3072,2.2852,2.2632,2.2388,2.2317,2.2315,2.2315,2.2317,2.23,2.2284,2.2222,2.2103,2.2038,2.2055,2.2102,2.2125,2.2151,2.2174,2.2224,2.2334,2.2347,2.234,2.2222,2.195,2.1642,2.1486,2.1522,2.1411,2.1323,2.1387,2.1269,2.1283,2.1463,2.156,2.1473,2.1408,2.1501,2.1367,2.1258,2.1228,2.1235,2.1141,2.1069,2.1212,2.1289,2.1363,2.1494,2.1615,2.1766,2.1943,2.2171,2.2382,2.2365,2.226,2.2469,2.2469,2.2041,2.1773,2.2011,2.225,3.7054,3.6612,3.6582,3.6657,3.6811,3.7161,3.7398,3.752,3.7445,3.814,3.9263,3.9012,3.8797,3.8672,3.8382,3.8221,3.8233,3.6799,3.5944,3.6335,3.3934,3.1594,2.9085,2.7649,2.7191,2.5973,2.4785,2.4492,2.3595,2.2596,2.2448,2.254,2.2356,2.2331,2.2371,2.2606,2.3029,2.3342,2.3532,2.35,2.343,2.3409,2.3456,2.3533,2.3623,2.3588,2.3572,2.379,2.3928,2.4094,2.3896,2.386,2.3849,2.39,2.3723,2.3248,2.307,2.2904,2.2743,2.2563,2.2443,2.2332,2.2331,2.2409,2.2415,2.2389,2.2232,2.2137,2.2218,2.2299,2.2302,2.23,2.2303,2.2298,2.2355,2.2417,2.2378,2.2314,2.2038,2.171,2.1639,2.1706,2.1653,2.1531,2.1433,2.1419,2.1581,2.1886,2.204,2.2106,2.1993,2.1958,2.1723,2.153,2.1499,2.1493,2.146,2.1447,2.154,2.1591,2.1531,2.1652,2.1886,2.1996,2.2052,2.2266,2.2429,2.2469,2.2457,2.2633,2.2636,2.2292,2.2167,2.2503,2.2751,3.7819,3.6793,3.6689,3.691,3.7175,3.7583,3.7938,3.8225,3.7801,3.8314,3.9463,3.959,3.9166,3.8708,3.8345,3.8361,3.7971,3.6767,3.6993,3.8627,3.4902,3.3288,3.4278,3.3418,3.0751,3.0082,2.8602,2.59,2.5139,2.3728,2.2323,2.2316,2.2316,2.2315,2.2366,2.2837,2.3311,2.3809,2.3916,2.3878,2.3756,2.3748,2.3854,2.4026,2.4061,2.4061,2.4068,2.4089,2.4102,2.4104,2.41,2.4096,2.4018,2.3907,2.361,2.3492,2.339,2.3354,2.3191,2.2994,2.271,2.2527,2.2372,2.2591,2.2682,2.2568,2.2411,2.2275,2.2333,2.2398,2.2417,2.2415,2.2423,2.2577,2.2736,2.2661,2.2515,2.2533,2.2503,2.2168,2.1943,2.2018,2.2089,2.2006,2.2013,2.1827,2.1806,2.2171,2.2294,2.2435,2.2404,2.227,2.2016,2.1777,2.1815,2.1801,2.1821,2.1855,2.1848,2.169,2.148,2.1787,2.2221,2.2162,2.2096,2.2208,2.2347,2.2411,2.2425,2.2408,2.2408,2.2356,2.2494,2.2799,2.3119,3.8323,3.7987,3.7498,3.7649,3.8177,3.7713,3.8128,3.8981,3.8701,3.8834,3.9286,3.9191,3.9024,3.8756,3.8357,3.8349,3.8159,3.7646,3.7917,3.8496,3.6508,3.6258,3.7599,3.5344,3.3158,3.145,2.9455,2.6566,2.4303,2.2921,2.2381,2.2483,2.2401,2.2311,2.2353,2.2873,2.3401,2.4044,2.4099,2.4075,2.3993,2.3999,2.408,2.4102,2.4102,2.4102,2.4102,2.4102,2.4102,2.4107,2.4112,2.4112,2.41,2.4021,2.3967,2.3904,2.3814,2.3788,2.3649,2.3388,2.311,2.3008,2.2934,2.3011,2.3003,2.2786,2.2627,2.2496,2.2452,2.2506,2.253,2.2527,2.2595,2.2853,2.307,2.2873,2.2675,2.2787,2.2896,2.2658,2.2355,2.2364,2.2483,2.2525,2.2532,2.2419,2.2227,2.2303,2.2307,2.239,2.2455,2.2352,2.2178,2.2035,2.2048,2.2035,2.2018,2.1977,2.1937,2.1722,2.1482,2.1892,2.2303,2.2151,2.2103,2.2292,2.2397,2.2336,2.2336,2.2384,2.2313,2.23,2.2523,2.2809,2.3209,3.8765,3.8445,3.8094,3.8433,3.9018,3.8753,3.9159,3.9831,3.9492,3.9312,3.9304,3.8902,3.8664,3.8703,3.8374,3.843,3.8643,3.8575,3.8726,3.9008,3.9169,3.9024,3.8322,3.7351,3.4851,3.2771,2.935,2.6219,2.3247,2.2496,2.2374,2.2459,2.2359,2.2336,2.2368,2.2732,2.3297,2.4054,2.4088,2.4107,2.4102,2.4102,2.4102,2.4102,2.4102,2.4102,2.4102,2.4102,2.4102,2.4102,2.4114,2.4114,2.4102,2.4082,2.4089,2.4072,2.4062,2.4039,2.3886,2.3705,2.3408,2.3287,2.3193,2.3147,2.3142,2.296,2.2841,2.273,2.2751,2.2791,2.2652,2.2611,2.2795,2.3026,2.3123,2.3051,2.298,2.3022,2.3061,2.296,2.2787,2.2808,2.2884,2.2879,2.2849,2.263,2.2503,2.2315,2.2326,2.2432,2.249,2.2475,2.2344,2.2225,2.218,2.218,2.2174,2.2116,2.2058,2.1985,2.1921,2.2158,2.2348,2.2458,2.2502,2.2534,2.2577,2.2543,2.2591,2.2699,2.2521,2.2308,2.2566,2.2858,2.3281,3.9363,3.8832,3.8776,3.9192,3.9821,3.9851,4.0173,4.0556,4.0049,3.9575,3.925,3.8541,3.8408,3.8406,3.8398,3.8615,3.8828,3.8985,3.9294,3.9487,3.9777,3.9773,3.9989,3.9809,3.5729,3.1425,2.7564,2.5237,2.284,2.2513,2.2387,2.2356,2.236,2.2375,2.2369,2.2553,2.3059,2.3834,2.4105,2.4107,2.4102,2.4102,2.4102,2.4102,2.4102,2.4102,2.4102,2.4102,2.4102,2.4102,2.4102,2.4102,2.4102,2.4102,2.4102,2.4099,2.4023,2.3912,2.3776,2.3769,2.3521,2.3342,2.3232,2.3196,2.3197,2.3138,2.3019,2.2988,2.3002,2.2925,2.2785,2.2752,2.2937,2.3098,2.313,2.3185,2.3185,2.3203,2.3167,2.3142,2.316,2.3167,2.3173,2.3176,2.3029,2.2816,2.2621,2.244,2.2359,2.2573,2.2697,2.2686,2.2603,2.2487,2.2367,2.2292,2.2285,2.2281,2.2261,2.2282,2.2418,2.2762,2.2977,2.3056,2.3104,2.2919,2.2886,2.2879,2.2947,2.3002,2.2734,2.2523,2.2635,2.2938,2.3378,4.0568,4.0429,4.016,4.0235,4.0365,3.9531,3.9378,3.9863,4.007,3.9535,3.8723,3.8413,3.8253,3.8305,3.847,3.8692,3.8904,3.9234,3.9342,3.9427,4.0138,4.0178,4.0259,4.0318,3.4144,2.8972,2.4946,2.3612,2.2769,2.2612,2.2592,2.2656,2.2669,2.2688,2.2724,2.294,2.3272,2.3899,2.4117,2.4102,2.4102,2.4102,2.4102,2.4102,2.4102,2.4102,2.4102,2.4102,2.4102,2.4102,2.4089,2.4094,2.41,2.4094,2.4082,2.4053,2.3978,2.3842,2.376,2.3581,2.3322,2.3275,2.3201,2.3194,2.32,2.3182,2.3113,2.3099,2.3072,2.2974,2.2852,2.281,2.2942,2.3012,2.3059,2.3149,2.3187,2.3187,2.3187,2.3169,2.3187,2.3187,2.3191,2.3161,2.3071,2.2844,2.2639,2.245,2.2353,2.2604,2.2908,2.2873,2.2819,2.2709,2.2575,2.2431,2.2393,2.2427,2.2546,2.274,2.3024,2.3442,2.3625,2.3554,2.3359,2.3148,2.3151,2.3232,2.3198,2.3196,2.2927,2.2759,2.2839,2.3005,2.3413]}]]